<?xml version="1.0" encoding="UTF-8" standalone="no" ?>
<gpx xmlns="http://www.topografix.com/GPX/1/1" xmlns:xsi="http://www.w3.org/2001/XMLSchema-instance" xsi:schemaLocation="http://www.topografix.com/GPX/1/1 http://www.topografix.com/GPX/1/1/gpx.xsd" version="1.1" creator="VisuGPX - https://www.visugpx.com">
  <metadata>
    <name>Saint-Agrève -- Rochepaule</name>
    <desc><![CDATA[Une grosse cote en milieu de parcours ....
A ne pas faire pas temps chaud ...]]></desc>
  </metadata>
  <trk>
    <name><![CDATA[009-2009/05/19-11:17:29]]></name>
    <trkseg>
      <trkpt lat="44.79757" lon="-0.59703">
        <ele>19</ele>
        <time>2009-05-19T09:17:29Z</time>
      </trkpt>
      <trkpt lat="44.79735" lon="-0.59729">
        <ele>25</ele>
        <time>2009-05-19T09:17:41Z</time>
      </trkpt>
      <trkpt lat="44.79733" lon="-0.59729">
        <ele>25</ele>
        <time>2009-05-19T09:17:42Z</time>
      </trkpt>
      <trkpt lat="44.79731" lon="-0.5973">
        <ele>25</ele>
        <time>2009-05-19T09:17:43Z</time>
      </trkpt>
      <trkpt lat="44.79727" lon="-0.59729">
        <ele>25</ele>
        <time>2009-05-19T09:17:44Z</time>
      </trkpt>
      <trkpt lat="44.79724" lon="-0.59728">
        <ele>25</ele>
        <time>2009-05-19T09:17:45Z</time>
      </trkpt>
      <trkpt lat="44.79722" lon="-0.59724">
        <ele>25</ele>
        <time>2009-05-19T09:17:46Z</time>
      </trkpt>
      <trkpt lat="44.7972" lon="-0.5972">
        <ele>25</ele>
        <time>2009-05-19T09:17:47Z</time>
      </trkpt>
      <trkpt lat="44.79718" lon="-0.59717">
        <ele>25</ele>
        <time>2009-05-19T09:17:48Z</time>
      </trkpt>
      <trkpt lat="44.79715" lon="-0.59715">
        <ele>25</ele>
        <time>2009-05-19T09:17:49Z</time>
      </trkpt>
      <trkpt lat="44.79713" lon="-0.59711">
        <ele>25</ele>
        <time>2009-05-19T09:17:50Z</time>
      </trkpt>
      <trkpt lat="44.79711" lon="-0.59708">
        <ele>25</ele>
        <time>2009-05-19T09:17:51Z</time>
      </trkpt>
      <trkpt lat="44.7971" lon="-0.59705">
        <ele>25</ele>
        <time>2009-05-19T09:17:52Z</time>
      </trkpt>
      <trkpt lat="44.79707" lon="-0.59704">
        <ele>25</ele>
        <time>2009-05-19T09:17:53Z</time>
      </trkpt>
      <trkpt lat="44.79705" lon="-0.597">
        <ele>25</ele>
        <time>2009-05-19T09:17:54Z</time>
      </trkpt>
      <trkpt lat="44.79703" lon="-0.59697">
        <ele>25</ele>
        <time>2009-05-19T09:17:55Z</time>
      </trkpt>
      <trkpt lat="44.797" lon="-0.59695">
        <ele>25</ele>
        <time>2009-05-19T09:17:56Z</time>
      </trkpt>
      <trkpt lat="44.79696" lon="-0.59693">
        <ele>25</ele>
        <time>2009-05-19T09:17:57Z</time>
      </trkpt>
      <trkpt lat="44.79693" lon="-0.59686">
        <ele>25</ele>
        <time>2009-05-19T09:17:58Z</time>
      </trkpt>
      <trkpt lat="44.7969" lon="-0.5968">
        <ele>25</ele>
        <time>2009-05-19T09:17:59Z</time>
      </trkpt>
      <trkpt lat="44.79687" lon="-0.59676">
        <ele>24</ele>
        <time>2009-05-19T09:18:00Z</time>
      </trkpt>
      <trkpt lat="44.79684" lon="-0.59672">
        <ele>23</ele>
        <time>2009-05-19T09:18:01Z</time>
      </trkpt>
      <trkpt lat="44.79682" lon="-0.59663">
        <ele>22</ele>
        <time>2009-05-19T09:18:02Z</time>
      </trkpt>
      <trkpt lat="44.79678" lon="-0.59671">
        <ele>20</ele>
        <time>2009-05-19T09:18:03Z</time>
      </trkpt>
      <trkpt lat="44.79675" lon="-0.59676">
        <ele>18</ele>
        <time>2009-05-19T09:18:04Z</time>
      </trkpt>
      <trkpt lat="44.79672" lon="-0.59682">
        <ele>17</ele>
        <time>2009-05-19T09:18:05Z</time>
      </trkpt>
      <trkpt lat="44.7967" lon="-0.59685">
        <ele>16</ele>
        <time>2009-05-19T09:18:06Z</time>
      </trkpt>
      <trkpt lat="44.79667" lon="-0.59687">
        <ele>15</ele>
        <time>2009-05-19T09:18:07Z</time>
      </trkpt>
      <trkpt lat="44.79664" lon="-0.59687">
        <ele>15</ele>
        <time>2009-05-19T09:18:08Z</time>
      </trkpt>
      <trkpt lat="44.79662" lon="-0.59685">
        <ele>15</ele>
        <time>2009-05-19T09:18:09Z</time>
      </trkpt>
      <trkpt lat="44.7966" lon="-0.59682">
        <ele>15</ele>
        <time>2009-05-19T09:18:10Z</time>
      </trkpt>
      <trkpt lat="44.79658" lon="-0.59678">
        <ele>15</ele>
        <time>2009-05-19T09:18:11Z</time>
      </trkpt>
      <trkpt lat="44.79656" lon="-0.59674">
        <ele>15</ele>
        <time>2009-05-19T09:18:12Z</time>
      </trkpt>
      <trkpt lat="44.79654" lon="-0.5967">
        <ele>15</ele>
        <time>2009-05-19T09:18:13Z</time>
      </trkpt>
      <trkpt lat="44.79652" lon="-0.59667">
        <ele>15</ele>
        <time>2009-05-19T09:18:14Z</time>
      </trkpt>
      <trkpt lat="44.7965" lon="-0.59664">
        <ele>16</ele>
        <time>2009-05-19T09:18:15Z</time>
      </trkpt>
      <trkpt lat="44.79649" lon="-0.59661">
        <ele>17</ele>
        <time>2009-05-19T09:18:16Z</time>
      </trkpt>
      <trkpt lat="44.79647" lon="-0.59658">
        <ele>18</ele>
        <time>2009-05-19T09:18:17Z</time>
      </trkpt>
      <trkpt lat="44.79646" lon="-0.59655">
        <ele>19</ele>
        <time>2009-05-19T09:18:18Z</time>
      </trkpt>
      <trkpt lat="44.79646" lon="-0.59651">
        <ele>20</ele>
        <time>2009-05-19T09:18:19Z</time>
      </trkpt>
      <trkpt lat="44.79645" lon="-0.59647">
        <ele>21</ele>
        <time>2009-05-19T09:18:20Z</time>
      </trkpt>
      <trkpt lat="44.79644" lon="-0.59643">
        <ele>22</ele>
        <time>2009-05-19T09:18:21Z</time>
      </trkpt>
      <trkpt lat="44.79643" lon="-0.59639">
        <ele>23</ele>
        <time>2009-05-19T09:18:22Z</time>
      </trkpt>
      <trkpt lat="44.79643" lon="-0.59635">
        <ele>23</ele>
        <time>2009-05-19T09:18:23Z</time>
      </trkpt>
      <trkpt lat="44.79642" lon="-0.59631">
        <ele>24</ele>
        <time>2009-05-19T09:18:24Z</time>
      </trkpt>
      <trkpt lat="44.79638" lon="-0.59625">
        <ele>25</ele>
        <time>2009-05-19T09:18:25Z</time>
      </trkpt>
      <trkpt lat="44.79637" lon="-0.59621">
        <ele>26</ele>
        <time>2009-05-19T09:18:26Z</time>
      </trkpt>
      <trkpt lat="44.79636" lon="-0.59617">
        <ele>27</ele>
        <time>2009-05-19T09:18:27Z</time>
      </trkpt>
      <trkpt lat="44.79636" lon="-0.59614">
        <ele>28</ele>
        <time>2009-05-19T09:18:28Z</time>
      </trkpt>
      <trkpt lat="44.79637" lon="-0.5961">
        <ele>29</ele>
        <time>2009-05-19T09:18:29Z</time>
      </trkpt>
      <trkpt lat="44.79637" lon="-0.59606">
        <ele>30</ele>
        <time>2009-05-19T09:18:30Z</time>
      </trkpt>
      <trkpt lat="44.79637" lon="-0.59603">
        <ele>30</ele>
        <time>2009-05-19T09:18:31Z</time>
      </trkpt>
      <trkpt lat="44.79637" lon="-0.59599">
        <ele>30</ele>
        <time>2009-05-19T09:18:32Z</time>
      </trkpt>
      <trkpt lat="44.79636" lon="-0.59594">
        <ele>30</ele>
        <time>2009-05-19T09:18:33Z</time>
      </trkpt>
      <trkpt lat="44.79634" lon="-0.59589">
        <ele>30</ele>
        <time>2009-05-19T09:18:34Z</time>
      </trkpt>
      <trkpt lat="44.79634" lon="-0.59586">
        <ele>30</ele>
        <time>2009-05-19T09:18:35Z</time>
      </trkpt>
      <trkpt lat="44.79635" lon="-0.59582">
        <ele>30</ele>
        <time>2009-05-19T09:18:36Z</time>
      </trkpt>
      <trkpt lat="44.79635" lon="-0.59579">
        <ele>30</ele>
        <time>2009-05-19T09:18:37Z</time>
      </trkpt>
      <trkpt lat="44.79635" lon="-0.59575">
        <ele>30</ele>
        <time>2009-05-19T09:18:38Z</time>
      </trkpt>
      <trkpt lat="44.79635" lon="-0.59572">
        <ele>30</ele>
        <time>2009-05-19T09:18:39Z</time>
      </trkpt>
      <trkpt lat="44.79636" lon="-0.59569">
        <ele>30</ele>
        <time>2009-05-19T09:18:40Z</time>
      </trkpt>
      <trkpt lat="44.79636" lon="-0.59566">
        <ele>30</ele>
        <time>2009-05-19T09:18:41Z</time>
      </trkpt>
      <trkpt lat="44.79637" lon="-0.59563">
        <ele>30</ele>
        <time>2009-05-19T09:18:42Z</time>
      </trkpt>
      <trkpt lat="44.79636" lon="-0.59559">
        <ele>29</ele>
        <time>2009-05-19T09:18:43Z</time>
      </trkpt>
      <trkpt lat="44.79636" lon="-0.59555">
        <ele>28</ele>
        <time>2009-05-19T09:18:44Z</time>
      </trkpt>
      <trkpt lat="44.79636" lon="-0.59552">
        <ele>28</ele>
        <time>2009-05-19T09:18:45Z</time>
      </trkpt>
      <trkpt lat="44.79636" lon="-0.59549">
        <ele>27</ele>
        <time>2009-05-19T09:18:46Z</time>
      </trkpt>
      <trkpt lat="44.79636" lon="-0.59545">
        <ele>26</ele>
        <time>2009-05-19T09:18:47Z</time>
      </trkpt>
      <trkpt lat="44.79635" lon="-0.59542">
        <ele>25</ele>
        <time>2009-05-19T09:18:48Z</time>
      </trkpt>
      <trkpt lat="44.79634" lon="-0.5954">
        <ele>25</ele>
        <time>2009-05-19T09:18:49Z</time>
      </trkpt>
      <trkpt lat="44.79632" lon="-0.5954">
        <ele>24</ele>
        <time>2009-05-19T09:18:50Z</time>
      </trkpt>
      <trkpt lat="44.79629" lon="-0.5954">
        <ele>24</ele>
        <time>2009-05-19T09:18:51Z</time>
      </trkpt>
      <trkpt lat="44.79627" lon="-0.59539">
        <ele>23</ele>
        <time>2009-05-19T09:18:52Z</time>
      </trkpt>
      <trkpt lat="44.79624" lon="-0.59538">
        <ele>23</ele>
        <time>2009-05-19T09:18:53Z</time>
      </trkpt>
      <trkpt lat="44.79622" lon="-0.59536">
        <ele>22</ele>
        <time>2009-05-19T09:18:54Z</time>
      </trkpt>
      <trkpt lat="44.7962" lon="-0.59534">
        <ele>22</ele>
        <time>2009-05-19T09:18:55Z</time>
      </trkpt>
      <trkpt lat="44.79617" lon="-0.59533">
        <ele>22</ele>
        <time>2009-05-19T09:18:56Z</time>
      </trkpt>
      <trkpt lat="44.79614" lon="-0.59533">
        <ele>22</ele>
        <time>2009-05-19T09:18:57Z</time>
      </trkpt>
      <trkpt lat="44.79612" lon="-0.59533">
        <ele>22</ele>
        <time>2009-05-19T09:18:58Z</time>
      </trkpt>
      <trkpt lat="44.79609" lon="-0.59533">
        <ele>22</ele>
        <time>2009-05-19T09:18:59Z</time>
      </trkpt>
      <trkpt lat="44.79606" lon="-0.59533">
        <ele>22</ele>
        <time>2009-05-19T09:19:00Z</time>
      </trkpt>
      <trkpt lat="44.79602" lon="-0.59532">
        <ele>22</ele>
        <time>2009-05-19T09:19:01Z</time>
      </trkpt>
      <trkpt lat="44.79599" lon="-0.59531">
        <ele>22</ele>
        <time>2009-05-19T09:19:02Z</time>
      </trkpt>
      <trkpt lat="44.79596" lon="-0.59531">
        <ele>22</ele>
        <time>2009-05-19T09:19:03Z</time>
      </trkpt>
      <trkpt lat="44.79594" lon="-0.59533">
        <ele>22</ele>
        <time>2009-05-19T09:19:04Z</time>
      </trkpt>
      <trkpt lat="44.79593" lon="-0.59533">
        <ele>22</ele>
        <time>2009-05-19T09:19:05Z</time>
      </trkpt>
      <trkpt lat="44.79591" lon="-0.59532">
        <ele>22</ele>
        <time>2009-05-19T09:19:06Z</time>
      </trkpt>
      <trkpt lat="44.79588" lon="-0.59532">
        <ele>22</ele>
        <time>2009-05-19T09:19:07Z</time>
      </trkpt>
      <trkpt lat="44.79586" lon="-0.59531">
        <ele>22</ele>
        <time>2009-05-19T09:19:08Z</time>
      </trkpt>
      <trkpt lat="44.79583" lon="-0.5953">
        <ele>22</ele>
        <time>2009-05-19T09:19:09Z</time>
      </trkpt>
      <trkpt lat="44.7958" lon="-0.59529">
        <ele>22</ele>
        <time>2009-05-19T09:19:10Z</time>
      </trkpt>
      <trkpt lat="44.79578" lon="-0.59527">
        <ele>22</ele>
        <time>2009-05-19T09:19:11Z</time>
      </trkpt>
      <trkpt lat="44.79575" lon="-0.59525">
        <ele>22</ele>
        <time>2009-05-19T09:19:12Z</time>
      </trkpt>
      <trkpt lat="44.79573" lon="-0.59524">
        <ele>22</ele>
        <time>2009-05-19T09:19:13Z</time>
      </trkpt>
      <trkpt lat="44.7957" lon="-0.59522">
        <ele>22</ele>
        <time>2009-05-19T09:19:14Z</time>
      </trkpt>
      <trkpt lat="44.79568" lon="-0.59521">
        <ele>22</ele>
        <time>2009-05-19T09:19:15Z</time>
      </trkpt>
      <trkpt lat="44.79566" lon="-0.5952">
        <ele>22</ele>
        <time>2009-05-19T09:19:16Z</time>
      </trkpt>
      <trkpt lat="44.79563" lon="-0.5952">
        <ele>22</ele>
        <time>2009-05-19T09:19:17Z</time>
      </trkpt>
      <trkpt lat="44.79561" lon="-0.59519">
        <ele>22</ele>
        <time>2009-05-19T09:19:18Z</time>
      </trkpt>
      <trkpt lat="44.79559" lon="-0.59519">
        <ele>22</ele>
        <time>2009-05-19T09:19:19Z</time>
      </trkpt>
      <trkpt lat="44.79556" lon="-0.59519">
        <ele>22</ele>
        <time>2009-05-19T09:19:20Z</time>
      </trkpt>
      <trkpt lat="44.79554" lon="-0.59519">
        <ele>22</ele>
        <time>2009-05-19T09:19:21Z</time>
      </trkpt>
      <trkpt lat="44.79552" lon="-0.59518">
        <ele>22</ele>
        <time>2009-05-19T09:19:22Z</time>
      </trkpt>
      <trkpt lat="44.79549" lon="-0.59518">
        <ele>22</ele>
        <time>2009-05-19T09:19:23Z</time>
      </trkpt>
      <trkpt lat="44.79547" lon="-0.59518">
        <ele>22</ele>
        <time>2009-05-19T09:19:24Z</time>
      </trkpt>
      <trkpt lat="44.79544" lon="-0.59518">
        <ele>22</ele>
        <time>2009-05-19T09:19:25Z</time>
      </trkpt>
      <trkpt lat="44.79541" lon="-0.59518">
        <ele>22</ele>
        <time>2009-05-19T09:19:26Z</time>
      </trkpt>
      <trkpt lat="44.79538" lon="-0.59518">
        <ele>22</ele>
        <time>2009-05-19T09:19:27Z</time>
      </trkpt>
      <trkpt lat="44.79535" lon="-0.59518">
        <ele>22</ele>
        <time>2009-05-19T09:19:28Z</time>
      </trkpt>
      <trkpt lat="44.79532" lon="-0.59517">
        <ele>22</ele>
        <time>2009-05-19T09:19:29Z</time>
      </trkpt>
      <trkpt lat="44.79529" lon="-0.59517">
        <ele>22</ele>
        <time>2009-05-19T09:19:30Z</time>
      </trkpt>
      <trkpt lat="44.79527" lon="-0.59517">
        <ele>22</ele>
        <time>2009-05-19T09:19:31Z</time>
      </trkpt>
      <trkpt lat="44.79525" lon="-0.59516">
        <ele>22</ele>
        <time>2009-05-19T09:19:32Z</time>
      </trkpt>
      <trkpt lat="44.79522" lon="-0.59516">
        <ele>22</ele>
        <time>2009-05-19T09:19:33Z</time>
      </trkpt>
      <trkpt lat="44.7952" lon="-0.59515">
        <ele>22</ele>
        <time>2009-05-19T09:19:34Z</time>
      </trkpt>
      <trkpt lat="44.79517" lon="-0.59514">
        <ele>22</ele>
        <time>2009-05-19T09:19:35Z</time>
      </trkpt>
      <trkpt lat="44.79515" lon="-0.59514">
        <ele>22</ele>
        <time>2009-05-19T09:19:36Z</time>
      </trkpt>
      <trkpt lat="44.79512" lon="-0.59513">
        <ele>22</ele>
        <time>2009-05-19T09:19:37Z</time>
      </trkpt>
      <trkpt lat="44.79509" lon="-0.59513">
        <ele>22</ele>
        <time>2009-05-19T09:19:38Z</time>
      </trkpt>
      <trkpt lat="44.79506" lon="-0.59512">
        <ele>22</ele>
        <time>2009-05-19T09:19:39Z</time>
      </trkpt>
      <trkpt lat="44.79504" lon="-0.59512">
        <ele>22</ele>
        <time>2009-05-19T09:19:40Z</time>
      </trkpt>
      <trkpt lat="44.79502" lon="-0.59512">
        <ele>22</ele>
        <time>2009-05-19T09:19:41Z</time>
      </trkpt>
      <trkpt lat="44.795" lon="-0.59513">
        <ele>22</ele>
        <time>2009-05-19T09:19:42Z</time>
      </trkpt>
      <trkpt lat="44.79498" lon="-0.59513">
        <ele>22</ele>
        <time>2009-05-19T09:19:43Z</time>
      </trkpt>
      <trkpt lat="44.79495" lon="-0.59512">
        <ele>22</ele>
        <time>2009-05-19T09:19:44Z</time>
      </trkpt>
      <trkpt lat="44.79492" lon="-0.59512">
        <ele>21</ele>
        <time>2009-05-19T09:19:45Z</time>
      </trkpt>
      <trkpt lat="44.79489" lon="-0.59512">
        <ele>20</ele>
        <time>2009-05-19T09:19:46Z</time>
      </trkpt>
      <trkpt lat="44.79486" lon="-0.59512">
        <ele>20</ele>
        <time>2009-05-19T09:19:47Z</time>
      </trkpt>
      <trkpt lat="44.79483" lon="-0.59511">
        <ele>19</ele>
        <time>2009-05-19T09:19:48Z</time>
      </trkpt>
      <trkpt lat="44.7948" lon="-0.59511">
        <ele>18</ele>
        <time>2009-05-19T09:19:49Z</time>
      </trkpt>
      <trkpt lat="44.79478" lon="-0.59512">
        <ele>18</ele>
        <time>2009-05-19T09:19:50Z</time>
      </trkpt>
      <trkpt lat="44.79475" lon="-0.59512">
        <ele>18</ele>
        <time>2009-05-19T09:19:51Z</time>
      </trkpt>
      <trkpt lat="44.79472" lon="-0.59513">
        <ele>18</ele>
        <time>2009-05-19T09:19:52Z</time>
      </trkpt>
      <trkpt lat="44.7947" lon="-0.59514">
        <ele>17</ele>
        <time>2009-05-19T09:19:53Z</time>
      </trkpt>
      <trkpt lat="44.79467" lon="-0.59516">
        <ele>17</ele>
        <time>2009-05-19T09:19:54Z</time>
      </trkpt>
      <trkpt lat="44.79464" lon="-0.59518">
        <ele>17</ele>
        <time>2009-05-19T09:19:55Z</time>
      </trkpt>
      <trkpt lat="44.79462" lon="-0.5952">
        <ele>17</ele>
        <time>2009-05-19T09:19:56Z</time>
      </trkpt>
      <trkpt lat="44.7946" lon="-0.59522">
        <ele>17</ele>
        <time>2009-05-19T09:19:57Z</time>
      </trkpt>
      <trkpt lat="44.79458" lon="-0.59524">
        <ele>17</ele>
        <time>2009-05-19T09:19:58Z</time>
      </trkpt>
      <trkpt lat="44.79456" lon="-0.59527">
        <ele>17</ele>
        <time>2009-05-19T09:19:59Z</time>
      </trkpt>
      <trkpt lat="44.79455" lon="-0.59531">
        <ele>17</ele>
        <time>2009-05-19T09:20:00Z</time>
      </trkpt>
      <trkpt lat="44.79454" lon="-0.59535">
        <ele>17</ele>
        <time>2009-05-19T09:20:01Z</time>
      </trkpt>
      <trkpt lat="44.79454" lon="-0.59539">
        <ele>17</ele>
        <time>2009-05-19T09:20:02Z</time>
      </trkpt>
      <trkpt lat="44.79454" lon="-0.59542">
        <ele>17</ele>
        <time>2009-05-19T09:20:03Z</time>
      </trkpt>
      <trkpt lat="44.79454" lon="-0.59546">
        <ele>17</ele>
        <time>2009-05-19T09:20:04Z</time>
      </trkpt>
      <trkpt lat="44.79454" lon="-0.5955">
        <ele>17</ele>
        <time>2009-05-19T09:20:05Z</time>
      </trkpt>
      <trkpt lat="44.79453" lon="-0.59554">
        <ele>17</ele>
        <time>2009-05-19T09:20:06Z</time>
      </trkpt>
      <trkpt lat="44.79453" lon="-0.59558">
        <ele>17</ele>
        <time>2009-05-19T09:20:07Z</time>
      </trkpt>
      <trkpt lat="44.79452" lon="-0.59562">
        <ele>17</ele>
        <time>2009-05-19T09:20:08Z</time>
      </trkpt>
      <trkpt lat="44.79452" lon="-0.59565">
        <ele>17</ele>
        <time>2009-05-19T09:20:09Z</time>
      </trkpt>
      <trkpt lat="44.79452" lon="-0.59569">
        <ele>17</ele>
        <time>2009-05-19T09:20:10Z</time>
      </trkpt>
      <trkpt lat="44.79452" lon="-0.59572">
        <ele>17</ele>
        <time>2009-05-19T09:20:11Z</time>
      </trkpt>
      <trkpt lat="44.79452" lon="-0.59576">
        <ele>17</ele>
        <time>2009-05-19T09:20:12Z</time>
      </trkpt>
      <trkpt lat="44.79451" lon="-0.5958">
        <ele>17</ele>
        <time>2009-05-19T09:20:13Z</time>
      </trkpt>
      <trkpt lat="44.79451" lon="-0.59584">
        <ele>17</ele>
        <time>2009-05-19T09:20:14Z</time>
      </trkpt>
      <trkpt lat="44.79451" lon="-0.5959">
        <ele>17</ele>
        <time>2009-05-19T09:20:15Z</time>
      </trkpt>
      <trkpt lat="44.7945" lon="-0.59596">
        <ele>17</ele>
        <time>2009-05-19T09:20:16Z</time>
      </trkpt>
      <trkpt lat="44.79449" lon="-0.59599">
        <ele>17</ele>
        <time>2009-05-19T09:20:17Z</time>
      </trkpt>
      <trkpt lat="44.79448" lon="-0.59604">
        <ele>17</ele>
        <time>2009-05-19T09:20:18Z</time>
      </trkpt>
      <trkpt lat="44.79446" lon="-0.59608">
        <ele>17</ele>
        <time>2009-05-19T09:20:19Z</time>
      </trkpt>
      <trkpt lat="44.79446" lon="-0.59612">
        <ele>17</ele>
        <time>2009-05-19T09:20:20Z</time>
      </trkpt>
      <trkpt lat="44.79445" lon="-0.59616">
        <ele>17</ele>
        <time>2009-05-19T09:20:21Z</time>
      </trkpt>
      <trkpt lat="44.79444" lon="-0.5962">
        <ele>17</ele>
        <time>2009-05-19T09:20:22Z</time>
      </trkpt>
      <trkpt lat="44.79444" lon="-0.59623">
        <ele>17</ele>
        <time>2009-05-19T09:20:23Z</time>
      </trkpt>
      <trkpt lat="44.79444" lon="-0.59627">
        <ele>17</ele>
        <time>2009-05-19T09:20:24Z</time>
      </trkpt>
      <trkpt lat="44.79444" lon="-0.59631">
        <ele>17</ele>
        <time>2009-05-19T09:20:25Z</time>
      </trkpt>
      <trkpt lat="44.79443" lon="-0.59635">
        <ele>17</ele>
        <time>2009-05-19T09:20:26Z</time>
      </trkpt>
      <trkpt lat="44.79444" lon="-0.59638">
        <ele>17</ele>
        <time>2009-05-19T09:20:27Z</time>
      </trkpt>
      <trkpt lat="44.79443" lon="-0.59642">
        <ele>17</ele>
        <time>2009-05-19T09:20:28Z</time>
      </trkpt>
      <trkpt lat="44.79443" lon="-0.59646">
        <ele>17</ele>
        <time>2009-05-19T09:20:29Z</time>
      </trkpt>
      <trkpt lat="44.79443" lon="-0.59649">
        <ele>17</ele>
        <time>2009-05-19T09:20:30Z</time>
      </trkpt>
      <trkpt lat="44.79443" lon="-0.59653">
        <ele>17</ele>
        <time>2009-05-19T09:20:31Z</time>
      </trkpt>
      <trkpt lat="44.79443" lon="-0.59657">
        <ele>17</ele>
        <time>2009-05-19T09:20:32Z</time>
      </trkpt>
      <trkpt lat="44.79443" lon="-0.5966">
        <ele>17</ele>
        <time>2009-05-19T09:20:33Z</time>
      </trkpt>
      <trkpt lat="44.79443" lon="-0.59664">
        <ele>17</ele>
        <time>2009-05-19T09:20:34Z</time>
      </trkpt>
      <trkpt lat="44.79442" lon="-0.59668">
        <ele>17</ele>
        <time>2009-05-19T09:20:35Z</time>
      </trkpt>
      <trkpt lat="44.79441" lon="-0.59671">
        <ele>17</ele>
        <time>2009-05-19T09:20:36Z</time>
      </trkpt>
      <trkpt lat="44.7944" lon="-0.59675">
        <ele>17</ele>
        <time>2009-05-19T09:20:37Z</time>
      </trkpt>
      <trkpt lat="44.79439" lon="-0.59678">
        <ele>17</ele>
        <time>2009-05-19T09:20:38Z</time>
      </trkpt>
      <trkpt lat="44.79438" lon="-0.59683">
        <ele>17</ele>
        <time>2009-05-19T09:20:39Z</time>
      </trkpt>
      <trkpt lat="44.79437" lon="-0.59687">
        <ele>17</ele>
        <time>2009-05-19T09:20:40Z</time>
      </trkpt>
      <trkpt lat="44.79436" lon="-0.59691">
        <ele>17</ele>
        <time>2009-05-19T09:20:41Z</time>
      </trkpt>
      <trkpt lat="44.79434" lon="-0.59695">
        <ele>17</ele>
        <time>2009-05-19T09:20:42Z</time>
      </trkpt>
      <trkpt lat="44.79433" lon="-0.59699">
        <ele>17</ele>
        <time>2009-05-19T09:20:43Z</time>
      </trkpt>
      <trkpt lat="44.79432" lon="-0.59702">
        <ele>17</ele>
        <time>2009-05-19T09:20:44Z</time>
      </trkpt>
      <trkpt lat="44.79431" lon="-0.59706">
        <ele>17</ele>
        <time>2009-05-19T09:20:45Z</time>
      </trkpt>
      <trkpt lat="44.7943" lon="-0.59709">
        <ele>17</ele>
        <time>2009-05-19T09:20:46Z</time>
      </trkpt>
      <trkpt lat="44.79428" lon="-0.59712">
        <ele>17</ele>
        <time>2009-05-19T09:20:47Z</time>
      </trkpt>
      <trkpt lat="44.79427" lon="-0.59716">
        <ele>17</ele>
        <time>2009-05-19T09:20:48Z</time>
      </trkpt>
      <trkpt lat="44.79426" lon="-0.59719">
        <ele>17</ele>
        <time>2009-05-19T09:20:49Z</time>
      </trkpt>
      <trkpt lat="44.79425" lon="-0.59722">
        <ele>17</ele>
        <time>2009-05-19T09:20:50Z</time>
      </trkpt>
      <trkpt lat="44.79423" lon="-0.59725">
        <ele>17</ele>
        <time>2009-05-19T09:20:51Z</time>
      </trkpt>
      <trkpt lat="44.79422" lon="-0.59728">
        <ele>17</ele>
        <time>2009-05-19T09:20:52Z</time>
      </trkpt>
      <trkpt lat="44.7942" lon="-0.59731">
        <ele>17</ele>
        <time>2009-05-19T09:20:53Z</time>
      </trkpt>
      <trkpt lat="44.79419" lon="-0.59734">
        <ele>17</ele>
        <time>2009-05-19T09:20:54Z</time>
      </trkpt>
      <trkpt lat="44.79417" lon="-0.59737">
        <ele>17</ele>
        <time>2009-05-19T09:20:55Z</time>
      </trkpt>
      <trkpt lat="44.79416" lon="-0.5974">
        <ele>17</ele>
        <time>2009-05-19T09:20:56Z</time>
      </trkpt>
      <trkpt lat="44.79414" lon="-0.59743">
        <ele>17</ele>
        <time>2009-05-19T09:20:57Z</time>
      </trkpt>
      <trkpt lat="44.79413" lon="-0.59745">
        <ele>17</ele>
        <time>2009-05-19T09:20:58Z</time>
      </trkpt>
      <trkpt lat="44.79411" lon="-0.59748">
        <ele>17</ele>
        <time>2009-05-19T09:20:59Z</time>
      </trkpt>
      <trkpt lat="44.7941" lon="-0.59751">
        <ele>17</ele>
        <time>2009-05-19T09:21:00Z</time>
      </trkpt>
      <trkpt lat="44.79409" lon="-0.59755">
        <ele>17</ele>
        <time>2009-05-19T09:21:01Z</time>
      </trkpt>
      <trkpt lat="44.79407" lon="-0.59758">
        <ele>17</ele>
        <time>2009-05-19T09:21:02Z</time>
      </trkpt>
      <trkpt lat="44.79406" lon="-0.59761">
        <ele>17</ele>
        <time>2009-05-19T09:21:03Z</time>
      </trkpt>
      <trkpt lat="44.79404" lon="-0.59764">
        <ele>17</ele>
        <time>2009-05-19T09:21:04Z</time>
      </trkpt>
      <trkpt lat="44.79402" lon="-0.59767">
        <ele>17</ele>
        <time>2009-05-19T09:21:05Z</time>
      </trkpt>
      <trkpt lat="44.79401" lon="-0.5977">
        <ele>17</ele>
        <time>2009-05-19T09:21:06Z</time>
      </trkpt>
      <trkpt lat="44.794" lon="-0.59773">
        <ele>17</ele>
        <time>2009-05-19T09:21:07Z</time>
      </trkpt>
      <trkpt lat="44.79398" lon="-0.59776">
        <ele>17</ele>
        <time>2009-05-19T09:21:08Z</time>
      </trkpt>
      <trkpt lat="44.79397" lon="-0.59779">
        <ele>17</ele>
        <time>2009-05-19T09:21:09Z</time>
      </trkpt>
      <trkpt lat="44.79395" lon="-0.59782">
        <ele>17</ele>
        <time>2009-05-19T09:21:10Z</time>
      </trkpt>
      <trkpt lat="44.79393" lon="-0.59785">
        <ele>17</ele>
        <time>2009-05-19T09:21:11Z</time>
      </trkpt>
      <trkpt lat="44.79391" lon="-0.59788">
        <ele>17</ele>
        <time>2009-05-19T09:21:12Z</time>
      </trkpt>
      <trkpt lat="44.7939" lon="-0.59791">
        <ele>17</ele>
        <time>2009-05-19T09:21:13Z</time>
      </trkpt>
      <trkpt lat="44.79388" lon="-0.59794">
        <ele>17</ele>
        <time>2009-05-19T09:21:14Z</time>
      </trkpt>
      <trkpt lat="44.79386" lon="-0.59797">
        <ele>17</ele>
        <time>2009-05-19T09:21:15Z</time>
      </trkpt>
      <trkpt lat="44.79385" lon="-0.598">
        <ele>17</ele>
        <time>2009-05-19T09:21:16Z</time>
      </trkpt>
      <trkpt lat="44.79383" lon="-0.59803">
        <ele>17</ele>
        <time>2009-05-19T09:21:17Z</time>
      </trkpt>
      <trkpt lat="44.79382" lon="-0.59807">
        <ele>17</ele>
        <time>2009-05-19T09:21:18Z</time>
      </trkpt>
      <trkpt lat="44.79381" lon="-0.5981">
        <ele>17</ele>
        <time>2009-05-19T09:21:19Z</time>
      </trkpt>
      <trkpt lat="44.7938" lon="-0.59813">
        <ele>17</ele>
        <time>2009-05-19T09:21:20Z</time>
      </trkpt>
      <trkpt lat="44.79379" lon="-0.59817">
        <ele>17</ele>
        <time>2009-05-19T09:21:21Z</time>
      </trkpt>
      <trkpt lat="44.79378" lon="-0.5982">
        <ele>17</ele>
        <time>2009-05-19T09:21:22Z</time>
      </trkpt>
      <trkpt lat="44.79376" lon="-0.59823">
        <ele>17</ele>
        <time>2009-05-19T09:21:23Z</time>
      </trkpt>
      <trkpt lat="44.79374" lon="-0.59825">
        <ele>17</ele>
        <time>2009-05-19T09:21:24Z</time>
      </trkpt>
      <trkpt lat="44.79371" lon="-0.59828">
        <ele>17</ele>
        <time>2009-05-19T09:21:25Z</time>
      </trkpt>
      <trkpt lat="44.79369" lon="-0.5983">
        <ele>17</ele>
        <time>2009-05-19T09:21:26Z</time>
      </trkpt>
      <trkpt lat="44.79366" lon="-0.59833">
        <ele>17</ele>
        <time>2009-05-19T09:21:27Z</time>
      </trkpt>
      <trkpt lat="44.79364" lon="-0.59836">
        <ele>17</ele>
        <time>2009-05-19T09:21:28Z</time>
      </trkpt>
      <trkpt lat="44.79362" lon="-0.59838">
        <ele>17</ele>
        <time>2009-05-19T09:21:29Z</time>
      </trkpt>
      <trkpt lat="44.7936" lon="-0.59841">
        <ele>17</ele>
        <time>2009-05-19T09:21:30Z</time>
      </trkpt>
      <trkpt lat="44.79359" lon="-0.59845">
        <ele>17</ele>
        <time>2009-05-19T09:21:31Z</time>
      </trkpt>
      <trkpt lat="44.79357" lon="-0.59848">
        <ele>17</ele>
        <time>2009-05-19T09:21:32Z</time>
      </trkpt>
      <trkpt lat="44.79356" lon="-0.59851">
        <ele>18</ele>
        <time>2009-05-19T09:21:33Z</time>
      </trkpt>
      <trkpt lat="44.79354" lon="-0.59854">
        <ele>18</ele>
        <time>2009-05-19T09:21:34Z</time>
      </trkpt>
      <trkpt lat="44.79353" lon="-0.59857">
        <ele>18</ele>
        <time>2009-05-19T09:21:35Z</time>
      </trkpt>
      <trkpt lat="44.79351" lon="-0.5986">
        <ele>18</ele>
        <time>2009-05-19T09:21:36Z</time>
      </trkpt>
      <trkpt lat="44.79349" lon="-0.59863">
        <ele>18</ele>
        <time>2009-05-19T09:21:37Z</time>
      </trkpt>
      <trkpt lat="44.79347" lon="-0.59865">
        <ele>18</ele>
        <time>2009-05-19T09:21:38Z</time>
      </trkpt>
      <trkpt lat="44.79346" lon="-0.59868">
        <ele>18</ele>
        <time>2009-05-19T09:21:39Z</time>
      </trkpt>
      <trkpt lat="44.79344" lon="-0.59871">
        <ele>19</ele>
        <time>2009-05-19T09:21:40Z</time>
      </trkpt>
      <trkpt lat="44.79343" lon="-0.59874">
        <ele>19</ele>
        <time>2009-05-19T09:21:41Z</time>
      </trkpt>
      <trkpt lat="44.79341" lon="-0.59877">
        <ele>19</ele>
        <time>2009-05-19T09:21:42Z</time>
      </trkpt>
      <trkpt lat="44.79339" lon="-0.59878">
        <ele>19</ele>
        <time>2009-05-19T09:21:43Z</time>
      </trkpt>
      <trkpt lat="44.79337" lon="-0.59879">
        <ele>19</ele>
        <time>2009-05-19T09:21:44Z</time>
      </trkpt>
      <trkpt lat="44.79335" lon="-0.59877">
        <ele>19</ele>
        <time>2009-05-19T09:21:45Z</time>
      </trkpt>
      <trkpt lat="44.79333" lon="-0.59875">
        <ele>19</ele>
        <time>2009-05-19T09:21:46Z</time>
      </trkpt>
      <trkpt lat="44.79331" lon="-0.59873">
        <ele>19</ele>
        <time>2009-05-19T09:21:47Z</time>
      </trkpt>
      <trkpt lat="44.79329" lon="-0.5987">
        <ele>19</ele>
        <time>2009-05-19T09:21:48Z</time>
      </trkpt>
      <trkpt lat="44.79326" lon="-0.59868">
        <ele>19</ele>
        <time>2009-05-19T09:21:49Z</time>
      </trkpt>
      <trkpt lat="44.79324" lon="-0.59867">
        <ele>19</ele>
        <time>2009-05-19T09:21:50Z</time>
      </trkpt>
      <trkpt lat="44.79322" lon="-0.59865">
        <ele>19</ele>
        <time>2009-05-19T09:21:51Z</time>
      </trkpt>
      <trkpt lat="44.79319" lon="-0.59864">
        <ele>19</ele>
        <time>2009-05-19T09:21:52Z</time>
      </trkpt>
      <trkpt lat="44.79316" lon="-0.59862">
        <ele>19</ele>
        <time>2009-05-19T09:21:53Z</time>
      </trkpt>
      <trkpt lat="44.79313" lon="-0.59861">
        <ele>19</ele>
        <time>2009-05-19T09:21:54Z</time>
      </trkpt>
      <trkpt lat="44.7931" lon="-0.5986">
        <ele>19</ele>
        <time>2009-05-19T09:21:55Z</time>
      </trkpt>
      <trkpt lat="44.79307" lon="-0.59859">
        <ele>19</ele>
        <time>2009-05-19T09:21:56Z</time>
      </trkpt>
      <trkpt lat="44.79304" lon="-0.59859">
        <ele>19</ele>
        <time>2009-05-19T09:21:57Z</time>
      </trkpt>
      <trkpt lat="44.79301" lon="-0.59858">
        <ele>19</ele>
        <time>2009-05-19T09:21:58Z</time>
      </trkpt>
      <trkpt lat="44.79299" lon="-0.59858">
        <ele>20</ele>
        <time>2009-05-19T09:21:59Z</time>
      </trkpt>
      <trkpt lat="44.79296" lon="-0.59857">
        <ele>20</ele>
        <time>2009-05-19T09:22:00Z</time>
      </trkpt>
      <trkpt lat="44.79293" lon="-0.59855">
        <ele>20</ele>
        <time>2009-05-19T09:22:01Z</time>
      </trkpt>
      <trkpt lat="44.7929" lon="-0.59852">
        <ele>21</ele>
        <time>2009-05-19T09:22:02Z</time>
      </trkpt>
      <trkpt lat="44.79287" lon="-0.59851">
        <ele>21</ele>
        <time>2009-05-19T09:22:03Z</time>
      </trkpt>
      <trkpt lat="44.79285" lon="-0.5985">
        <ele>21</ele>
        <time>2009-05-19T09:22:04Z</time>
      </trkpt>
      <trkpt lat="44.79282" lon="-0.59849">
        <ele>21</ele>
        <time>2009-05-19T09:22:05Z</time>
      </trkpt>
      <trkpt lat="44.79279" lon="-0.59849">
        <ele>22</ele>
        <time>2009-05-19T09:22:06Z</time>
      </trkpt>
      <trkpt lat="44.79277" lon="-0.59849">
        <ele>22</ele>
        <time>2009-05-19T09:22:07Z</time>
      </trkpt>
      <trkpt lat="44.79274" lon="-0.59849">
        <ele>22</ele>
        <time>2009-05-19T09:22:08Z</time>
      </trkpt>
      <trkpt lat="44.79272" lon="-0.59849">
        <ele>22</ele>
        <time>2009-05-19T09:22:09Z</time>
      </trkpt>
      <trkpt lat="44.79268" lon="-0.59848">
        <ele>23</ele>
        <time>2009-05-19T09:22:10Z</time>
      </trkpt>
      <trkpt lat="44.79265" lon="-0.59848">
        <ele>23</ele>
        <time>2009-05-19T09:22:11Z</time>
      </trkpt>
      <trkpt lat="44.79262" lon="-0.59847">
        <ele>23</ele>
        <time>2009-05-19T09:22:12Z</time>
      </trkpt>
      <trkpt lat="44.79259" lon="-0.59847">
        <ele>23</ele>
        <time>2009-05-19T09:22:13Z</time>
      </trkpt>
      <trkpt lat="44.79256" lon="-0.59847">
        <ele>24</ele>
        <time>2009-05-19T09:22:14Z</time>
      </trkpt>
      <trkpt lat="44.79253" lon="-0.59849">
        <ele>24</ele>
        <time>2009-05-19T09:22:15Z</time>
      </trkpt>
      <trkpt lat="44.79251" lon="-0.5985">
        <ele>24</ele>
        <time>2009-05-19T09:22:16Z</time>
      </trkpt>
      <trkpt lat="44.79248" lon="-0.59851">
        <ele>25</ele>
        <time>2009-05-19T09:22:17Z</time>
      </trkpt>
      <trkpt lat="44.79246" lon="-0.59853">
        <ele>25</ele>
        <time>2009-05-19T09:22:18Z</time>
      </trkpt>
      <trkpt lat="44.79243" lon="-0.59854">
        <ele>25</ele>
        <time>2009-05-19T09:22:19Z</time>
      </trkpt>
      <trkpt lat="44.7924" lon="-0.59855">
        <ele>25</ele>
        <time>2009-05-19T09:22:20Z</time>
      </trkpt>
      <trkpt lat="44.79237" lon="-0.59856">
        <ele>25</ele>
        <time>2009-05-19T09:22:21Z</time>
      </trkpt>
      <trkpt lat="44.79234" lon="-0.59857">
        <ele>25</ele>
        <time>2009-05-19T09:22:22Z</time>
      </trkpt>
      <trkpt lat="44.79232" lon="-0.59859">
        <ele>25</ele>
        <time>2009-05-19T09:22:23Z</time>
      </trkpt>
      <trkpt lat="44.79229" lon="-0.59861">
        <ele>25</ele>
        <time>2009-05-19T09:22:24Z</time>
      </trkpt>
      <trkpt lat="44.79228" lon="-0.59864">
        <ele>25</ele>
        <time>2009-05-19T09:22:25Z</time>
      </trkpt>
      <trkpt lat="44.79226" lon="-0.59866">
        <ele>25</ele>
        <time>2009-05-19T09:22:26Z</time>
      </trkpt>
      <trkpt lat="44.79224" lon="-0.59867">
        <ele>25</ele>
        <time>2009-05-19T09:22:27Z</time>
      </trkpt>
      <trkpt lat="44.79222" lon="-0.59869">
        <ele>25</ele>
        <time>2009-05-19T09:22:28Z</time>
      </trkpt>
      <trkpt lat="44.7922" lon="-0.59872">
        <ele>25</ele>
        <time>2009-05-19T09:22:29Z</time>
      </trkpt>
      <trkpt lat="44.79218" lon="-0.59875">
        <ele>25</ele>
        <time>2009-05-19T09:22:30Z</time>
      </trkpt>
      <trkpt lat="44.79217" lon="-0.59877">
        <ele>25</ele>
        <time>2009-05-19T09:22:31Z</time>
      </trkpt>
      <trkpt lat="44.79215" lon="-0.59879">
        <ele>25</ele>
        <time>2009-05-19T09:22:32Z</time>
      </trkpt>
      <trkpt lat="44.79214" lon="-0.59881">
        <ele>25</ele>
        <time>2009-05-19T09:22:33Z</time>
      </trkpt>
      <trkpt lat="44.79211" lon="-0.59883">
        <ele>25</ele>
        <time>2009-05-19T09:22:34Z</time>
      </trkpt>
      <trkpt lat="44.79209" lon="-0.59886">
        <ele>25</ele>
        <time>2009-05-19T09:22:35Z</time>
      </trkpt>
      <trkpt lat="44.79208" lon="-0.59888">
        <ele>25</ele>
        <time>2009-05-19T09:22:36Z</time>
      </trkpt>
      <trkpt lat="44.79207" lon="-0.59892">
        <ele>25</ele>
        <time>2009-05-19T09:22:37Z</time>
      </trkpt>
      <trkpt lat="44.79208" lon="-0.59895">
        <ele>25</ele>
        <time>2009-05-19T09:22:38Z</time>
      </trkpt>
      <trkpt lat="44.7921" lon="-0.59898">
        <ele>25</ele>
        <time>2009-05-19T09:22:39Z</time>
      </trkpt>
      <trkpt lat="44.79212" lon="-0.59901">
        <ele>25</ele>
        <time>2009-05-19T09:22:40Z</time>
      </trkpt>
      <trkpt lat="44.79214" lon="-0.59905">
        <ele>25</ele>
        <time>2009-05-19T09:22:41Z</time>
      </trkpt>
      <trkpt lat="44.79216" lon="-0.59908">
        <ele>25</ele>
        <time>2009-05-19T09:22:42Z</time>
      </trkpt>
      <trkpt lat="44.79219" lon="-0.5991">
        <ele>25</ele>
        <time>2009-05-19T09:22:43Z</time>
      </trkpt>
      <trkpt lat="44.79221" lon="-0.59912">
        <ele>25</ele>
        <time>2009-05-19T09:22:44Z</time>
      </trkpt>
      <trkpt lat="44.79224" lon="-0.59914">
        <ele>25</ele>
        <time>2009-05-19T09:22:45Z</time>
      </trkpt>
      <trkpt lat="44.79226" lon="-0.59915">
        <ele>25</ele>
        <time>2009-05-19T09:22:46Z</time>
      </trkpt>
      <trkpt lat="44.79229" lon="-0.59917">
        <ele>25</ele>
        <time>2009-05-19T09:22:47Z</time>
      </trkpt>
      <trkpt lat="44.79231" lon="-0.59919">
        <ele>25</ele>
        <time>2009-05-19T09:22:48Z</time>
      </trkpt>
      <trkpt lat="44.79233" lon="-0.59921">
        <ele>24</ele>
        <time>2009-05-19T09:22:49Z</time>
      </trkpt>
      <trkpt lat="44.79235" lon="-0.59923">
        <ele>24</ele>
        <time>2009-05-19T09:22:50Z</time>
      </trkpt>
      <trkpt lat="44.79238" lon="-0.59926">
        <ele>23</ele>
        <time>2009-05-19T09:22:51Z</time>
      </trkpt>
      <trkpt lat="44.7924" lon="-0.59929">
        <ele>23</ele>
        <time>2009-05-19T09:22:52Z</time>
      </trkpt>
      <trkpt lat="44.79242" lon="-0.59931">
        <ele>23</ele>
        <time>2009-05-19T09:22:53Z</time>
      </trkpt>
      <trkpt lat="44.79244" lon="-0.59934">
        <ele>23</ele>
        <time>2009-05-19T09:22:54Z</time>
      </trkpt>
      <trkpt lat="44.79246" lon="-0.59937">
        <ele>23</ele>
        <time>2009-05-19T09:22:55Z</time>
      </trkpt>
      <trkpt lat="44.79248" lon="-0.5994">
        <ele>23</ele>
        <time>2009-05-19T09:22:56Z</time>
      </trkpt>
      <trkpt lat="44.79248" lon="-0.59944">
        <ele>23</ele>
        <time>2009-05-19T09:22:57Z</time>
      </trkpt>
      <trkpt lat="44.79249" lon="-0.59947">
        <ele>23</ele>
        <time>2009-05-19T09:22:58Z</time>
      </trkpt>
      <trkpt lat="44.7925" lon="-0.5995">
        <ele>23</ele>
        <time>2009-05-19T09:22:59Z</time>
      </trkpt>
      <trkpt lat="44.79251" lon="-0.59954">
        <ele>23</ele>
        <time>2009-05-19T09:23:00Z</time>
      </trkpt>
      <trkpt lat="44.79251" lon="-0.59957">
        <ele>23</ele>
        <time>2009-05-19T09:23:01Z</time>
      </trkpt>
      <trkpt lat="44.79252" lon="-0.59962">
        <ele>23</ele>
        <time>2009-05-19T09:23:02Z</time>
      </trkpt>
      <trkpt lat="44.79253" lon="-0.59966">
        <ele>23</ele>
        <time>2009-05-19T09:23:03Z</time>
      </trkpt>
      <trkpt lat="44.79253" lon="-0.5997">
        <ele>23</ele>
        <time>2009-05-19T09:23:04Z</time>
      </trkpt>
      <trkpt lat="44.79252" lon="-0.59974">
        <ele>23</ele>
        <time>2009-05-19T09:23:05Z</time>
      </trkpt>
      <trkpt lat="44.79251" lon="-0.59978">
        <ele>23</ele>
        <time>2009-05-19T09:23:06Z</time>
      </trkpt>
      <trkpt lat="44.79251" lon="-0.59981">
        <ele>23</ele>
        <time>2009-05-19T09:23:07Z</time>
      </trkpt>
      <trkpt lat="44.7925" lon="-0.59985">
        <ele>23</ele>
        <time>2009-05-19T09:23:08Z</time>
      </trkpt>
      <trkpt lat="44.79249" lon="-0.59988">
        <ele>23</ele>
        <time>2009-05-19T09:23:09Z</time>
      </trkpt>
      <trkpt lat="44.79249" lon="-0.59992">
        <ele>23</ele>
        <time>2009-05-19T09:23:10Z</time>
      </trkpt>
      <trkpt lat="44.79248" lon="-0.59995">
        <ele>23</ele>
        <time>2009-05-19T09:23:11Z</time>
      </trkpt>
      <trkpt lat="44.79247" lon="-0.59998">
        <ele>23</ele>
        <time>2009-05-19T09:23:12Z</time>
      </trkpt>
      <trkpt lat="44.79246" lon="-0.60002">
        <ele>23</ele>
        <time>2009-05-19T09:23:13Z</time>
      </trkpt>
      <trkpt lat="44.79246" lon="-0.60005">
        <ele>23</ele>
        <time>2009-05-19T09:23:14Z</time>
      </trkpt>
      <trkpt lat="44.79244" lon="-0.60008">
        <ele>23</ele>
        <time>2009-05-19T09:23:15Z</time>
      </trkpt>
      <trkpt lat="44.79243" lon="-0.6001">
        <ele>23</ele>
        <time>2009-05-19T09:23:16Z</time>
      </trkpt>
      <trkpt lat="44.79242" lon="-0.60013">
        <ele>23</ele>
        <time>2009-05-19T09:23:17Z</time>
      </trkpt>
      <trkpt lat="44.7924" lon="-0.60015">
        <ele>23</ele>
        <time>2009-05-19T09:23:18Z</time>
      </trkpt>
      <trkpt lat="44.79239" lon="-0.60017">
        <ele>23</ele>
        <time>2009-05-19T09:23:19Z</time>
      </trkpt>
      <trkpt lat="44.79236" lon="-0.6002">
        <ele>23</ele>
        <time>2009-05-19T09:23:20Z</time>
      </trkpt>
      <trkpt lat="44.79234" lon="-0.60023">
        <ele>23</ele>
        <time>2009-05-19T09:23:21Z</time>
      </trkpt>
      <trkpt lat="44.79232" lon="-0.60026">
        <ele>23</ele>
        <time>2009-05-19T09:23:22Z</time>
      </trkpt>
      <trkpt lat="44.79231" lon="-0.60028">
        <ele>23</ele>
        <time>2009-05-19T09:23:23Z</time>
      </trkpt>
      <trkpt lat="44.79229" lon="-0.6003">
        <ele>23</ele>
        <time>2009-05-19T09:23:24Z</time>
      </trkpt>
      <trkpt lat="44.79228" lon="-0.60033">
        <ele>23</ele>
        <time>2009-05-19T09:23:25Z</time>
      </trkpt>
      <trkpt lat="44.79226" lon="-0.60036">
        <ele>23</ele>
        <time>2009-05-19T09:23:26Z</time>
      </trkpt>
      <trkpt lat="44.79224" lon="-0.60039">
        <ele>23</ele>
        <time>2009-05-19T09:23:27Z</time>
      </trkpt>
      <trkpt lat="44.79222" lon="-0.60042">
        <ele>23</ele>
        <time>2009-05-19T09:23:28Z</time>
      </trkpt>
      <trkpt lat="44.7922" lon="-0.60046">
        <ele>23</ele>
        <time>2009-05-19T09:23:29Z</time>
      </trkpt>
      <trkpt lat="44.79218" lon="-0.60049">
        <ele>23</ele>
        <time>2009-05-19T09:23:30Z</time>
      </trkpt>
      <trkpt lat="44.79217" lon="-0.60053">
        <ele>23</ele>
        <time>2009-05-19T09:23:31Z</time>
      </trkpt>
      <trkpt lat="44.79215" lon="-0.60057">
        <ele>23</ele>
        <time>2009-05-19T09:23:32Z</time>
      </trkpt>
      <trkpt lat="44.79214" lon="-0.60061">
        <ele>23</ele>
        <time>2009-05-19T09:23:33Z</time>
      </trkpt>
      <trkpt lat="44.79213" lon="-0.60065">
        <ele>23</ele>
        <time>2009-05-19T09:23:34Z</time>
      </trkpt>
      <trkpt lat="44.79212" lon="-0.60069">
        <ele>23</ele>
        <time>2009-05-19T09:23:35Z</time>
      </trkpt>
      <trkpt lat="44.79211" lon="-0.60073">
        <ele>23</ele>
        <time>2009-05-19T09:23:36Z</time>
      </trkpt>
      <trkpt lat="44.7921" lon="-0.60077">
        <ele>23</ele>
        <time>2009-05-19T09:23:37Z</time>
      </trkpt>
      <trkpt lat="44.79209" lon="-0.60081">
        <ele>23</ele>
        <time>2009-05-19T09:23:38Z</time>
      </trkpt>
      <trkpt lat="44.79208" lon="-0.60085">
        <ele>23</ele>
        <time>2009-05-19T09:23:39Z</time>
      </trkpt>
      <trkpt lat="44.79207" lon="-0.60088">
        <ele>23</ele>
        <time>2009-05-19T09:23:40Z</time>
      </trkpt>
      <trkpt lat="44.79206" lon="-0.60092">
        <ele>23</ele>
        <time>2009-05-19T09:23:41Z</time>
      </trkpt>
      <trkpt lat="44.79204" lon="-0.60094">
        <ele>23</ele>
        <time>2009-05-19T09:23:42Z</time>
      </trkpt>
      <trkpt lat="44.79202" lon="-0.60097">
        <ele>23</ele>
        <time>2009-05-19T09:23:43Z</time>
      </trkpt>
      <trkpt lat="44.792" lon="-0.601">
        <ele>23</ele>
        <time>2009-05-19T09:23:44Z</time>
      </trkpt>
      <trkpt lat="44.79198" lon="-0.60102">
        <ele>23</ele>
        <time>2009-05-19T09:23:45Z</time>
      </trkpt>
      <trkpt lat="44.79195" lon="-0.60103">
        <ele>23</ele>
        <time>2009-05-19T09:23:46Z</time>
      </trkpt>
      <trkpt lat="44.79193" lon="-0.60105">
        <ele>23</ele>
        <time>2009-05-19T09:23:47Z</time>
      </trkpt>
      <trkpt lat="44.7919" lon="-0.60105">
        <ele>23</ele>
        <time>2009-05-19T09:23:48Z</time>
      </trkpt>
      <trkpt lat="44.79187" lon="-0.60105">
        <ele>23</ele>
        <time>2009-05-19T09:23:49Z</time>
      </trkpt>
      <trkpt lat="44.79184" lon="-0.60105">
        <ele>23</ele>
        <time>2009-05-19T09:23:50Z</time>
      </trkpt>
      <trkpt lat="44.79181" lon="-0.60105">
        <ele>23</ele>
        <time>2009-05-19T09:23:51Z</time>
      </trkpt>
      <trkpt lat="44.79179" lon="-0.60105">
        <ele>23</ele>
        <time>2009-05-19T09:23:52Z</time>
      </trkpt>
      <trkpt lat="44.79176" lon="-0.60104">
        <ele>23</ele>
        <time>2009-05-19T09:23:53Z</time>
      </trkpt>
      <trkpt lat="44.79174" lon="-0.60103">
        <ele>23</ele>
        <time>2009-05-19T09:23:54Z</time>
      </trkpt>
      <trkpt lat="44.79171" lon="-0.60102">
        <ele>23</ele>
        <time>2009-05-19T09:23:55Z</time>
      </trkpt>
      <trkpt lat="44.79169" lon="-0.601">
        <ele>23</ele>
        <time>2009-05-19T09:23:56Z</time>
      </trkpt>
      <trkpt lat="44.79167" lon="-0.60097">
        <ele>23</ele>
        <time>2009-05-19T09:23:57Z</time>
      </trkpt>
      <trkpt lat="44.79165" lon="-0.60095">
        <ele>23</ele>
        <time>2009-05-19T09:23:58Z</time>
      </trkpt>
      <trkpt lat="44.79163" lon="-0.60093">
        <ele>23</ele>
        <time>2009-05-19T09:23:59Z</time>
      </trkpt>
      <trkpt lat="44.79162" lon="-0.60091">
        <ele>23</ele>
        <time>2009-05-19T09:24:00Z</time>
      </trkpt>
      <trkpt lat="44.7916" lon="-0.60088">
        <ele>23</ele>
        <time>2009-05-19T09:24:01Z</time>
      </trkpt>
      <trkpt lat="44.79159" lon="-0.60085">
        <ele>23</ele>
        <time>2009-05-19T09:24:02Z</time>
      </trkpt>
      <trkpt lat="44.79156" lon="-0.60081">
        <ele>23</ele>
        <time>2009-05-19T09:24:03Z</time>
      </trkpt>
      <trkpt lat="44.79155" lon="-0.60078">
        <ele>23</ele>
        <time>2009-05-19T09:24:04Z</time>
      </trkpt>
      <trkpt lat="44.79155" lon="-0.60075">
        <ele>23</ele>
        <time>2009-05-19T09:24:05Z</time>
      </trkpt>
      <trkpt lat="44.79154" lon="-0.60071">
        <ele>23</ele>
        <time>2009-05-19T09:24:06Z</time>
      </trkpt>
      <trkpt lat="44.79153" lon="-0.60068">
        <ele>23</ele>
        <time>2009-05-19T09:24:07Z</time>
      </trkpt>
      <trkpt lat="44.79152" lon="-0.60064">
        <ele>23</ele>
        <time>2009-05-19T09:24:08Z</time>
      </trkpt>
      <trkpt lat="44.79151" lon="-0.6006">
        <ele>23</ele>
        <time>2009-05-19T09:24:09Z</time>
      </trkpt>
      <trkpt lat="44.79151" lon="-0.60056">
        <ele>23</ele>
        <time>2009-05-19T09:24:10Z</time>
      </trkpt>
      <trkpt lat="44.7915" lon="-0.60052">
        <ele>23</ele>
        <time>2009-05-19T09:24:11Z</time>
      </trkpt>
      <trkpt lat="44.7915" lon="-0.60049">
        <ele>23</ele>
        <time>2009-05-19T09:24:12Z</time>
      </trkpt>
      <trkpt lat="44.79149" lon="-0.60045">
        <ele>23</ele>
        <time>2009-05-19T09:24:13Z</time>
      </trkpt>
      <trkpt lat="44.79148" lon="-0.60041">
        <ele>23</ele>
        <time>2009-05-19T09:24:14Z</time>
      </trkpt>
      <trkpt lat="44.79147" lon="-0.60038">
        <ele>23</ele>
        <time>2009-05-19T09:24:15Z</time>
      </trkpt>
      <trkpt lat="44.79147" lon="-0.60034">
        <ele>23</ele>
        <time>2009-05-19T09:24:16Z</time>
      </trkpt>
      <trkpt lat="44.79146" lon="-0.6003">
        <ele>23</ele>
        <time>2009-05-19T09:24:17Z</time>
      </trkpt>
      <trkpt lat="44.79146" lon="-0.60026">
        <ele>23</ele>
        <time>2009-05-19T09:24:18Z</time>
      </trkpt>
      <trkpt lat="44.79144" lon="-0.60023">
        <ele>23</ele>
        <time>2009-05-19T09:24:19Z</time>
      </trkpt>
      <trkpt lat="44.79143" lon="-0.6002">
        <ele>23</ele>
        <time>2009-05-19T09:24:20Z</time>
      </trkpt>
      <trkpt lat="44.79141" lon="-0.60017">
        <ele>23</ele>
        <time>2009-05-19T09:24:21Z</time>
      </trkpt>
      <trkpt lat="44.79139" lon="-0.60014">
        <ele>23</ele>
        <time>2009-05-19T09:24:22Z</time>
      </trkpt>
      <trkpt lat="44.79137" lon="-0.60011">
        <ele>23</ele>
        <time>2009-05-19T09:24:23Z</time>
      </trkpt>
      <trkpt lat="44.79136" lon="-0.60008">
        <ele>23</ele>
        <time>2009-05-19T09:24:24Z</time>
      </trkpt>
      <trkpt lat="44.79135" lon="-0.60004">
        <ele>23</ele>
        <time>2009-05-19T09:24:25Z</time>
      </trkpt>
      <trkpt lat="44.79134" lon="-0.60001">
        <ele>23</ele>
        <time>2009-05-19T09:24:26Z</time>
      </trkpt>
      <trkpt lat="44.79133" lon="-0.59997">
        <ele>23</ele>
        <time>2009-05-19T09:24:27Z</time>
      </trkpt>
      <trkpt lat="44.79132" lon="-0.59994">
        <ele>23</ele>
        <time>2009-05-19T09:24:28Z</time>
      </trkpt>
      <trkpt lat="44.79131" lon="-0.5999">
        <ele>23</ele>
        <time>2009-05-19T09:24:29Z</time>
      </trkpt>
      <trkpt lat="44.79131" lon="-0.59986">
        <ele>23</ele>
        <time>2009-05-19T09:24:30Z</time>
      </trkpt>
      <trkpt lat="44.79131" lon="-0.59983">
        <ele>23</ele>
        <time>2009-05-19T09:24:31Z</time>
      </trkpt>
      <trkpt lat="44.79131" lon="-0.59979">
        <ele>22</ele>
        <time>2009-05-19T09:24:32Z</time>
      </trkpt>
      <trkpt lat="44.79131" lon="-0.59974">
        <ele>22</ele>
        <time>2009-05-19T09:24:33Z</time>
      </trkpt>
      <trkpt lat="44.79131" lon="-0.59969">
        <ele>21</ele>
        <time>2009-05-19T09:24:34Z</time>
      </trkpt>
      <trkpt lat="44.79131" lon="-0.59965">
        <ele>21</ele>
        <time>2009-05-19T09:24:35Z</time>
      </trkpt>
      <trkpt lat="44.79131" lon="-0.59961">
        <ele>21</ele>
        <time>2009-05-19T09:24:36Z</time>
      </trkpt>
      <trkpt lat="44.79132" lon="-0.59958">
        <ele>21</ele>
        <time>2009-05-19T09:24:37Z</time>
      </trkpt>
      <trkpt lat="44.79134" lon="-0.59955">
        <ele>21</ele>
        <time>2009-05-19T09:24:38Z</time>
      </trkpt>
      <trkpt lat="44.79136" lon="-0.59952">
        <ele>21</ele>
        <time>2009-05-19T09:24:39Z</time>
      </trkpt>
      <trkpt lat="44.79137" lon="-0.5995">
        <ele>21</ele>
        <time>2009-05-19T09:24:40Z</time>
      </trkpt>
      <trkpt lat="44.7914" lon="-0.59947">
        <ele>21</ele>
        <time>2009-05-19T09:24:41Z</time>
      </trkpt>
      <trkpt lat="44.79142" lon="-0.59946">
        <ele>21</ele>
        <time>2009-05-19T09:24:42Z</time>
      </trkpt>
      <trkpt lat="44.79145" lon="-0.59944">
        <ele>21</ele>
        <time>2009-05-19T09:24:43Z</time>
      </trkpt>
      <trkpt lat="44.79148" lon="-0.59942">
        <ele>21</ele>
        <time>2009-05-19T09:24:44Z</time>
      </trkpt>
      <trkpt lat="44.7915" lon="-0.5994">
        <ele>21</ele>
        <time>2009-05-19T09:24:45Z</time>
      </trkpt>
      <trkpt lat="44.79152" lon="-0.59938">
        <ele>21</ele>
        <time>2009-05-19T09:24:46Z</time>
      </trkpt>
      <trkpt lat="44.79155" lon="-0.59936">
        <ele>21</ele>
        <time>2009-05-19T09:24:47Z</time>
      </trkpt>
      <trkpt lat="44.79157" lon="-0.59933">
        <ele>21</ele>
        <time>2009-05-19T09:24:48Z</time>
      </trkpt>
      <trkpt lat="44.7916" lon="-0.59931">
        <ele>21</ele>
        <time>2009-05-19T09:24:49Z</time>
      </trkpt>
      <trkpt lat="44.79162" lon="-0.59929">
        <ele>21</ele>
        <time>2009-05-19T09:24:50Z</time>
      </trkpt>
      <trkpt lat="44.79164" lon="-0.59927">
        <ele>21</ele>
        <time>2009-05-19T09:24:51Z</time>
      </trkpt>
      <trkpt lat="44.79166" lon="-0.59925">
        <ele>22</ele>
        <time>2009-05-19T09:24:52Z</time>
      </trkpt>
      <trkpt lat="44.79168" lon="-0.59923">
        <ele>22</ele>
        <time>2009-05-19T09:24:53Z</time>
      </trkpt>
      <trkpt lat="44.7917" lon="-0.5992">
        <ele>23</ele>
        <time>2009-05-19T09:24:54Z</time>
      </trkpt>
      <trkpt lat="44.79173" lon="-0.59918">
        <ele>23</ele>
        <time>2009-05-19T09:24:55Z</time>
      </trkpt>
      <trkpt lat="44.79175" lon="-0.59916">
        <ele>23</ele>
        <time>2009-05-19T09:24:56Z</time>
      </trkpt>
      <trkpt lat="44.79177" lon="-0.59914">
        <ele>23</ele>
        <time>2009-05-19T09:24:57Z</time>
      </trkpt>
      <trkpt lat="44.79179" lon="-0.59913">
        <ele>23</ele>
        <time>2009-05-19T09:24:58Z</time>
      </trkpt>
      <trkpt lat="44.79181" lon="-0.59912">
        <ele>23</ele>
        <time>2009-05-19T09:24:59Z</time>
      </trkpt>
      <trkpt lat="44.79183" lon="-0.5991">
        <ele>23</ele>
        <time>2009-05-19T09:25:00Z</time>
      </trkpt>
      <trkpt lat="44.79185" lon="-0.59907">
        <ele>23</ele>
        <time>2009-05-19T09:25:01Z</time>
      </trkpt>
      <trkpt lat="44.79187" lon="-0.59904">
        <ele>23</ele>
        <time>2009-05-19T09:25:02Z</time>
      </trkpt>
      <trkpt lat="44.79188" lon="-0.59901">
        <ele>23</ele>
        <time>2009-05-19T09:25:03Z</time>
      </trkpt>
      <trkpt lat="44.79188" lon="-0.59897">
        <ele>23</ele>
        <time>2009-05-19T09:25:04Z</time>
      </trkpt>
      <trkpt lat="44.79188" lon="-0.59893">
        <ele>23</ele>
        <time>2009-05-19T09:25:05Z</time>
      </trkpt>
      <trkpt lat="44.79187" lon="-0.59889">
        <ele>23</ele>
        <time>2009-05-19T09:25:06Z</time>
      </trkpt>
      <trkpt lat="44.79186" lon="-0.59886">
        <ele>23</ele>
        <time>2009-05-19T09:25:07Z</time>
      </trkpt>
      <trkpt lat="44.79184" lon="-0.59883">
        <ele>23</ele>
        <time>2009-05-19T09:25:08Z</time>
      </trkpt>
      <trkpt lat="44.79182" lon="-0.5988">
        <ele>23</ele>
        <time>2009-05-19T09:25:09Z</time>
      </trkpt>
      <trkpt lat="44.79179" lon="-0.59878">
        <ele>23</ele>
        <time>2009-05-19T09:25:10Z</time>
      </trkpt>
      <trkpt lat="44.79177" lon="-0.59877">
        <ele>23</ele>
        <time>2009-05-19T09:25:11Z</time>
      </trkpt>
      <trkpt lat="44.79174" lon="-0.59877">
        <ele>23</ele>
        <time>2009-05-19T09:25:12Z</time>
      </trkpt>
      <trkpt lat="44.7917" lon="-0.59876">
        <ele>23</ele>
        <time>2009-05-19T09:25:13Z</time>
      </trkpt>
      <trkpt lat="44.79167" lon="-0.59875">
        <ele>23</ele>
        <time>2009-05-19T09:25:14Z</time>
      </trkpt>
      <trkpt lat="44.79165" lon="-0.59875">
        <ele>23</ele>
        <time>2009-05-19T09:25:15Z</time>
      </trkpt>
      <trkpt lat="44.79162" lon="-0.59875">
        <ele>23</ele>
        <time>2009-05-19T09:25:16Z</time>
      </trkpt>
      <trkpt lat="44.79159" lon="-0.59875">
        <ele>23</ele>
        <time>2009-05-19T09:25:17Z</time>
      </trkpt>
      <trkpt lat="44.79157" lon="-0.59876">
        <ele>23</ele>
        <time>2009-05-19T09:25:18Z</time>
      </trkpt>
      <trkpt lat="44.79154" lon="-0.59877">
        <ele>23</ele>
        <time>2009-05-19T09:25:19Z</time>
      </trkpt>
      <trkpt lat="44.79152" lon="-0.59879">
        <ele>23</ele>
        <time>2009-05-19T09:25:20Z</time>
      </trkpt>
      <trkpt lat="44.79149" lon="-0.59881">
        <ele>23</ele>
        <time>2009-05-19T09:25:21Z</time>
      </trkpt>
      <trkpt lat="44.79147" lon="-0.59884">
        <ele>23</ele>
        <time>2009-05-19T09:25:22Z</time>
      </trkpt>
      <trkpt lat="44.79145" lon="-0.59886">
        <ele>23</ele>
        <time>2009-05-19T09:25:23Z</time>
      </trkpt>
      <trkpt lat="44.79142" lon="-0.59888">
        <ele>23</ele>
        <time>2009-05-19T09:25:24Z</time>
      </trkpt>
      <trkpt lat="44.79139" lon="-0.5989">
        <ele>23</ele>
        <time>2009-05-19T09:25:25Z</time>
      </trkpt>
      <trkpt lat="44.79137" lon="-0.59892">
        <ele>23</ele>
        <time>2009-05-19T09:25:26Z</time>
      </trkpt>
      <trkpt lat="44.79135" lon="-0.59895">
        <ele>23</ele>
        <time>2009-05-19T09:25:27Z</time>
      </trkpt>
      <trkpt lat="44.79133" lon="-0.59898">
        <ele>23</ele>
        <time>2009-05-19T09:25:28Z</time>
      </trkpt>
      <trkpt lat="44.79132" lon="-0.59901">
        <ele>23</ele>
        <time>2009-05-19T09:25:29Z</time>
      </trkpt>
      <trkpt lat="44.79131" lon="-0.59905">
        <ele>23</ele>
        <time>2009-05-19T09:25:30Z</time>
      </trkpt>
      <trkpt lat="44.7913" lon="-0.59908">
        <ele>23</ele>
        <time>2009-05-19T09:25:31Z</time>
      </trkpt>
      <trkpt lat="44.79129" lon="-0.59911">
        <ele>23</ele>
        <time>2009-05-19T09:25:32Z</time>
      </trkpt>
      <trkpt lat="44.79128" lon="-0.59914">
        <ele>23</ele>
        <time>2009-05-19T09:25:33Z</time>
      </trkpt>
      <trkpt lat="44.79126" lon="-0.59916">
        <ele>23</ele>
        <time>2009-05-19T09:25:34Z</time>
      </trkpt>
      <trkpt lat="44.79125" lon="-0.5992">
        <ele>23</ele>
        <time>2009-05-19T09:25:35Z</time>
      </trkpt>
      <trkpt lat="44.79123" lon="-0.59922">
        <ele>23</ele>
        <time>2009-05-19T09:25:36Z</time>
      </trkpt>
      <trkpt lat="44.79122" lon="-0.59924">
        <ele>23</ele>
        <time>2009-05-19T09:25:37Z</time>
      </trkpt>
      <trkpt lat="44.79121" lon="-0.59927">
        <ele>23</ele>
        <time>2009-05-19T09:25:38Z</time>
      </trkpt>
      <trkpt lat="44.7912" lon="-0.59931">
        <ele>23</ele>
        <time>2009-05-19T09:25:39Z</time>
      </trkpt>
      <trkpt lat="44.7912" lon="-0.59934">
        <ele>23</ele>
        <time>2009-05-19T09:25:40Z</time>
      </trkpt>
      <trkpt lat="44.7912" lon="-0.59938">
        <ele>23</ele>
        <time>2009-05-19T09:25:41Z</time>
      </trkpt>
      <trkpt lat="44.7912" lon="-0.59942">
        <ele>23</ele>
        <time>2009-05-19T09:25:42Z</time>
      </trkpt>
      <trkpt lat="44.79118" lon="-0.59946">
        <ele>23</ele>
        <time>2009-05-19T09:25:43Z</time>
      </trkpt>
      <trkpt lat="44.79118" lon="-0.5995">
        <ele>23</ele>
        <time>2009-05-19T09:25:44Z</time>
      </trkpt>
      <trkpt lat="44.79117" lon="-0.59954">
        <ele>23</ele>
        <time>2009-05-19T09:25:45Z</time>
      </trkpt>
      <trkpt lat="44.79116" lon="-0.59958">
        <ele>23</ele>
        <time>2009-05-19T09:25:46Z</time>
      </trkpt>
      <trkpt lat="44.79114" lon="-0.59962">
        <ele>23</ele>
        <time>2009-05-19T09:25:47Z</time>
      </trkpt>
      <trkpt lat="44.79112" lon="-0.59965">
        <ele>23</ele>
        <time>2009-05-19T09:25:48Z</time>
      </trkpt>
      <trkpt lat="44.7911" lon="-0.59968">
        <ele>23</ele>
        <time>2009-05-19T09:25:49Z</time>
      </trkpt>
      <trkpt lat="44.79108" lon="-0.59971">
        <ele>23</ele>
        <time>2009-05-19T09:25:50Z</time>
      </trkpt>
      <trkpt lat="44.79105" lon="-0.59973">
        <ele>23</ele>
        <time>2009-05-19T09:25:51Z</time>
      </trkpt>
      <trkpt lat="44.79103" lon="-0.59975">
        <ele>23</ele>
        <time>2009-05-19T09:25:52Z</time>
      </trkpt>
      <trkpt lat="44.79101" lon="-0.59977">
        <ele>23</ele>
        <time>2009-05-19T09:25:53Z</time>
      </trkpt>
      <trkpt lat="44.79099" lon="-0.59979">
        <ele>23</ele>
        <time>2009-05-19T09:25:54Z</time>
      </trkpt>
      <trkpt lat="44.79097" lon="-0.59982">
        <ele>24</ele>
        <time>2009-05-19T09:25:55Z</time>
      </trkpt>
      <trkpt lat="44.79095" lon="-0.59984">
        <ele>24</ele>
        <time>2009-05-19T09:25:56Z</time>
      </trkpt>
      <trkpt lat="44.79093" lon="-0.59987">
        <ele>24</ele>
        <time>2009-05-19T09:25:57Z</time>
      </trkpt>
      <trkpt lat="44.7909" lon="-0.59989">
        <ele>24</ele>
        <time>2009-05-19T09:25:58Z</time>
      </trkpt>
      <trkpt lat="44.79088" lon="-0.59991">
        <ele>24</ele>
        <time>2009-05-19T09:25:59Z</time>
      </trkpt>
      <trkpt lat="44.79086" lon="-0.59993">
        <ele>24</ele>
        <time>2009-05-19T09:26:00Z</time>
      </trkpt>
      <trkpt lat="44.79085" lon="-0.59994">
        <ele>24</ele>
        <time>2009-05-19T09:26:01Z</time>
      </trkpt>
      <trkpt lat="44.79084" lon="-0.59996">
        <ele>24</ele>
        <time>2009-05-19T09:26:02Z</time>
      </trkpt>
      <trkpt lat="44.79082" lon="-0.59998">
        <ele>24</ele>
        <time>2009-05-19T09:26:03Z</time>
      </trkpt>
      <trkpt lat="44.7908" lon="-0.6">
        <ele>24</ele>
        <time>2009-05-19T09:26:04Z</time>
      </trkpt>
      <trkpt lat="44.79078" lon="-0.60002">
        <ele>24</ele>
        <time>2009-05-19T09:26:05Z</time>
      </trkpt>
      <trkpt lat="44.79075" lon="-0.60005">
        <ele>25</ele>
        <time>2009-05-19T09:26:06Z</time>
      </trkpt>
      <trkpt lat="44.79073" lon="-0.60008">
        <ele>25</ele>
        <time>2009-05-19T09:26:07Z</time>
      </trkpt>
      <trkpt lat="44.79071" lon="-0.6001">
        <ele>25</ele>
        <time>2009-05-19T09:26:08Z</time>
      </trkpt>
      <trkpt lat="44.79068" lon="-0.60012">
        <ele>25</ele>
        <time>2009-05-19T09:26:09Z</time>
      </trkpt>
      <trkpt lat="44.79066" lon="-0.60015">
        <ele>25</ele>
        <time>2009-05-19T09:26:10Z</time>
      </trkpt>
      <trkpt lat="44.79064" lon="-0.60016">
        <ele>25</ele>
        <time>2009-05-19T09:26:11Z</time>
      </trkpt>
      <trkpt lat="44.79062" lon="-0.60018">
        <ele>25</ele>
        <time>2009-05-19T09:26:12Z</time>
      </trkpt>
      <trkpt lat="44.79061" lon="-0.6002">
        <ele>25</ele>
        <time>2009-05-19T09:26:13Z</time>
      </trkpt>
      <trkpt lat="44.79058" lon="-0.60022">
        <ele>25</ele>
        <time>2009-05-19T09:26:14Z</time>
      </trkpt>
      <trkpt lat="44.79056" lon="-0.60024">
        <ele>25</ele>
        <time>2009-05-19T09:26:15Z</time>
      </trkpt>
      <trkpt lat="44.79053" lon="-0.60027">
        <ele>25</ele>
        <time>2009-05-19T09:26:16Z</time>
      </trkpt>
      <trkpt lat="44.7905" lon="-0.60029">
        <ele>25</ele>
        <time>2009-05-19T09:26:17Z</time>
      </trkpt>
      <trkpt lat="44.79048" lon="-0.60032">
        <ele>25</ele>
        <time>2009-05-19T09:26:18Z</time>
      </trkpt>
      <trkpt lat="44.79046" lon="-0.60035">
        <ele>25</ele>
        <time>2009-05-19T09:26:19Z</time>
      </trkpt>
      <trkpt lat="44.79043" lon="-0.60037">
        <ele>25</ele>
        <time>2009-05-19T09:26:20Z</time>
      </trkpt>
      <trkpt lat="44.79041" lon="-0.6004">
        <ele>25</ele>
        <time>2009-05-19T09:26:21Z</time>
      </trkpt>
      <trkpt lat="44.79038" lon="-0.60043">
        <ele>25</ele>
        <time>2009-05-19T09:26:22Z</time>
      </trkpt>
      <trkpt lat="44.79036" lon="-0.60046">
        <ele>25</ele>
        <time>2009-05-19T09:26:23Z</time>
      </trkpt>
      <trkpt lat="44.79034" lon="-0.60049">
        <ele>25</ele>
        <time>2009-05-19T09:26:24Z</time>
      </trkpt>
      <trkpt lat="44.79033" lon="-0.60052">
        <ele>25</ele>
        <time>2009-05-19T09:26:25Z</time>
      </trkpt>
      <trkpt lat="44.79031" lon="-0.60056">
        <ele>25</ele>
        <time>2009-05-19T09:26:26Z</time>
      </trkpt>
      <trkpt lat="44.7903" lon="-0.6006">
        <ele>25</ele>
        <time>2009-05-19T09:26:27Z</time>
      </trkpt>
      <trkpt lat="44.7903" lon="-0.60063">
        <ele>25</ele>
        <time>2009-05-19T09:26:28Z</time>
      </trkpt>
      <trkpt lat="44.7903" lon="-0.60066">
        <ele>25</ele>
        <time>2009-05-19T09:26:29Z</time>
      </trkpt>
      <trkpt lat="44.79031" lon="-0.6007">
        <ele>25</ele>
        <time>2009-05-19T09:26:30Z</time>
      </trkpt>
      <trkpt lat="44.79032" lon="-0.60073">
        <ele>25</ele>
        <time>2009-05-19T09:26:31Z</time>
      </trkpt>
      <trkpt lat="44.79033" lon="-0.60076">
        <ele>26</ele>
        <time>2009-05-19T09:26:32Z</time>
      </trkpt>
      <trkpt lat="44.79035" lon="-0.60079">
        <ele>27</ele>
        <time>2009-05-19T09:26:33Z</time>
      </trkpt>
      <trkpt lat="44.79037" lon="-0.60082">
        <ele>28</ele>
        <time>2009-05-19T09:26:34Z</time>
      </trkpt>
      <trkpt lat="44.7904" lon="-0.60085">
        <ele>28</ele>
        <time>2009-05-19T09:26:35Z</time>
      </trkpt>
      <trkpt lat="44.79042" lon="-0.60087">
        <ele>29</ele>
        <time>2009-05-19T09:26:36Z</time>
      </trkpt>
      <trkpt lat="44.79045" lon="-0.60089">
        <ele>29</ele>
        <time>2009-05-19T09:26:37Z</time>
      </trkpt>
      <trkpt lat="44.79047" lon="-0.60089">
        <ele>30</ele>
        <time>2009-05-19T09:26:38Z</time>
      </trkpt>
      <trkpt lat="44.7905" lon="-0.6009">
        <ele>30</ele>
        <time>2009-05-19T09:26:39Z</time>
      </trkpt>
      <trkpt lat="44.79053" lon="-0.60091">
        <ele>30</ele>
        <time>2009-05-19T09:26:40Z</time>
      </trkpt>
      <trkpt lat="44.79056" lon="-0.60092">
        <ele>30</ele>
        <time>2009-05-19T09:26:41Z</time>
      </trkpt>
      <trkpt lat="44.7906" lon="-0.60093">
        <ele>31</ele>
        <time>2009-05-19T09:26:42Z</time>
      </trkpt>
      <trkpt lat="44.79062" lon="-0.60094">
        <ele>31</ele>
        <time>2009-05-19T09:26:43Z</time>
      </trkpt>
      <trkpt lat="44.79066" lon="-0.60095">
        <ele>32</ele>
        <time>2009-05-19T09:26:44Z</time>
      </trkpt>
      <trkpt lat="44.79069" lon="-0.60096">
        <ele>32</ele>
        <time>2009-05-19T09:26:45Z</time>
      </trkpt>
      <trkpt lat="44.79073" lon="-0.60097">
        <ele>32</ele>
        <time>2009-05-19T09:26:46Z</time>
      </trkpt>
      <trkpt lat="44.79077" lon="-0.60097">
        <ele>32</ele>
        <time>2009-05-19T09:26:47Z</time>
      </trkpt>
      <trkpt lat="44.7908" lon="-0.60099">
        <ele>32</ele>
        <time>2009-05-19T09:26:48Z</time>
      </trkpt>
      <trkpt lat="44.79082" lon="-0.601">
        <ele>32</ele>
        <time>2009-05-19T09:26:49Z</time>
      </trkpt>
      <trkpt lat="44.79085" lon="-0.601">
        <ele>32</ele>
        <time>2009-05-19T09:26:50Z</time>
      </trkpt>
      <trkpt lat="44.79087" lon="-0.60101">
        <ele>32</ele>
        <time>2009-05-19T09:26:51Z</time>
      </trkpt>
      <trkpt lat="44.79089" lon="-0.60102">
        <ele>32</ele>
        <time>2009-05-19T09:26:52Z</time>
      </trkpt>
      <trkpt lat="44.79091" lon="-0.60104">
        <ele>32</ele>
        <time>2009-05-19T09:26:53Z</time>
      </trkpt>
      <trkpt lat="44.79093" lon="-0.60105">
        <ele>32</ele>
        <time>2009-05-19T09:26:54Z</time>
      </trkpt>
      <trkpt lat="44.79095" lon="-0.60107">
        <ele>32</ele>
        <time>2009-05-19T09:26:55Z</time>
      </trkpt>
      <trkpt lat="44.79097" lon="-0.60108">
        <ele>32</ele>
        <time>2009-05-19T09:26:56Z</time>
      </trkpt>
      <trkpt lat="44.791" lon="-0.60111">
        <ele>32</ele>
        <time>2009-05-19T09:26:57Z</time>
      </trkpt>
      <trkpt lat="44.79102" lon="-0.60113">
        <ele>32</ele>
        <time>2009-05-19T09:26:58Z</time>
      </trkpt>
      <trkpt lat="44.79103" lon="-0.60115">
        <ele>32</ele>
        <time>2009-05-19T09:26:59Z</time>
      </trkpt>
      <trkpt lat="44.79104" lon="-0.60119">
        <ele>32</ele>
        <time>2009-05-19T09:27:00Z</time>
      </trkpt>
      <trkpt lat="44.79106" lon="-0.60122">
        <ele>32</ele>
        <time>2009-05-19T09:27:01Z</time>
      </trkpt>
      <trkpt lat="44.79107" lon="-0.60125">
        <ele>32</ele>
        <time>2009-05-19T09:27:02Z</time>
      </trkpt>
      <trkpt lat="44.79109" lon="-0.60129">
        <ele>32</ele>
        <time>2009-05-19T09:27:03Z</time>
      </trkpt>
      <trkpt lat="44.79108" lon="-0.60132">
        <ele>31</ele>
        <time>2009-05-19T09:27:04Z</time>
      </trkpt>
      <trkpt lat="44.79108" lon="-0.60136">
        <ele>30</ele>
        <time>2009-05-19T09:27:05Z</time>
      </trkpt>
      <trkpt lat="44.79106" lon="-0.60139">
        <ele>30</ele>
        <time>2009-05-19T09:27:06Z</time>
      </trkpt>
      <trkpt lat="44.79105" lon="-0.60142">
        <ele>29</ele>
        <time>2009-05-19T09:27:07Z</time>
      </trkpt>
      <trkpt lat="44.79102" lon="-0.60144">
        <ele>29</ele>
        <time>2009-05-19T09:27:08Z</time>
      </trkpt>
      <trkpt lat="44.791" lon="-0.60146">
        <ele>28</ele>
        <time>2009-05-19T09:27:09Z</time>
      </trkpt>
      <trkpt lat="44.79097" lon="-0.60147">
        <ele>28</ele>
        <time>2009-05-19T09:27:10Z</time>
      </trkpt>
      <trkpt lat="44.79094" lon="-0.60148">
        <ele>28</ele>
        <time>2009-05-19T09:27:11Z</time>
      </trkpt>
      <trkpt lat="44.79091" lon="-0.60149">
        <ele>28</ele>
        <time>2009-05-19T09:27:12Z</time>
      </trkpt>
      <trkpt lat="44.79089" lon="-0.6015">
        <ele>28</ele>
        <time>2009-05-19T09:27:13Z</time>
      </trkpt>
      <trkpt lat="44.79087" lon="-0.60152">
        <ele>28</ele>
        <time>2009-05-19T09:27:14Z</time>
      </trkpt>
      <trkpt lat="44.79085" lon="-0.60154">
        <ele>28</ele>
        <time>2009-05-19T09:27:15Z</time>
      </trkpt>
      <trkpt lat="44.79083" lon="-0.60156">
        <ele>28</ele>
        <time>2009-05-19T09:27:16Z</time>
      </trkpt>
      <trkpt lat="44.7908" lon="-0.60158">
        <ele>28</ele>
        <time>2009-05-19T09:27:17Z</time>
      </trkpt>
      <trkpt lat="44.79078" lon="-0.60159">
        <ele>28</ele>
        <time>2009-05-19T09:27:18Z</time>
      </trkpt>
      <trkpt lat="44.79075" lon="-0.6016">
        <ele>28</ele>
        <time>2009-05-19T09:27:19Z</time>
      </trkpt>
      <trkpt lat="44.79072" lon="-0.60161">
        <ele>28</ele>
        <time>2009-05-19T09:27:20Z</time>
      </trkpt>
      <trkpt lat="44.7907" lon="-0.60161">
        <ele>27</ele>
        <time>2009-05-19T09:27:21Z</time>
      </trkpt>
      <trkpt lat="44.79067" lon="-0.60161">
        <ele>27</ele>
        <time>2009-05-19T09:27:22Z</time>
      </trkpt>
      <trkpt lat="44.79063" lon="-0.60161">
        <ele>27</ele>
        <time>2009-05-19T09:27:23Z</time>
      </trkpt>
      <trkpt lat="44.7906" lon="-0.6016">
        <ele>27</ele>
        <time>2009-05-19T09:27:24Z</time>
      </trkpt>
      <trkpt lat="44.79056" lon="-0.6016">
        <ele>27</ele>
        <time>2009-05-19T09:27:25Z</time>
      </trkpt>
      <trkpt lat="44.79052" lon="-0.60161">
        <ele>27</ele>
        <time>2009-05-19T09:27:26Z</time>
      </trkpt>
      <trkpt lat="44.79049" lon="-0.6016">
        <ele>27</ele>
        <time>2009-05-19T09:27:27Z</time>
      </trkpt>
      <trkpt lat="44.79046" lon="-0.60159">
        <ele>27</ele>
        <time>2009-05-19T09:27:28Z</time>
      </trkpt>
      <trkpt lat="44.79044" lon="-0.60157">
        <ele>26</ele>
        <time>2009-05-19T09:27:29Z</time>
      </trkpt>
      <trkpt lat="44.79042" lon="-0.60156">
        <ele>26</ele>
        <time>2009-05-19T09:27:30Z</time>
      </trkpt>
      <trkpt lat="44.79039" lon="-0.60154">
        <ele>26</ele>
        <time>2009-05-19T09:27:31Z</time>
      </trkpt>
      <trkpt lat="44.79037" lon="-0.60152">
        <ele>25</ele>
        <time>2009-05-19T09:27:32Z</time>
      </trkpt>
      <trkpt lat="44.79035" lon="-0.6015">
        <ele>25</ele>
        <time>2009-05-19T09:27:33Z</time>
      </trkpt>
      <trkpt lat="44.79032" lon="-0.60147">
        <ele>25</ele>
        <time>2009-05-19T09:27:34Z</time>
      </trkpt>
      <trkpt lat="44.7903" lon="-0.60145">
        <ele>25</ele>
        <time>2009-05-19T09:27:35Z</time>
      </trkpt>
      <trkpt lat="44.79027" lon="-0.60143">
        <ele>25</ele>
        <time>2009-05-19T09:27:36Z</time>
      </trkpt>
      <trkpt lat="44.79025" lon="-0.60141">
        <ele>25</ele>
        <time>2009-05-19T09:27:37Z</time>
      </trkpt>
      <trkpt lat="44.79022" lon="-0.60139">
        <ele>25</ele>
        <time>2009-05-19T09:27:38Z</time>
      </trkpt>
      <trkpt lat="44.7902" lon="-0.60137">
        <ele>25</ele>
        <time>2009-05-19T09:27:39Z</time>
      </trkpt>
      <trkpt lat="44.79018" lon="-0.60135">
        <ele>25</ele>
        <time>2009-05-19T09:27:40Z</time>
      </trkpt>
      <trkpt lat="44.79016" lon="-0.60133">
        <ele>25</ele>
        <time>2009-05-19T09:27:41Z</time>
      </trkpt>
      <trkpt lat="44.79014" lon="-0.60131">
        <ele>25</ele>
        <time>2009-05-19T09:27:42Z</time>
      </trkpt>
      <trkpt lat="44.79011" lon="-0.60129">
        <ele>25</ele>
        <time>2009-05-19T09:27:43Z</time>
      </trkpt>
      <trkpt lat="44.79008" lon="-0.60127">
        <ele>25</ele>
        <time>2009-05-19T09:27:44Z</time>
      </trkpt>
      <trkpt lat="44.79006" lon="-0.60125">
        <ele>25</ele>
        <time>2009-05-19T09:27:45Z</time>
      </trkpt>
      <trkpt lat="44.79004" lon="-0.60122">
        <ele>25</ele>
        <time>2009-05-19T09:27:46Z</time>
      </trkpt>
      <trkpt lat="44.79002" lon="-0.6012">
        <ele>25</ele>
        <time>2009-05-19T09:27:47Z</time>
      </trkpt>
      <trkpt lat="44.79" lon="-0.60117">
        <ele>25</ele>
        <time>2009-05-19T09:27:48Z</time>
      </trkpt>
      <trkpt lat="44.78998" lon="-0.60115">
        <ele>25</ele>
        <time>2009-05-19T09:27:49Z</time>
      </trkpt>
      <trkpt lat="44.78997" lon="-0.60112">
        <ele>25</ele>
        <time>2009-05-19T09:27:50Z</time>
      </trkpt>
      <trkpt lat="44.78996" lon="-0.6011">
        <ele>25</ele>
        <time>2009-05-19T09:27:51Z</time>
      </trkpt>
      <trkpt lat="44.78996" lon="-0.60107">
        <ele>25</ele>
        <time>2009-05-19T09:27:52Z</time>
      </trkpt>
      <trkpt lat="44.78995" lon="-0.60103">
        <ele>25</ele>
        <time>2009-05-19T09:27:53Z</time>
      </trkpt>
      <trkpt lat="44.78994" lon="-0.60099">
        <ele>25</ele>
        <time>2009-05-19T09:27:54Z</time>
      </trkpt>
      <trkpt lat="44.78993" lon="-0.60095">
        <ele>25</ele>
        <time>2009-05-19T09:27:55Z</time>
      </trkpt>
      <trkpt lat="44.78993" lon="-0.60092">
        <ele>25</ele>
        <time>2009-05-19T09:27:56Z</time>
      </trkpt>
      <trkpt lat="44.78992" lon="-0.60088">
        <ele>25</ele>
        <time>2009-05-19T09:27:57Z</time>
      </trkpt>
      <trkpt lat="44.78992" lon="-0.60083">
        <ele>24</ele>
        <time>2009-05-19T09:27:58Z</time>
      </trkpt>
      <trkpt lat="44.78992" lon="-0.60079">
        <ele>24</ele>
        <time>2009-05-19T09:27:59Z</time>
      </trkpt>
      <trkpt lat="44.78991" lon="-0.60075">
        <ele>24</ele>
        <time>2009-05-19T09:28:00Z</time>
      </trkpt>
      <trkpt lat="44.7899" lon="-0.60069">
        <ele>23</ele>
        <time>2009-05-19T09:28:01Z</time>
      </trkpt>
      <trkpt lat="44.7899" lon="-0.60064">
        <ele>23</ele>
        <time>2009-05-19T09:28:02Z</time>
      </trkpt>
      <trkpt lat="44.7899" lon="-0.60059">
        <ele>23</ele>
        <time>2009-05-19T09:28:03Z</time>
      </trkpt>
      <trkpt lat="44.78989" lon="-0.60053">
        <ele>23</ele>
        <time>2009-05-19T09:28:04Z</time>
      </trkpt>
      <trkpt lat="44.78988" lon="-0.60049">
        <ele>23</ele>
        <time>2009-05-19T09:28:05Z</time>
      </trkpt>
      <trkpt lat="44.78988" lon="-0.60046">
        <ele>23</ele>
        <time>2009-05-19T09:28:06Z</time>
      </trkpt>
      <trkpt lat="44.78988" lon="-0.60042">
        <ele>23</ele>
        <time>2009-05-19T09:28:07Z</time>
      </trkpt>
      <trkpt lat="44.78988" lon="-0.60038">
        <ele>23</ele>
        <time>2009-05-19T09:28:08Z</time>
      </trkpt>
      <trkpt lat="44.78987" lon="-0.60035">
        <ele>23</ele>
        <time>2009-05-19T09:28:09Z</time>
      </trkpt>
      <trkpt lat="44.78987" lon="-0.60032">
        <ele>23</ele>
        <time>2009-05-19T09:28:10Z</time>
      </trkpt>
      <trkpt lat="44.78987" lon="-0.60028">
        <ele>22</ele>
        <time>2009-05-19T09:28:11Z</time>
      </trkpt>
      <trkpt lat="44.78988" lon="-0.60025">
        <ele>22</ele>
        <time>2009-05-19T09:28:12Z</time>
      </trkpt>
      <trkpt lat="44.78988" lon="-0.6002">
        <ele>22</ele>
        <time>2009-05-19T09:28:13Z</time>
      </trkpt>
      <trkpt lat="44.78988" lon="-0.60016">
        <ele>22</ele>
        <time>2009-05-19T09:28:14Z</time>
      </trkpt>
      <trkpt lat="44.78987" lon="-0.60012">
        <ele>22</ele>
        <time>2009-05-19T09:28:15Z</time>
      </trkpt>
      <trkpt lat="44.78987" lon="-0.60008">
        <ele>22</ele>
        <time>2009-05-19T09:28:16Z</time>
      </trkpt>
      <trkpt lat="44.78986" lon="-0.60004">
        <ele>22</ele>
        <time>2009-05-19T09:28:17Z</time>
      </trkpt>
      <trkpt lat="44.78986" lon="-0.6">
        <ele>22</ele>
        <time>2009-05-19T09:28:18Z</time>
      </trkpt>
      <trkpt lat="44.78986" lon="-0.59996">
        <ele>22</ele>
        <time>2009-05-19T09:28:19Z</time>
      </trkpt>
      <trkpt lat="44.78986" lon="-0.59992">
        <ele>22</ele>
        <time>2009-05-19T09:28:20Z</time>
      </trkpt>
      <trkpt lat="44.78986" lon="-0.59989">
        <ele>22</ele>
        <time>2009-05-19T09:28:21Z</time>
      </trkpt>
      <trkpt lat="44.78986" lon="-0.59985">
        <ele>22</ele>
        <time>2009-05-19T09:28:22Z</time>
      </trkpt>
      <trkpt lat="44.78985" lon="-0.59981">
        <ele>22</ele>
        <time>2009-05-19T09:28:23Z</time>
      </trkpt>
      <trkpt lat="44.78984" lon="-0.59976">
        <ele>22</ele>
        <time>2009-05-19T09:28:24Z</time>
      </trkpt>
      <trkpt lat="44.78983" lon="-0.59973">
        <ele>22</ele>
        <time>2009-05-19T09:28:25Z</time>
      </trkpt>
      <trkpt lat="44.78982" lon="-0.59969">
        <ele>22</ele>
        <time>2009-05-19T09:28:26Z</time>
      </trkpt>
      <trkpt lat="44.78982" lon="-0.59965">
        <ele>22</ele>
        <time>2009-05-19T09:28:27Z</time>
      </trkpt>
      <trkpt lat="44.78983" lon="-0.59961">
        <ele>22</ele>
        <time>2009-05-19T09:28:28Z</time>
      </trkpt>
      <trkpt lat="44.78984" lon="-0.59957">
        <ele>22</ele>
        <time>2009-05-19T09:28:29Z</time>
      </trkpt>
      <trkpt lat="44.78983" lon="-0.59953">
        <ele>22</ele>
        <time>2009-05-19T09:28:30Z</time>
      </trkpt>
      <trkpt lat="44.78983" lon="-0.59949">
        <ele>22</ele>
        <time>2009-05-19T09:28:31Z</time>
      </trkpt>
      <trkpt lat="44.78983" lon="-0.59946">
        <ele>22</ele>
        <time>2009-05-19T09:28:32Z</time>
      </trkpt>
      <trkpt lat="44.78982" lon="-0.59943">
        <ele>22</ele>
        <time>2009-05-19T09:28:33Z</time>
      </trkpt>
      <trkpt lat="44.78981" lon="-0.59941">
        <ele>22</ele>
        <time>2009-05-19T09:28:34Z</time>
      </trkpt>
      <trkpt lat="44.7898" lon="-0.59938">
        <ele>21</ele>
        <time>2009-05-19T09:28:35Z</time>
      </trkpt>
      <trkpt lat="44.78979" lon="-0.59934">
        <ele>20</ele>
        <time>2009-05-19T09:28:36Z</time>
      </trkpt>
      <trkpt lat="44.78978" lon="-0.59931">
        <ele>19</ele>
        <time>2009-05-19T09:28:37Z</time>
      </trkpt>
      <trkpt lat="44.78976" lon="-0.59928">
        <ele>19</ele>
        <time>2009-05-19T09:28:38Z</time>
      </trkpt>
      <trkpt lat="44.78974" lon="-0.59925">
        <ele>18</ele>
        <time>2009-05-19T09:28:39Z</time>
      </trkpt>
      <trkpt lat="44.78971" lon="-0.59922">
        <ele>17</ele>
        <time>2009-05-19T09:28:40Z</time>
      </trkpt>
      <trkpt lat="44.78969" lon="-0.5992">
        <ele>17</ele>
        <time>2009-05-19T09:28:41Z</time>
      </trkpt>
      <trkpt lat="44.78966" lon="-0.59919">
        <ele>17</ele>
        <time>2009-05-19T09:28:42Z</time>
      </trkpt>
      <trkpt lat="44.78963" lon="-0.59918">
        <ele>17</ele>
        <time>2009-05-19T09:28:43Z</time>
      </trkpt>
      <trkpt lat="44.7896" lon="-0.59918">
        <ele>17</ele>
        <time>2009-05-19T09:28:44Z</time>
      </trkpt>
      <trkpt lat="44.78957" lon="-0.59918">
        <ele>17</ele>
        <time>2009-05-19T09:28:45Z</time>
      </trkpt>
      <trkpt lat="44.78954" lon="-0.59917">
        <ele>17</ele>
        <time>2009-05-19T09:28:46Z</time>
      </trkpt>
      <trkpt lat="44.78952" lon="-0.59917">
        <ele>17</ele>
        <time>2009-05-19T09:28:47Z</time>
      </trkpt>
      <trkpt lat="44.78948" lon="-0.59918">
        <ele>17</ele>
        <time>2009-05-19T09:28:48Z</time>
      </trkpt>
      <trkpt lat="44.78945" lon="-0.59919">
        <ele>17</ele>
        <time>2009-05-19T09:28:49Z</time>
      </trkpt>
      <trkpt lat="44.78942" lon="-0.59921">
        <ele>17</ele>
        <time>2009-05-19T09:28:50Z</time>
      </trkpt>
      <trkpt lat="44.78939" lon="-0.59923">
        <ele>17</ele>
        <time>2009-05-19T09:28:51Z</time>
      </trkpt>
      <trkpt lat="44.78937" lon="-0.59925">
        <ele>17</ele>
        <time>2009-05-19T09:28:52Z</time>
      </trkpt>
      <trkpt lat="44.78935" lon="-0.59927">
        <ele>17</ele>
        <time>2009-05-19T09:28:53Z</time>
      </trkpt>
      <trkpt lat="44.78932" lon="-0.59929">
        <ele>17</ele>
        <time>2009-05-19T09:28:54Z</time>
      </trkpt>
      <trkpt lat="44.78929" lon="-0.59931">
        <ele>17</ele>
        <time>2009-05-19T09:28:55Z</time>
      </trkpt>
      <trkpt lat="44.78926" lon="-0.59933">
        <ele>18</ele>
        <time>2009-05-19T09:28:56Z</time>
      </trkpt>
      <trkpt lat="44.78923" lon="-0.59934">
        <ele>19</ele>
        <time>2009-05-19T09:28:57Z</time>
      </trkpt>
      <trkpt lat="44.78921" lon="-0.59936">
        <ele>20</ele>
        <time>2009-05-19T09:28:58Z</time>
      </trkpt>
      <trkpt lat="44.78918" lon="-0.59937">
        <ele>21</ele>
        <time>2009-05-19T09:28:59Z</time>
      </trkpt>
      <trkpt lat="44.78916" lon="-0.59939">
        <ele>22</ele>
        <time>2009-05-19T09:29:00Z</time>
      </trkpt>
      <trkpt lat="44.78913" lon="-0.59941">
        <ele>22</ele>
        <time>2009-05-19T09:29:01Z</time>
      </trkpt>
      <trkpt lat="44.78911" lon="-0.59942">
        <ele>22</ele>
        <time>2009-05-19T09:29:02Z</time>
      </trkpt>
      <trkpt lat="44.78908" lon="-0.59943">
        <ele>22</ele>
        <time>2009-05-19T09:29:03Z</time>
      </trkpt>
      <trkpt lat="44.78906" lon="-0.59943">
        <ele>22</ele>
        <time>2009-05-19T09:29:04Z</time>
      </trkpt>
      <trkpt lat="44.78903" lon="-0.59944">
        <ele>22</ele>
        <time>2009-05-19T09:29:05Z</time>
      </trkpt>
      <trkpt lat="44.789" lon="-0.59944">
        <ele>22</ele>
        <time>2009-05-19T09:29:06Z</time>
      </trkpt>
      <trkpt lat="44.78898" lon="-0.59943">
        <ele>22</ele>
        <time>2009-05-19T09:29:07Z</time>
      </trkpt>
      <trkpt lat="44.78895" lon="-0.59941">
        <ele>22</ele>
        <time>2009-05-19T09:29:08Z</time>
      </trkpt>
      <trkpt lat="44.78893" lon="-0.59941">
        <ele>22</ele>
        <time>2009-05-19T09:29:09Z</time>
      </trkpt>
      <trkpt lat="44.7889" lon="-0.59939">
        <ele>22</ele>
        <time>2009-05-19T09:29:10Z</time>
      </trkpt>
      <trkpt lat="44.78887" lon="-0.59936">
        <ele>22</ele>
        <time>2009-05-19T09:29:11Z</time>
      </trkpt>
      <trkpt lat="44.78885" lon="-0.59933">
        <ele>22</ele>
        <time>2009-05-19T09:29:12Z</time>
      </trkpt>
      <trkpt lat="44.78883" lon="-0.5993">
        <ele>22</ele>
        <time>2009-05-19T09:29:13Z</time>
      </trkpt>
      <trkpt lat="44.78881" lon="-0.59928">
        <ele>22</ele>
        <time>2009-05-19T09:29:14Z</time>
      </trkpt>
      <trkpt lat="44.7888" lon="-0.59925">
        <ele>22</ele>
        <time>2009-05-19T09:29:15Z</time>
      </trkpt>
      <trkpt lat="44.78877" lon="-0.59922">
        <ele>22</ele>
        <time>2009-05-19T09:29:16Z</time>
      </trkpt>
      <trkpt lat="44.78876" lon="-0.59919">
        <ele>22</ele>
        <time>2009-05-19T09:29:17Z</time>
      </trkpt>
      <trkpt lat="44.78874" lon="-0.59916">
        <ele>22</ele>
        <time>2009-05-19T09:29:18Z</time>
      </trkpt>
      <trkpt lat="44.78873" lon="-0.59913">
        <ele>22</ele>
        <time>2009-05-19T09:29:19Z</time>
      </trkpt>
      <trkpt lat="44.78871" lon="-0.59909">
        <ele>22</ele>
        <time>2009-05-19T09:29:20Z</time>
      </trkpt>
      <trkpt lat="44.78869" lon="-0.59906">
        <ele>22</ele>
        <time>2009-05-19T09:29:21Z</time>
      </trkpt>
      <trkpt lat="44.78868" lon="-0.59902">
        <ele>22</ele>
        <time>2009-05-19T09:29:22Z</time>
      </trkpt>
      <trkpt lat="44.78866" lon="-0.59899">
        <ele>22</ele>
        <time>2009-05-19T09:29:23Z</time>
      </trkpt>
      <trkpt lat="44.78864" lon="-0.59896">
        <ele>22</ele>
        <time>2009-05-19T09:29:24Z</time>
      </trkpt>
      <trkpt lat="44.78862" lon="-0.59893">
        <ele>22</ele>
        <time>2009-05-19T09:29:25Z</time>
      </trkpt>
      <trkpt lat="44.78859" lon="-0.5989">
        <ele>22</ele>
        <time>2009-05-19T09:29:26Z</time>
      </trkpt>
      <trkpt lat="44.78856" lon="-0.59887">
        <ele>22</ele>
        <time>2009-05-19T09:29:27Z</time>
      </trkpt>
      <trkpt lat="44.78853" lon="-0.59885">
        <ele>22</ele>
        <time>2009-05-19T09:29:28Z</time>
      </trkpt>
      <trkpt lat="44.7885" lon="-0.59883">
        <ele>22</ele>
        <time>2009-05-19T09:29:29Z</time>
      </trkpt>
      <trkpt lat="44.78848" lon="-0.59882">
        <ele>22</ele>
        <time>2009-05-19T09:29:30Z</time>
      </trkpt>
      <trkpt lat="44.78845" lon="-0.5988">
        <ele>22</ele>
        <time>2009-05-19T09:29:31Z</time>
      </trkpt>
      <trkpt lat="44.78843" lon="-0.59879">
        <ele>22</ele>
        <time>2009-05-19T09:29:32Z</time>
      </trkpt>
      <trkpt lat="44.78841" lon="-0.59877">
        <ele>22</ele>
        <time>2009-05-19T09:29:33Z</time>
      </trkpt>
      <trkpt lat="44.78839" lon="-0.59875">
        <ele>22</ele>
        <time>2009-05-19T09:29:34Z</time>
      </trkpt>
      <trkpt lat="44.78838" lon="-0.59873">
        <ele>22</ele>
        <time>2009-05-19T09:29:35Z</time>
      </trkpt>
      <trkpt lat="44.78836" lon="-0.59871">
        <ele>22</ele>
        <time>2009-05-19T09:29:36Z</time>
      </trkpt>
      <trkpt lat="44.78834" lon="-0.59869">
        <ele>22</ele>
        <time>2009-05-19T09:29:37Z</time>
      </trkpt>
      <trkpt lat="44.78833" lon="-0.59866">
        <ele>22</ele>
        <time>2009-05-19T09:29:38Z</time>
      </trkpt>
      <trkpt lat="44.78831" lon="-0.59864">
        <ele>22</ele>
        <time>2009-05-19T09:29:39Z</time>
      </trkpt>
      <trkpt lat="44.78829" lon="-0.59861">
        <ele>22</ele>
        <time>2009-05-19T09:29:40Z</time>
      </trkpt>
      <trkpt lat="44.78828" lon="-0.59857">
        <ele>22</ele>
        <time>2009-05-19T09:29:41Z</time>
      </trkpt>
      <trkpt lat="44.78828" lon="-0.59853">
        <ele>22</ele>
        <time>2009-05-19T09:29:42Z</time>
      </trkpt>
      <trkpt lat="44.78827" lon="-0.59849">
        <ele>22</ele>
        <time>2009-05-19T09:29:43Z</time>
      </trkpt>
      <trkpt lat="44.78825" lon="-0.59845">
        <ele>22</ele>
        <time>2009-05-19T09:29:44Z</time>
      </trkpt>
      <trkpt lat="44.78823" lon="-0.59841">
        <ele>22</ele>
        <time>2009-05-19T09:29:45Z</time>
      </trkpt>
      <trkpt lat="44.78822" lon="-0.59838">
        <ele>22</ele>
        <time>2009-05-19T09:29:46Z</time>
      </trkpt>
      <trkpt lat="44.7882" lon="-0.59835">
        <ele>22</ele>
        <time>2009-05-19T09:29:47Z</time>
      </trkpt>
      <trkpt lat="44.78819" lon="-0.59832">
        <ele>21</ele>
        <time>2009-05-19T09:29:48Z</time>
      </trkpt>
      <trkpt lat="44.78818" lon="-0.59829">
        <ele>21</ele>
        <time>2009-05-19T09:29:49Z</time>
      </trkpt>
      <trkpt lat="44.78816" lon="-0.59827">
        <ele>20</ele>
        <time>2009-05-19T09:29:50Z</time>
      </trkpt>
      <trkpt lat="44.78815" lon="-0.59824">
        <ele>19</ele>
        <time>2009-05-19T09:29:51Z</time>
      </trkpt>
      <trkpt lat="44.78813" lon="-0.59821">
        <ele>19</ele>
        <time>2009-05-19T09:29:52Z</time>
      </trkpt>
      <trkpt lat="44.7881" lon="-0.59819">
        <ele>19</ele>
        <time>2009-05-19T09:29:53Z</time>
      </trkpt>
      <trkpt lat="44.78808" lon="-0.59816">
        <ele>19</ele>
        <time>2009-05-19T09:29:54Z</time>
      </trkpt>
      <trkpt lat="44.78805" lon="-0.59814">
        <ele>18</ele>
        <time>2009-05-19T09:29:55Z</time>
      </trkpt>
      <trkpt lat="44.78803" lon="-0.59812">
        <ele>18</ele>
        <time>2009-05-19T09:29:56Z</time>
      </trkpt>
      <trkpt lat="44.78801" lon="-0.5981">
        <ele>18</ele>
        <time>2009-05-19T09:29:57Z</time>
      </trkpt>
      <trkpt lat="44.78799" lon="-0.59808">
        <ele>18</ele>
        <time>2009-05-19T09:29:58Z</time>
      </trkpt>
      <trkpt lat="44.78797" lon="-0.59806">
        <ele>18</ele>
        <time>2009-05-19T09:29:59Z</time>
      </trkpt>
      <trkpt lat="44.78795" lon="-0.59803">
        <ele>18</ele>
        <time>2009-05-19T09:30:00Z</time>
      </trkpt>
      <trkpt lat="44.78794" lon="-0.59801">
        <ele>18</ele>
        <time>2009-05-19T09:30:01Z</time>
      </trkpt>
      <trkpt lat="44.78792" lon="-0.59799">
        <ele>18</ele>
        <time>2009-05-19T09:30:02Z</time>
      </trkpt>
      <trkpt lat="44.7879" lon="-0.59796">
        <ele>18</ele>
        <time>2009-05-19T09:30:03Z</time>
      </trkpt>
      <trkpt lat="44.78789" lon="-0.59793">
        <ele>18</ele>
        <time>2009-05-19T09:30:04Z</time>
      </trkpt>
      <trkpt lat="44.78787" lon="-0.5979">
        <ele>18</ele>
        <time>2009-05-19T09:30:05Z</time>
      </trkpt>
      <trkpt lat="44.78785" lon="-0.59787">
        <ele>18</ele>
        <time>2009-05-19T09:30:06Z</time>
      </trkpt>
      <trkpt lat="44.78783" lon="-0.59784">
        <ele>18</ele>
        <time>2009-05-19T09:30:07Z</time>
      </trkpt>
      <trkpt lat="44.78782" lon="-0.59781">
        <ele>18</ele>
        <time>2009-05-19T09:30:08Z</time>
      </trkpt>
      <trkpt lat="44.7878" lon="-0.59778">
        <ele>18</ele>
        <time>2009-05-19T09:30:09Z</time>
      </trkpt>
      <trkpt lat="44.78779" lon="-0.59774">
        <ele>18</ele>
        <time>2009-05-19T09:30:10Z</time>
      </trkpt>
      <trkpt lat="44.78778" lon="-0.5977">
        <ele>18</ele>
        <time>2009-05-19T09:30:11Z</time>
      </trkpt>
      <trkpt lat="44.78777" lon="-0.59767">
        <ele>17</ele>
        <time>2009-05-19T09:30:12Z</time>
      </trkpt>
      <trkpt lat="44.78776" lon="-0.59763">
        <ele>17</ele>
        <time>2009-05-19T09:30:13Z</time>
      </trkpt>
      <trkpt lat="44.78774" lon="-0.5976">
        <ele>17</ele>
        <time>2009-05-19T09:30:14Z</time>
      </trkpt>
      <trkpt lat="44.78773" lon="-0.59757">
        <ele>17</ele>
        <time>2009-05-19T09:30:15Z</time>
      </trkpt>
      <trkpt lat="44.78771" lon="-0.59754">
        <ele>17</ele>
        <time>2009-05-19T09:30:16Z</time>
      </trkpt>
      <trkpt lat="44.7877" lon="-0.59751">
        <ele>17</ele>
        <time>2009-05-19T09:30:17Z</time>
      </trkpt>
      <trkpt lat="44.78769" lon="-0.59748">
        <ele>17</ele>
        <time>2009-05-19T09:30:18Z</time>
      </trkpt>
      <trkpt lat="44.78768" lon="-0.59744">
        <ele>17</ele>
        <time>2009-05-19T09:30:19Z</time>
      </trkpt>
      <trkpt lat="44.78766" lon="-0.5974">
        <ele>17</ele>
        <time>2009-05-19T09:30:20Z</time>
      </trkpt>
      <trkpt lat="44.78764" lon="-0.59737">
        <ele>17</ele>
        <time>2009-05-19T09:30:21Z</time>
      </trkpt>
      <trkpt lat="44.78763" lon="-0.59735">
        <ele>17</ele>
        <time>2009-05-19T09:30:22Z</time>
      </trkpt>
      <trkpt lat="44.7876" lon="-0.5973">
        <ele>17</ele>
        <time>2009-05-19T09:30:23Z</time>
      </trkpt>
      <trkpt lat="44.78758" lon="-0.59727">
        <ele>17</ele>
        <time>2009-05-19T09:30:24Z</time>
      </trkpt>
      <trkpt lat="44.78757" lon="-0.59724">
        <ele>17</ele>
        <time>2009-05-19T09:30:25Z</time>
      </trkpt>
      <trkpt lat="44.78755" lon="-0.59722">
        <ele>17</ele>
        <time>2009-05-19T09:30:26Z</time>
      </trkpt>
      <trkpt lat="44.78754" lon="-0.59719">
        <ele>18</ele>
        <time>2009-05-19T09:30:27Z</time>
      </trkpt>
      <trkpt lat="44.78753" lon="-0.59716">
        <ele>19</ele>
        <time>2009-05-19T09:30:28Z</time>
      </trkpt>
      <trkpt lat="44.78752" lon="-0.59713">
        <ele>19</ele>
        <time>2009-05-19T09:30:29Z</time>
      </trkpt>
      <trkpt lat="44.78752" lon="-0.59711">
        <ele>19</ele>
        <time>2009-05-19T09:30:30Z</time>
      </trkpt>
      <trkpt lat="44.7875" lon="-0.59708">
        <ele>19</ele>
        <time>2009-05-19T09:30:31Z</time>
      </trkpt>
      <trkpt lat="44.78748" lon="-0.59705">
        <ele>19</ele>
        <time>2009-05-19T09:30:32Z</time>
      </trkpt>
      <trkpt lat="44.78746" lon="-0.59701">
        <ele>19</ele>
        <time>2009-05-19T09:30:33Z</time>
      </trkpt>
      <trkpt lat="44.78746" lon="-0.59697">
        <ele>19</ele>
        <time>2009-05-19T09:30:34Z</time>
      </trkpt>
      <trkpt lat="44.78746" lon="-0.59693">
        <ele>19</ele>
        <time>2009-05-19T09:30:35Z</time>
      </trkpt>
      <trkpt lat="44.78745" lon="-0.59689">
        <ele>19</ele>
        <time>2009-05-19T09:30:36Z</time>
      </trkpt>
      <trkpt lat="44.78746" lon="-0.59685">
        <ele>19</ele>
        <time>2009-05-19T09:30:37Z</time>
      </trkpt>
      <trkpt lat="44.78746" lon="-0.59682">
        <ele>19</ele>
        <time>2009-05-19T09:30:38Z</time>
      </trkpt>
      <trkpt lat="44.78746" lon="-0.59679">
        <ele>19</ele>
        <time>2009-05-19T09:30:39Z</time>
      </trkpt>
      <trkpt lat="44.78745" lon="-0.59674">
        <ele>19</ele>
        <time>2009-05-19T09:30:40Z</time>
      </trkpt>
      <trkpt lat="44.78746" lon="-0.59671">
        <ele>19</ele>
        <time>2009-05-19T09:30:41Z</time>
      </trkpt>
      <trkpt lat="44.78747" lon="-0.59667">
        <ele>19</ele>
        <time>2009-05-19T09:30:42Z</time>
      </trkpt>
      <trkpt lat="44.78747" lon="-0.59664">
        <ele>19</ele>
        <time>2009-05-19T09:30:43Z</time>
      </trkpt>
      <trkpt lat="44.78748" lon="-0.59661">
        <ele>19</ele>
        <time>2009-05-19T09:30:44Z</time>
      </trkpt>
      <trkpt lat="44.78749" lon="-0.59658">
        <ele>18</ele>
        <time>2009-05-19T09:30:45Z</time>
      </trkpt>
      <trkpt lat="44.7875" lon="-0.59654">
        <ele>18</ele>
        <time>2009-05-19T09:30:46Z</time>
      </trkpt>
      <trkpt lat="44.78751" lon="-0.59651">
        <ele>18</ele>
        <time>2009-05-19T09:30:47Z</time>
      </trkpt>
      <trkpt lat="44.78752" lon="-0.59649">
        <ele>17</ele>
        <time>2009-05-19T09:30:48Z</time>
      </trkpt>
      <trkpt lat="44.78754" lon="-0.59648">
        <ele>17</ele>
        <time>2009-05-19T09:30:49Z</time>
      </trkpt>
      <trkpt lat="44.78756" lon="-0.59648">
        <ele>17</ele>
        <time>2009-05-19T09:30:50Z</time>
      </trkpt>
      <trkpt lat="44.78758" lon="-0.59649">
        <ele>17</ele>
        <time>2009-05-19T09:30:51Z</time>
      </trkpt>
      <trkpt lat="44.7876" lon="-0.59651">
        <ele>17</ele>
        <time>2009-05-19T09:30:52Z</time>
      </trkpt>
      <trkpt lat="44.78761" lon="-0.59653">
        <ele>17</ele>
        <time>2009-05-19T09:30:53Z</time>
      </trkpt>
      <trkpt lat="44.78762" lon="-0.59656">
        <ele>17</ele>
        <time>2009-05-19T09:30:54Z</time>
      </trkpt>
      <trkpt lat="44.78763" lon="-0.5966">
        <ele>17</ele>
        <time>2009-05-19T09:30:55Z</time>
      </trkpt>
      <trkpt lat="44.78763" lon="-0.59664">
        <ele>17</ele>
        <time>2009-05-19T09:30:56Z</time>
      </trkpt>
      <trkpt lat="44.78763" lon="-0.59667">
        <ele>17</ele>
        <time>2009-05-19T09:30:57Z</time>
      </trkpt>
      <trkpt lat="44.78764" lon="-0.5967">
        <ele>17</ele>
        <time>2009-05-19T09:30:58Z</time>
      </trkpt>
      <trkpt lat="44.78764" lon="-0.59674">
        <ele>17</ele>
        <time>2009-05-19T09:30:59Z</time>
      </trkpt>
      <trkpt lat="44.78765" lon="-0.59677">
        <ele>17</ele>
        <time>2009-05-19T09:31:00Z</time>
      </trkpt>
      <trkpt lat="44.78765" lon="-0.5968">
        <ele>17</ele>
        <time>2009-05-19T09:31:01Z</time>
      </trkpt>
      <trkpt lat="44.78765" lon="-0.59683">
        <ele>17</ele>
        <time>2009-05-19T09:31:02Z</time>
      </trkpt>
      <trkpt lat="44.78765" lon="-0.59686">
        <ele>17</ele>
        <time>2009-05-19T09:31:03Z</time>
      </trkpt>
      <trkpt lat="44.78765" lon="-0.5969">
        <ele>17</ele>
        <time>2009-05-19T09:31:04Z</time>
      </trkpt>
      <trkpt lat="44.78765" lon="-0.59694">
        <ele>17</ele>
        <time>2009-05-19T09:31:05Z</time>
      </trkpt>
      <trkpt lat="44.78765" lon="-0.59698">
        <ele>17</ele>
        <time>2009-05-19T09:31:06Z</time>
      </trkpt>
      <trkpt lat="44.78765" lon="-0.59701">
        <ele>17</ele>
        <time>2009-05-19T09:31:07Z</time>
      </trkpt>
      <trkpt lat="44.78766" lon="-0.59704">
        <ele>17</ele>
        <time>2009-05-19T09:31:08Z</time>
      </trkpt>
      <trkpt lat="44.78767" lon="-0.59707">
        <ele>17</ele>
        <time>2009-05-19T09:31:09Z</time>
      </trkpt>
      <trkpt lat="44.78769" lon="-0.5971">
        <ele>17</ele>
        <time>2009-05-19T09:31:10Z</time>
      </trkpt>
      <trkpt lat="44.7877" lon="-0.59713">
        <ele>17</ele>
        <time>2009-05-19T09:31:11Z</time>
      </trkpt>
      <trkpt lat="44.78772" lon="-0.59716">
        <ele>17</ele>
        <time>2009-05-19T09:31:12Z</time>
      </trkpt>
      <trkpt lat="44.78773" lon="-0.59718">
        <ele>18</ele>
        <time>2009-05-19T09:31:13Z</time>
      </trkpt>
      <trkpt lat="44.78775" lon="-0.5972">
        <ele>18</ele>
        <time>2009-05-19T09:31:14Z</time>
      </trkpt>
      <trkpt lat="44.78777" lon="-0.59723">
        <ele>18</ele>
        <time>2009-05-19T09:31:15Z</time>
      </trkpt>
      <trkpt lat="44.78779" lon="-0.59725">
        <ele>18</ele>
        <time>2009-05-19T09:31:16Z</time>
      </trkpt>
      <trkpt lat="44.78781" lon="-0.59729">
        <ele>18</ele>
        <time>2009-05-19T09:31:17Z</time>
      </trkpt>
      <trkpt lat="44.78783" lon="-0.59733">
        <ele>18</ele>
        <time>2009-05-19T09:31:18Z</time>
      </trkpt>
      <trkpt lat="44.78785" lon="-0.59735">
        <ele>18</ele>
        <time>2009-05-19T09:31:19Z</time>
      </trkpt>
      <trkpt lat="44.78786" lon="-0.59737">
        <ele>18</ele>
        <time>2009-05-19T09:31:20Z</time>
      </trkpt>
      <trkpt lat="44.78788" lon="-0.59739">
        <ele>18</ele>
        <time>2009-05-19T09:31:21Z</time>
      </trkpt>
      <trkpt lat="44.78791" lon="-0.59741">
        <ele>18</ele>
        <time>2009-05-19T09:31:22Z</time>
      </trkpt>
      <trkpt lat="44.78792" lon="-0.59743">
        <ele>18</ele>
        <time>2009-05-19T09:31:23Z</time>
      </trkpt>
      <trkpt lat="44.78794" lon="-0.59745">
        <ele>18</ele>
        <time>2009-05-19T09:31:24Z</time>
      </trkpt>
      <trkpt lat="44.78796" lon="-0.59747">
        <ele>18</ele>
        <time>2009-05-19T09:31:25Z</time>
      </trkpt>
      <trkpt lat="44.78796" lon="-0.5975">
        <ele>18</ele>
        <time>2009-05-19T09:31:26Z</time>
      </trkpt>
      <trkpt lat="44.78798" lon="-0.59751">
        <ele>18</ele>
        <time>2009-05-19T09:31:27Z</time>
      </trkpt>
      <trkpt lat="44.788" lon="-0.59752">
        <ele>18</ele>
        <time>2009-05-19T09:31:28Z</time>
      </trkpt>
      <trkpt lat="44.78801" lon="-0.59754">
        <ele>18</ele>
        <time>2009-05-19T09:31:29Z</time>
      </trkpt>
      <trkpt lat="44.78804" lon="-0.59754">
        <ele>18</ele>
        <time>2009-05-19T09:31:30Z</time>
      </trkpt>
      <trkpt lat="44.78806" lon="-0.59755">
        <ele>18</ele>
        <time>2009-05-19T09:31:31Z</time>
      </trkpt>
      <trkpt lat="44.78808" lon="-0.59756">
        <ele>18</ele>
        <time>2009-05-19T09:31:32Z</time>
      </trkpt>
      <trkpt lat="44.78811" lon="-0.59757">
        <ele>18</ele>
        <time>2009-05-19T09:31:33Z</time>
      </trkpt>
      <trkpt lat="44.78813" lon="-0.59759">
        <ele>18</ele>
        <time>2009-05-19T09:31:34Z</time>
      </trkpt>
      <trkpt lat="44.78815" lon="-0.59761">
        <ele>18</ele>
        <time>2009-05-19T09:31:35Z</time>
      </trkpt>
      <trkpt lat="44.78818" lon="-0.59763">
        <ele>18</ele>
        <time>2009-05-19T09:31:36Z</time>
      </trkpt>
      <trkpt lat="44.7882" lon="-0.59764">
        <ele>18</ele>
        <time>2009-05-19T09:31:37Z</time>
      </trkpt>
      <trkpt lat="44.78823" lon="-0.59765">
        <ele>18</ele>
        <time>2009-05-19T09:31:38Z</time>
      </trkpt>
      <trkpt lat="44.78826" lon="-0.59767">
        <ele>18</ele>
        <time>2009-05-19T09:31:39Z</time>
      </trkpt>
      <trkpt lat="44.78829" lon="-0.59769">
        <ele>18</ele>
        <time>2009-05-19T09:31:40Z</time>
      </trkpt>
      <trkpt lat="44.78832" lon="-0.59772">
        <ele>18</ele>
        <time>2009-05-19T09:31:41Z</time>
      </trkpt>
      <trkpt lat="44.78834" lon="-0.59775">
        <ele>18</ele>
        <time>2009-05-19T09:31:42Z</time>
      </trkpt>
      <trkpt lat="44.78837" lon="-0.59778">
        <ele>18</ele>
        <time>2009-05-19T09:31:43Z</time>
      </trkpt>
      <trkpt lat="44.78838" lon="-0.5978">
        <ele>18</ele>
        <time>2009-05-19T09:31:44Z</time>
      </trkpt>
      <trkpt lat="44.7884" lon="-0.59782">
        <ele>18</ele>
        <time>2009-05-19T09:31:45Z</time>
      </trkpt>
      <trkpt lat="44.78843" lon="-0.59784">
        <ele>18</ele>
        <time>2009-05-19T09:31:46Z</time>
      </trkpt>
      <trkpt lat="44.78846" lon="-0.59785">
        <ele>18</ele>
        <time>2009-05-19T09:31:47Z</time>
      </trkpt>
      <trkpt lat="44.78848" lon="-0.59786">
        <ele>18</ele>
        <time>2009-05-19T09:31:48Z</time>
      </trkpt>
      <trkpt lat="44.7885" lon="-0.59788">
        <ele>18</ele>
        <time>2009-05-19T09:31:49Z</time>
      </trkpt>
      <trkpt lat="44.78852" lon="-0.5979">
        <ele>18</ele>
        <time>2009-05-19T09:31:50Z</time>
      </trkpt>
      <trkpt lat="44.78855" lon="-0.5979">
        <ele>18</ele>
        <time>2009-05-19T09:31:51Z</time>
      </trkpt>
      <trkpt lat="44.78858" lon="-0.5979">
        <ele>18</ele>
        <time>2009-05-19T09:31:52Z</time>
      </trkpt>
      <trkpt lat="44.78862" lon="-0.59791">
        <ele>18</ele>
        <time>2009-05-19T09:31:53Z</time>
      </trkpt>
      <trkpt lat="44.78865" lon="-0.59792">
        <ele>18</ele>
        <time>2009-05-19T09:31:54Z</time>
      </trkpt>
      <trkpt lat="44.78868" lon="-0.59792">
        <ele>18</ele>
        <time>2009-05-19T09:31:55Z</time>
      </trkpt>
      <trkpt lat="44.78871" lon="-0.59792">
        <ele>18</ele>
        <time>2009-05-19T09:31:56Z</time>
      </trkpt>
      <trkpt lat="44.78874" lon="-0.59792">
        <ele>18</ele>
        <time>2009-05-19T09:31:57Z</time>
      </trkpt>
      <trkpt lat="44.78877" lon="-0.59792">
        <ele>18</ele>
        <time>2009-05-19T09:31:58Z</time>
      </trkpt>
      <trkpt lat="44.7888" lon="-0.59792">
        <ele>18</ele>
        <time>2009-05-19T09:31:59Z</time>
      </trkpt>
      <trkpt lat="44.78883" lon="-0.59792">
        <ele>18</ele>
        <time>2009-05-19T09:32:00Z</time>
      </trkpt>
      <trkpt lat="44.78886" lon="-0.59791">
        <ele>18</ele>
        <time>2009-05-19T09:32:01Z</time>
      </trkpt>
      <trkpt lat="44.78889" lon="-0.5979">
        <ele>18</ele>
        <time>2009-05-19T09:32:02Z</time>
      </trkpt>
      <trkpt lat="44.78891" lon="-0.59788">
        <ele>18</ele>
        <time>2009-05-19T09:32:03Z</time>
      </trkpt>
      <trkpt lat="44.78894" lon="-0.59786">
        <ele>18</ele>
        <time>2009-05-19T09:32:04Z</time>
      </trkpt>
      <trkpt lat="44.78897" lon="-0.59783">
        <ele>18</ele>
        <time>2009-05-19T09:32:05Z</time>
      </trkpt>
      <trkpt lat="44.789" lon="-0.59781">
        <ele>18</ele>
        <time>2009-05-19T09:32:06Z</time>
      </trkpt>
      <trkpt lat="44.78903" lon="-0.59779">
        <ele>18</ele>
        <time>2009-05-19T09:32:07Z</time>
      </trkpt>
      <trkpt lat="44.78906" lon="-0.59776">
        <ele>18</ele>
        <time>2009-05-19T09:32:08Z</time>
      </trkpt>
      <trkpt lat="44.78908" lon="-0.59773">
        <ele>18</ele>
        <time>2009-05-19T09:32:09Z</time>
      </trkpt>
      <trkpt lat="44.78909" lon="-0.59769">
        <ele>18</ele>
        <time>2009-05-19T09:32:10Z</time>
      </trkpt>
      <trkpt lat="44.7891" lon="-0.59766">
        <ele>19</ele>
        <time>2009-05-19T09:32:11Z</time>
      </trkpt>
      <trkpt lat="44.78911" lon="-0.59761">
        <ele>19</ele>
        <time>2009-05-19T09:32:12Z</time>
      </trkpt>
      <trkpt lat="44.78912" lon="-0.59758">
        <ele>19</ele>
        <time>2009-05-19T09:32:13Z</time>
      </trkpt>
      <trkpt lat="44.78913" lon="-0.59754">
        <ele>19</ele>
        <time>2009-05-19T09:32:14Z</time>
      </trkpt>
      <trkpt lat="44.78914" lon="-0.59751">
        <ele>19</ele>
        <time>2009-05-19T09:32:15Z</time>
      </trkpt>
      <trkpt lat="44.78914" lon="-0.59748">
        <ele>19</ele>
        <time>2009-05-19T09:32:16Z</time>
      </trkpt>
      <trkpt lat="44.78914" lon="-0.59744">
        <ele>19</ele>
        <time>2009-05-19T09:32:17Z</time>
      </trkpt>
      <trkpt lat="44.78914" lon="-0.5974">
        <ele>19</ele>
        <time>2009-05-19T09:32:18Z</time>
      </trkpt>
      <trkpt lat="44.78914" lon="-0.59737">
        <ele>19</ele>
        <time>2009-05-19T09:32:19Z</time>
      </trkpt>
      <trkpt lat="44.78913" lon="-0.59733">
        <ele>19</ele>
        <time>2009-05-19T09:32:20Z</time>
      </trkpt>
      <trkpt lat="44.78912" lon="-0.5973">
        <ele>19</ele>
        <time>2009-05-19T09:32:21Z</time>
      </trkpt>
      <trkpt lat="44.78912" lon="-0.59727">
        <ele>19</ele>
        <time>2009-05-19T09:32:22Z</time>
      </trkpt>
      <trkpt lat="44.78911" lon="-0.59723">
        <ele>19</ele>
        <time>2009-05-19T09:32:23Z</time>
      </trkpt>
      <trkpt lat="44.78911" lon="-0.5972">
        <ele>19</ele>
        <time>2009-05-19T09:32:24Z</time>
      </trkpt>
      <trkpt lat="44.7891" lon="-0.59716">
        <ele>19</ele>
        <time>2009-05-19T09:32:25Z</time>
      </trkpt>
      <trkpt lat="44.78909" lon="-0.59712">
        <ele>19</ele>
        <time>2009-05-19T09:32:26Z</time>
      </trkpt>
      <trkpt lat="44.78909" lon="-0.59709">
        <ele>19</ele>
        <time>2009-05-19T09:32:27Z</time>
      </trkpt>
      <trkpt lat="44.78908" lon="-0.59706">
        <ele>19</ele>
        <time>2009-05-19T09:32:28Z</time>
      </trkpt>
      <trkpt lat="44.78908" lon="-0.59703">
        <ele>19</ele>
        <time>2009-05-19T09:32:29Z</time>
      </trkpt>
      <trkpt lat="44.78908" lon="-0.59699">
        <ele>19</ele>
        <time>2009-05-19T09:32:30Z</time>
      </trkpt>
      <trkpt lat="44.78907" lon="-0.59696">
        <ele>19</ele>
        <time>2009-05-19T09:32:31Z</time>
      </trkpt>
      <trkpt lat="44.78906" lon="-0.59692">
        <ele>19</ele>
        <time>2009-05-19T09:32:32Z</time>
      </trkpt>
      <trkpt lat="44.78905" lon="-0.59687">
        <ele>19</ele>
        <time>2009-05-19T09:32:33Z</time>
      </trkpt>
      <trkpt lat="44.78904" lon="-0.59683">
        <ele>19</ele>
        <time>2009-05-19T09:32:34Z</time>
      </trkpt>
      <trkpt lat="44.78904" lon="-0.59679">
        <ele>19</ele>
        <time>2009-05-19T09:32:35Z</time>
      </trkpt>
      <trkpt lat="44.78904" lon="-0.59676">
        <ele>19</ele>
        <time>2009-05-19T09:32:36Z</time>
      </trkpt>
      <trkpt lat="44.78903" lon="-0.59672">
        <ele>19</ele>
        <time>2009-05-19T09:32:37Z</time>
      </trkpt>
      <trkpt lat="44.78903" lon="-0.59668">
        <ele>19</ele>
        <time>2009-05-19T09:32:38Z</time>
      </trkpt>
      <trkpt lat="44.78903" lon="-0.59665">
        <ele>19</ele>
        <time>2009-05-19T09:32:39Z</time>
      </trkpt>
      <trkpt lat="44.78902" lon="-0.59661">
        <ele>19</ele>
        <time>2009-05-19T09:32:40Z</time>
      </trkpt>
      <trkpt lat="44.78902" lon="-0.59658">
        <ele>19</ele>
        <time>2009-05-19T09:32:41Z</time>
      </trkpt>
      <trkpt lat="44.78902" lon="-0.59655">
        <ele>19</ele>
        <time>2009-05-19T09:32:42Z</time>
      </trkpt>
      <trkpt lat="44.78902" lon="-0.59652">
        <ele>19</ele>
        <time>2009-05-19T09:32:43Z</time>
      </trkpt>
      <trkpt lat="44.78901" lon="-0.59648">
        <ele>19</ele>
        <time>2009-05-19T09:32:44Z</time>
      </trkpt>
      <trkpt lat="44.78901" lon="-0.59645">
        <ele>19</ele>
        <time>2009-05-19T09:32:45Z</time>
      </trkpt>
      <trkpt lat="44.78901" lon="-0.59642">
        <ele>19</ele>
        <time>2009-05-19T09:32:46Z</time>
      </trkpt>
      <trkpt lat="44.789" lon="-0.59638">
        <ele>19</ele>
        <time>2009-05-19T09:32:47Z</time>
      </trkpt>
      <trkpt lat="44.789" lon="-0.59634">
        <ele>19</ele>
        <time>2009-05-19T09:32:48Z</time>
      </trkpt>
      <trkpt lat="44.789" lon="-0.5963">
        <ele>19</ele>
        <time>2009-05-19T09:32:49Z</time>
      </trkpt>
      <trkpt lat="44.789" lon="-0.59626">
        <ele>19</ele>
        <time>2009-05-19T09:32:50Z</time>
      </trkpt>
      <trkpt lat="44.78899" lon="-0.59623">
        <ele>19</ele>
        <time>2009-05-19T09:32:51Z</time>
      </trkpt>
      <trkpt lat="44.78898" lon="-0.5962">
        <ele>19</ele>
        <time>2009-05-19T09:32:52Z</time>
      </trkpt>
      <trkpt lat="44.78897" lon="-0.59617">
        <ele>19</ele>
        <time>2009-05-19T09:32:53Z</time>
      </trkpt>
      <trkpt lat="44.78896" lon="-0.59613">
        <ele>19</ele>
        <time>2009-05-19T09:32:54Z</time>
      </trkpt>
      <trkpt lat="44.78895" lon="-0.59608">
        <ele>19</ele>
        <time>2009-05-19T09:32:55Z</time>
      </trkpt>
      <trkpt lat="44.78895" lon="-0.59603">
        <ele>19</ele>
        <time>2009-05-19T09:32:56Z</time>
      </trkpt>
      <trkpt lat="44.78895" lon="-0.59599">
        <ele>19</ele>
        <time>2009-05-19T09:32:57Z</time>
      </trkpt>
      <trkpt lat="44.78895" lon="-0.59596">
        <ele>19</ele>
        <time>2009-05-19T09:32:58Z</time>
      </trkpt>
      <trkpt lat="44.78894" lon="-0.59592">
        <ele>19</ele>
        <time>2009-05-19T09:32:59Z</time>
      </trkpt>
      <trkpt lat="44.78893" lon="-0.59589">
        <ele>19</ele>
        <time>2009-05-19T09:33:00Z</time>
      </trkpt>
      <trkpt lat="44.78893" lon="-0.59585">
        <ele>19</ele>
        <time>2009-05-19T09:33:01Z</time>
      </trkpt>
      <trkpt lat="44.78891" lon="-0.59581">
        <ele>19</ele>
        <time>2009-05-19T09:33:02Z</time>
      </trkpt>
      <trkpt lat="44.7889" lon="-0.59576">
        <ele>19</ele>
        <time>2009-05-19T09:33:03Z</time>
      </trkpt>
      <trkpt lat="44.7889" lon="-0.59571">
        <ele>19</ele>
        <time>2009-05-19T09:33:04Z</time>
      </trkpt>
      <trkpt lat="44.7889" lon="-0.59567">
        <ele>19</ele>
        <time>2009-05-19T09:33:05Z</time>
      </trkpt>
      <trkpt lat="44.78889" lon="-0.59563">
        <ele>19</ele>
        <time>2009-05-19T09:33:06Z</time>
      </trkpt>
      <trkpt lat="44.78888" lon="-0.59559">
        <ele>19</ele>
        <time>2009-05-19T09:33:07Z</time>
      </trkpt>
      <trkpt lat="44.78887" lon="-0.59555">
        <ele>19</ele>
        <time>2009-05-19T09:33:08Z</time>
      </trkpt>
      <trkpt lat="44.78886" lon="-0.59552">
        <ele>19</ele>
        <time>2009-05-19T09:33:09Z</time>
      </trkpt>
      <trkpt lat="44.78885" lon="-0.59549">
        <ele>19</ele>
        <time>2009-05-19T09:33:10Z</time>
      </trkpt>
      <trkpt lat="44.78885" lon="-0.59545">
        <ele>19</ele>
        <time>2009-05-19T09:33:11Z</time>
      </trkpt>
      <trkpt lat="44.78885" lon="-0.59542">
        <ele>19</ele>
        <time>2009-05-19T09:33:12Z</time>
      </trkpt>
      <trkpt lat="44.78884" lon="-0.59539">
        <ele>19</ele>
        <time>2009-05-19T09:33:13Z</time>
      </trkpt>
      <trkpt lat="44.78882" lon="-0.59535">
        <ele>19</ele>
        <time>2009-05-19T09:33:14Z</time>
      </trkpt>
      <trkpt lat="44.78881" lon="-0.59532">
        <ele>19</ele>
        <time>2009-05-19T09:33:15Z</time>
      </trkpt>
      <trkpt lat="44.78879" lon="-0.59529">
        <ele>19</ele>
        <time>2009-05-19T09:33:16Z</time>
      </trkpt>
      <trkpt lat="44.78878" lon="-0.59526">
        <ele>19</ele>
        <time>2009-05-19T09:33:17Z</time>
      </trkpt>
      <trkpt lat="44.78876" lon="-0.59521">
        <ele>19</ele>
        <time>2009-05-19T09:33:18Z</time>
      </trkpt>
      <trkpt lat="44.78875" lon="-0.59516">
        <ele>19</ele>
        <time>2009-05-19T09:33:19Z</time>
      </trkpt>
      <trkpt lat="44.78874" lon="-0.59512">
        <ele>19</ele>
        <time>2009-05-19T09:33:20Z</time>
      </trkpt>
      <trkpt lat="44.78874" lon="-0.59509">
        <ele>19</ele>
        <time>2009-05-19T09:33:21Z</time>
      </trkpt>
      <trkpt lat="44.78873" lon="-0.59505">
        <ele>19</ele>
        <time>2009-05-19T09:33:22Z</time>
      </trkpt>
      <trkpt lat="44.78873" lon="-0.59502">
        <ele>19</ele>
        <time>2009-05-19T09:33:23Z</time>
      </trkpt>
      <trkpt lat="44.78872" lon="-0.59498">
        <ele>19</ele>
        <time>2009-05-19T09:33:24Z</time>
      </trkpt>
      <trkpt lat="44.78871" lon="-0.59495">
        <ele>19</ele>
        <time>2009-05-19T09:33:25Z</time>
      </trkpt>
      <trkpt lat="44.7887" lon="-0.59491">
        <ele>19</ele>
        <time>2009-05-19T09:33:26Z</time>
      </trkpt>
      <trkpt lat="44.7887" lon="-0.59487">
        <ele>19</ele>
        <time>2009-05-19T09:33:27Z</time>
      </trkpt>
      <trkpt lat="44.7887" lon="-0.59484">
        <ele>19</ele>
        <time>2009-05-19T09:33:28Z</time>
      </trkpt>
      <trkpt lat="44.78869" lon="-0.5948">
        <ele>19</ele>
        <time>2009-05-19T09:33:29Z</time>
      </trkpt>
      <trkpt lat="44.78868" lon="-0.59477">
        <ele>19</ele>
        <time>2009-05-19T09:33:30Z</time>
      </trkpt>
      <trkpt lat="44.78866" lon="-0.59472">
        <ele>19</ele>
        <time>2009-05-19T09:33:31Z</time>
      </trkpt>
      <trkpt lat="44.78865" lon="-0.59467">
        <ele>19</ele>
        <time>2009-05-19T09:33:32Z</time>
      </trkpt>
      <trkpt lat="44.78864" lon="-0.59463">
        <ele>19</ele>
        <time>2009-05-19T09:33:33Z</time>
      </trkpt>
      <trkpt lat="44.78863" lon="-0.59459">
        <ele>20</ele>
        <time>2009-05-19T09:33:34Z</time>
      </trkpt>
      <trkpt lat="44.78863" lon="-0.59455">
        <ele>21</ele>
        <time>2009-05-19T09:33:35Z</time>
      </trkpt>
      <trkpt lat="44.78864" lon="-0.59452">
        <ele>22</ele>
        <time>2009-05-19T09:33:36Z</time>
      </trkpt>
      <trkpt lat="44.78865" lon="-0.59449">
        <ele>23</ele>
        <time>2009-05-19T09:33:37Z</time>
      </trkpt>
      <trkpt lat="44.78867" lon="-0.5945">
        <ele>23</ele>
        <time>2009-05-19T09:33:38Z</time>
      </trkpt>
      <trkpt lat="44.78869" lon="-0.59453">
        <ele>23</ele>
        <time>2009-05-19T09:33:39Z</time>
      </trkpt>
      <trkpt lat="44.7887" lon="-0.59456">
        <ele>23</ele>
        <time>2009-05-19T09:33:40Z</time>
      </trkpt>
      <trkpt lat="44.78872" lon="-0.5946">
        <ele>23</ele>
        <time>2009-05-19T09:33:41Z</time>
      </trkpt>
      <trkpt lat="44.78874" lon="-0.59463">
        <ele>23</ele>
        <time>2009-05-19T09:33:42Z</time>
      </trkpt>
      <trkpt lat="44.78876" lon="-0.59466">
        <ele>23</ele>
        <time>2009-05-19T09:33:43Z</time>
      </trkpt>
      <trkpt lat="44.78878" lon="-0.59469">
        <ele>23</ele>
        <time>2009-05-19T09:33:44Z</time>
      </trkpt>
      <trkpt lat="44.7888" lon="-0.59472">
        <ele>23</ele>
        <time>2009-05-19T09:33:45Z</time>
      </trkpt>
      <trkpt lat="44.78883" lon="-0.59474">
        <ele>23</ele>
        <time>2009-05-19T09:33:46Z</time>
      </trkpt>
      <trkpt lat="44.78885" lon="-0.59476">
        <ele>23</ele>
        <time>2009-05-19T09:33:47Z</time>
      </trkpt>
      <trkpt lat="44.78888" lon="-0.59477">
        <ele>23</ele>
        <time>2009-05-19T09:33:48Z</time>
      </trkpt>
      <trkpt lat="44.7889" lon="-0.59478">
        <ele>23</ele>
        <time>2009-05-19T09:33:49Z</time>
      </trkpt>
      <trkpt lat="44.78891" lon="-0.59481">
        <ele>23</ele>
        <time>2009-05-19T09:33:50Z</time>
      </trkpt>
      <trkpt lat="44.78893" lon="-0.59483">
        <ele>23</ele>
        <time>2009-05-19T09:33:51Z</time>
      </trkpt>
      <trkpt lat="44.78896" lon="-0.59484">
        <ele>23</ele>
        <time>2009-05-19T09:33:52Z</time>
      </trkpt>
      <trkpt lat="44.78898" lon="-0.59487">
        <ele>23</ele>
        <time>2009-05-19T09:33:53Z</time>
      </trkpt>
      <trkpt lat="44.789" lon="-0.59488">
        <ele>23</ele>
        <time>2009-05-19T09:33:54Z</time>
      </trkpt>
      <trkpt lat="44.78902" lon="-0.5949">
        <ele>23</ele>
        <time>2009-05-19T09:33:55Z</time>
      </trkpt>
      <trkpt lat="44.78904" lon="-0.59493">
        <ele>23</ele>
        <time>2009-05-19T09:33:56Z</time>
      </trkpt>
      <trkpt lat="44.78907" lon="-0.59495">
        <ele>23</ele>
        <time>2009-05-19T09:33:57Z</time>
      </trkpt>
      <trkpt lat="44.78909" lon="-0.59498">
        <ele>23</ele>
        <time>2009-05-19T09:33:58Z</time>
      </trkpt>
      <trkpt lat="44.78911" lon="-0.595">
        <ele>23</ele>
        <time>2009-05-19T09:33:59Z</time>
      </trkpt>
      <trkpt lat="44.78913" lon="-0.59503">
        <ele>23</ele>
        <time>2009-05-19T09:34:00Z</time>
      </trkpt>
      <trkpt lat="44.78915" lon="-0.59506">
        <ele>23</ele>
        <time>2009-05-19T09:34:01Z</time>
      </trkpt>
      <trkpt lat="44.78917" lon="-0.59509">
        <ele>23</ele>
        <time>2009-05-19T09:34:02Z</time>
      </trkpt>
      <trkpt lat="44.78918" lon="-0.59511">
        <ele>23</ele>
        <time>2009-05-19T09:34:03Z</time>
      </trkpt>
      <trkpt lat="44.7892" lon="-0.59514">
        <ele>23</ele>
        <time>2009-05-19T09:34:04Z</time>
      </trkpt>
      <trkpt lat="44.78923" lon="-0.59516">
        <ele>23</ele>
        <time>2009-05-19T09:34:05Z</time>
      </trkpt>
      <trkpt lat="44.78926" lon="-0.59518">
        <ele>23</ele>
        <time>2009-05-19T09:34:06Z</time>
      </trkpt>
      <trkpt lat="44.78928" lon="-0.59519">
        <ele>23</ele>
        <time>2009-05-19T09:34:07Z</time>
      </trkpt>
      <trkpt lat="44.7893" lon="-0.59522">
        <ele>23</ele>
        <time>2009-05-19T09:34:08Z</time>
      </trkpt>
      <trkpt lat="44.78932" lon="-0.59524">
        <ele>23</ele>
        <time>2009-05-19T09:34:09Z</time>
      </trkpt>
      <trkpt lat="44.78935" lon="-0.59527">
        <ele>23</ele>
        <time>2009-05-19T09:34:10Z</time>
      </trkpt>
      <trkpt lat="44.78938" lon="-0.59529">
        <ele>23</ele>
        <time>2009-05-19T09:34:11Z</time>
      </trkpt>
      <trkpt lat="44.7894" lon="-0.59531">
        <ele>23</ele>
        <time>2009-05-19T09:34:12Z</time>
      </trkpt>
      <trkpt lat="44.78943" lon="-0.59533">
        <ele>23</ele>
        <time>2009-05-19T09:34:13Z</time>
      </trkpt>
      <trkpt lat="44.78945" lon="-0.59536">
        <ele>23</ele>
        <time>2009-05-19T09:34:14Z</time>
      </trkpt>
      <trkpt lat="44.78947" lon="-0.59539">
        <ele>23</ele>
        <time>2009-05-19T09:34:15Z</time>
      </trkpt>
      <trkpt lat="44.78948" lon="-0.59543">
        <ele>23</ele>
        <time>2009-05-19T09:34:16Z</time>
      </trkpt>
      <trkpt lat="44.78949" lon="-0.59545">
        <ele>23</ele>
        <time>2009-05-19T09:34:17Z</time>
      </trkpt>
      <trkpt lat="44.7895" lon="-0.59549">
        <ele>23</ele>
        <time>2009-05-19T09:34:18Z</time>
      </trkpt>
      <trkpt lat="44.7895" lon="-0.59552">
        <ele>23</ele>
        <time>2009-05-19T09:34:19Z</time>
      </trkpt>
      <trkpt lat="44.7895" lon="-0.59557">
        <ele>23</ele>
        <time>2009-05-19T09:34:20Z</time>
      </trkpt>
      <trkpt lat="44.78951" lon="-0.59561">
        <ele>23</ele>
        <time>2009-05-19T09:34:21Z</time>
      </trkpt>
      <trkpt lat="44.78951" lon="-0.59565">
        <ele>23</ele>
        <time>2009-05-19T09:34:22Z</time>
      </trkpt>
      <trkpt lat="44.78951" lon="-0.59568">
        <ele>23</ele>
        <time>2009-05-19T09:34:23Z</time>
      </trkpt>
      <trkpt lat="44.78951" lon="-0.59572">
        <ele>23</ele>
        <time>2009-05-19T09:34:24Z</time>
      </trkpt>
      <trkpt lat="44.78951" lon="-0.59575">
        <ele>23</ele>
        <time>2009-05-19T09:34:25Z</time>
      </trkpt>
      <trkpt lat="44.78951" lon="-0.59579">
        <ele>23</ele>
        <time>2009-05-19T09:34:26Z</time>
      </trkpt>
      <trkpt lat="44.78951" lon="-0.59584">
        <ele>23</ele>
        <time>2009-05-19T09:34:27Z</time>
      </trkpt>
      <trkpt lat="44.78951" lon="-0.59589">
        <ele>23</ele>
        <time>2009-05-19T09:34:28Z</time>
      </trkpt>
      <trkpt lat="44.78951" lon="-0.59593">
        <ele>23</ele>
        <time>2009-05-19T09:34:29Z</time>
      </trkpt>
      <trkpt lat="44.78951" lon="-0.59597">
        <ele>23</ele>
        <time>2009-05-19T09:34:30Z</time>
      </trkpt>
      <trkpt lat="44.78951" lon="-0.59601">
        <ele>23</ele>
        <time>2009-05-19T09:34:31Z</time>
      </trkpt>
      <trkpt lat="44.78951" lon="-0.59604">
        <ele>23</ele>
        <time>2009-05-19T09:34:32Z</time>
      </trkpt>
      <trkpt lat="44.78952" lon="-0.59608">
        <ele>23</ele>
        <time>2009-05-19T09:34:33Z</time>
      </trkpt>
      <trkpt lat="44.78952" lon="-0.59612">
        <ele>23</ele>
        <time>2009-05-19T09:34:34Z</time>
      </trkpt>
      <trkpt lat="44.78952" lon="-0.59614">
        <ele>23</ele>
        <time>2009-05-19T09:34:35Z</time>
      </trkpt>
      <trkpt lat="44.78953" lon="-0.59617">
        <ele>23</ele>
        <time>2009-05-19T09:34:36Z</time>
      </trkpt>
      <trkpt lat="44.78954" lon="-0.5962">
        <ele>23</ele>
        <time>2009-05-19T09:34:37Z</time>
      </trkpt>
      <trkpt lat="44.78954" lon="-0.59625">
        <ele>23</ele>
        <time>2009-05-19T09:34:38Z</time>
      </trkpt>
      <trkpt lat="44.78954" lon="-0.59629">
        <ele>23</ele>
        <time>2009-05-19T09:34:39Z</time>
      </trkpt>
      <trkpt lat="44.78954" lon="-0.59633">
        <ele>23</ele>
        <time>2009-05-19T09:34:40Z</time>
      </trkpt>
      <trkpt lat="44.78954" lon="-0.59638">
        <ele>23</ele>
        <time>2009-05-19T09:34:41Z</time>
      </trkpt>
      <trkpt lat="44.78954" lon="-0.59641">
        <ele>23</ele>
        <time>2009-05-19T09:34:42Z</time>
      </trkpt>
      <trkpt lat="44.78954" lon="-0.59644">
        <ele>22</ele>
        <time>2009-05-19T09:34:43Z</time>
      </trkpt>
      <trkpt lat="44.78954" lon="-0.59648">
        <ele>22</ele>
        <time>2009-05-19T09:34:44Z</time>
      </trkpt>
      <trkpt lat="44.78954" lon="-0.59652">
        <ele>22</ele>
        <time>2009-05-19T09:34:45Z</time>
      </trkpt>
      <trkpt lat="44.78954" lon="-0.59657">
        <ele>22</ele>
        <time>2009-05-19T09:34:46Z</time>
      </trkpt>
      <trkpt lat="44.78954" lon="-0.59661">
        <ele>22</ele>
        <time>2009-05-19T09:34:47Z</time>
      </trkpt>
      <trkpt lat="44.78953" lon="-0.59666">
        <ele>22</ele>
        <time>2009-05-19T09:34:48Z</time>
      </trkpt>
      <trkpt lat="44.78953" lon="-0.59671">
        <ele>22</ele>
        <time>2009-05-19T09:34:49Z</time>
      </trkpt>
      <trkpt lat="44.78953" lon="-0.59675">
        <ele>22</ele>
        <time>2009-05-19T09:34:50Z</time>
      </trkpt>
      <trkpt lat="44.78953" lon="-0.59679">
        <ele>22</ele>
        <time>2009-05-19T09:34:51Z</time>
      </trkpt>
      <trkpt lat="44.78954" lon="-0.59683">
        <ele>22</ele>
        <time>2009-05-19T09:34:52Z</time>
      </trkpt>
      <trkpt lat="44.78954" lon="-0.59687">
        <ele>22</ele>
        <time>2009-05-19T09:34:53Z</time>
      </trkpt>
      <trkpt lat="44.78955" lon="-0.59691">
        <ele>22</ele>
        <time>2009-05-19T09:34:54Z</time>
      </trkpt>
      <trkpt lat="44.78956" lon="-0.59694">
        <ele>22</ele>
        <time>2009-05-19T09:34:55Z</time>
      </trkpt>
      <trkpt lat="44.78957" lon="-0.59697">
        <ele>22</ele>
        <time>2009-05-19T09:34:56Z</time>
      </trkpt>
      <trkpt lat="44.78957" lon="-0.59701">
        <ele>22</ele>
        <time>2009-05-19T09:34:57Z</time>
      </trkpt>
      <trkpt lat="44.78957" lon="-0.59705">
        <ele>22</ele>
        <time>2009-05-19T09:34:58Z</time>
      </trkpt>
      <trkpt lat="44.78957" lon="-0.59709">
        <ele>22</ele>
        <time>2009-05-19T09:34:59Z</time>
      </trkpt>
      <trkpt lat="44.78957" lon="-0.59713">
        <ele>22</ele>
        <time>2009-05-19T09:35:00Z</time>
      </trkpt>
      <trkpt lat="44.78957" lon="-0.59717">
        <ele>22</ele>
        <time>2009-05-19T09:35:01Z</time>
      </trkpt>
      <trkpt lat="44.78957" lon="-0.59721">
        <ele>22</ele>
        <time>2009-05-19T09:35:02Z</time>
      </trkpt>
      <trkpt lat="44.78956" lon="-0.59726">
        <ele>22</ele>
        <time>2009-05-19T09:35:03Z</time>
      </trkpt>
      <trkpt lat="44.78957" lon="-0.5973">
        <ele>22</ele>
        <time>2009-05-19T09:35:04Z</time>
      </trkpt>
      <trkpt lat="44.78958" lon="-0.59734">
        <ele>22</ele>
        <time>2009-05-19T09:35:05Z</time>
      </trkpt>
      <trkpt lat="44.78959" lon="-0.59737">
        <ele>22</ele>
        <time>2009-05-19T09:35:06Z</time>
      </trkpt>
      <trkpt lat="44.78959" lon="-0.59741">
        <ele>22</ele>
        <time>2009-05-19T09:35:07Z</time>
      </trkpt>
      <trkpt lat="44.7896" lon="-0.59745">
        <ele>22</ele>
        <time>2009-05-19T09:35:08Z</time>
      </trkpt>
      <trkpt lat="44.7896" lon="-0.5975">
        <ele>22</ele>
        <time>2009-05-19T09:35:09Z</time>
      </trkpt>
      <trkpt lat="44.7896" lon="-0.59754">
        <ele>22</ele>
        <time>2009-05-19T09:35:10Z</time>
      </trkpt>
      <trkpt lat="44.7896" lon="-0.59759">
        <ele>22</ele>
        <time>2009-05-19T09:35:11Z</time>
      </trkpt>
      <trkpt lat="44.78959" lon="-0.59762">
        <ele>22</ele>
        <time>2009-05-19T09:35:12Z</time>
      </trkpt>
      <trkpt lat="44.78959" lon="-0.59766">
        <ele>22</ele>
        <time>2009-05-19T09:35:13Z</time>
      </trkpt>
      <trkpt lat="44.78959" lon="-0.59769">
        <ele>22</ele>
        <time>2009-05-19T09:35:14Z</time>
      </trkpt>
      <trkpt lat="44.78958" lon="-0.59773">
        <ele>22</ele>
        <time>2009-05-19T09:35:15Z</time>
      </trkpt>
      <trkpt lat="44.78957" lon="-0.59777">
        <ele>22</ele>
        <time>2009-05-19T09:35:16Z</time>
      </trkpt>
      <trkpt lat="44.78956" lon="-0.59781">
        <ele>22</ele>
        <time>2009-05-19T09:35:17Z</time>
      </trkpt>
      <trkpt lat="44.78954" lon="-0.59784">
        <ele>22</ele>
        <time>2009-05-19T09:35:18Z</time>
      </trkpt>
      <trkpt lat="44.78953" lon="-0.59788">
        <ele>22</ele>
        <time>2009-05-19T09:35:19Z</time>
      </trkpt>
      <trkpt lat="44.78951" lon="-0.5979">
        <ele>22</ele>
        <time>2009-05-19T09:35:20Z</time>
      </trkpt>
      <trkpt lat="44.78949" lon="-0.59793">
        <ele>22</ele>
        <time>2009-05-19T09:35:21Z</time>
      </trkpt>
      <trkpt lat="44.78947" lon="-0.59794">
        <ele>22</ele>
        <time>2009-05-19T09:35:22Z</time>
      </trkpt>
      <trkpt lat="44.78945" lon="-0.59797">
        <ele>22</ele>
        <time>2009-05-19T09:35:23Z</time>
      </trkpt>
      <trkpt lat="44.78943" lon="-0.59799">
        <ele>22</ele>
        <time>2009-05-19T09:35:24Z</time>
      </trkpt>
      <trkpt lat="44.78941" lon="-0.59801">
        <ele>22</ele>
        <time>2009-05-19T09:35:25Z</time>
      </trkpt>
      <trkpt lat="44.78939" lon="-0.59803">
        <ele>22</ele>
        <time>2009-05-19T09:35:26Z</time>
      </trkpt>
      <trkpt lat="44.78938" lon="-0.59806">
        <ele>22</ele>
        <time>2009-05-19T09:35:27Z</time>
      </trkpt>
      <trkpt lat="44.78936" lon="-0.59808">
        <ele>22</ele>
        <time>2009-05-19T09:35:28Z</time>
      </trkpt>
      <trkpt lat="44.78934" lon="-0.59811">
        <ele>22</ele>
        <time>2009-05-19T09:35:29Z</time>
      </trkpt>
      <trkpt lat="44.78933" lon="-0.59813">
        <ele>22</ele>
        <time>2009-05-19T09:35:30Z</time>
      </trkpt>
      <trkpt lat="44.78931" lon="-0.59816">
        <ele>22</ele>
        <time>2009-05-19T09:35:31Z</time>
      </trkpt>
      <trkpt lat="44.78929" lon="-0.59819">
        <ele>22</ele>
        <time>2009-05-19T09:35:32Z</time>
      </trkpt>
      <trkpt lat="44.78928" lon="-0.59822">
        <ele>22</ele>
        <time>2009-05-19T09:35:33Z</time>
      </trkpt>
      <trkpt lat="44.78927" lon="-0.59824">
        <ele>22</ele>
        <time>2009-05-19T09:35:34Z</time>
      </trkpt>
      <trkpt lat="44.78925" lon="-0.59827">
        <ele>22</ele>
        <time>2009-05-19T09:35:35Z</time>
      </trkpt>
      <trkpt lat="44.78923" lon="-0.59829">
        <ele>22</ele>
        <time>2009-05-19T09:35:36Z</time>
      </trkpt>
      <trkpt lat="44.78922" lon="-0.59832">
        <ele>22</ele>
        <time>2009-05-19T09:35:37Z</time>
      </trkpt>
      <trkpt lat="44.7892" lon="-0.59835">
        <ele>22</ele>
        <time>2009-05-19T09:35:38Z</time>
      </trkpt>
      <trkpt lat="44.78919" lon="-0.59839">
        <ele>22</ele>
        <time>2009-05-19T09:35:39Z</time>
      </trkpt>
      <trkpt lat="44.78918" lon="-0.59842">
        <ele>22</ele>
        <time>2009-05-19T09:35:40Z</time>
      </trkpt>
      <trkpt lat="44.78918" lon="-0.59846">
        <ele>22</ele>
        <time>2009-05-19T09:35:41Z</time>
      </trkpt>
      <trkpt lat="44.78918" lon="-0.59849">
        <ele>22</ele>
        <time>2009-05-19T09:35:42Z</time>
      </trkpt>
      <trkpt lat="44.78918" lon="-0.59852">
        <ele>22</ele>
        <time>2009-05-19T09:35:43Z</time>
      </trkpt>
      <trkpt lat="44.78919" lon="-0.59856">
        <ele>22</ele>
        <time>2009-05-19T09:35:44Z</time>
      </trkpt>
      <trkpt lat="44.7892" lon="-0.5986">
        <ele>22</ele>
        <time>2009-05-19T09:35:45Z</time>
      </trkpt>
      <trkpt lat="44.78921" lon="-0.59863">
        <ele>22</ele>
        <time>2009-05-19T09:35:46Z</time>
      </trkpt>
      <trkpt lat="44.78923" lon="-0.59866">
        <ele>22</ele>
        <time>2009-05-19T09:35:47Z</time>
      </trkpt>
      <trkpt lat="44.78924" lon="-0.59869">
        <ele>22</ele>
        <time>2009-05-19T09:35:48Z</time>
      </trkpt>
      <trkpt lat="44.78926" lon="-0.59872">
        <ele>22</ele>
        <time>2009-05-19T09:35:49Z</time>
      </trkpt>
      <trkpt lat="44.78928" lon="-0.59874">
        <ele>22</ele>
        <time>2009-05-19T09:35:50Z</time>
      </trkpt>
      <trkpt lat="44.78931" lon="-0.59876">
        <ele>22</ele>
        <time>2009-05-19T09:35:51Z</time>
      </trkpt>
      <trkpt lat="44.78933" lon="-0.59876">
        <ele>22</ele>
        <time>2009-05-19T09:35:52Z</time>
      </trkpt>
      <trkpt lat="44.78936" lon="-0.59875">
        <ele>22</ele>
        <time>2009-05-19T09:35:53Z</time>
      </trkpt>
      <trkpt lat="44.78939" lon="-0.59874">
        <ele>22</ele>
        <time>2009-05-19T09:35:54Z</time>
      </trkpt>
      <trkpt lat="44.78942" lon="-0.59874">
        <ele>22</ele>
        <time>2009-05-19T09:35:55Z</time>
      </trkpt>
      <trkpt lat="44.78945" lon="-0.59872">
        <ele>22</ele>
        <time>2009-05-19T09:35:56Z</time>
      </trkpt>
      <trkpt lat="44.78948" lon="-0.59871">
        <ele>22</ele>
        <time>2009-05-19T09:35:57Z</time>
      </trkpt>
      <trkpt lat="44.7895" lon="-0.5987">
        <ele>22</ele>
        <time>2009-05-19T09:35:58Z</time>
      </trkpt>
      <trkpt lat="44.78953" lon="-0.59869">
        <ele>22</ele>
        <time>2009-05-19T09:35:59Z</time>
      </trkpt>
      <trkpt lat="44.78955" lon="-0.59868">
        <ele>22</ele>
        <time>2009-05-19T09:36:00Z</time>
      </trkpt>
      <trkpt lat="44.78958" lon="-0.59867">
        <ele>22</ele>
        <time>2009-05-19T09:36:01Z</time>
      </trkpt>
      <trkpt lat="44.7896" lon="-0.59866">
        <ele>22</ele>
        <time>2009-05-19T09:36:02Z</time>
      </trkpt>
      <trkpt lat="44.78962" lon="-0.59865">
        <ele>22</ele>
        <time>2009-05-19T09:36:03Z</time>
      </trkpt>
      <trkpt lat="44.78965" lon="-0.59864">
        <ele>22</ele>
        <time>2009-05-19T09:36:04Z</time>
      </trkpt>
      <trkpt lat="44.78967" lon="-0.59864">
        <ele>22</ele>
        <time>2009-05-19T09:36:05Z</time>
      </trkpt>
      <trkpt lat="44.78969" lon="-0.59863">
        <ele>22</ele>
        <time>2009-05-19T09:36:06Z</time>
      </trkpt>
      <trkpt lat="44.78972" lon="-0.59863">
        <ele>22</ele>
        <time>2009-05-19T09:36:07Z</time>
      </trkpt>
      <trkpt lat="44.78974" lon="-0.59862">
        <ele>22</ele>
        <time>2009-05-19T09:36:08Z</time>
      </trkpt>
      <trkpt lat="44.78976" lon="-0.59861">
        <ele>22</ele>
        <time>2009-05-19T09:36:09Z</time>
      </trkpt>
      <trkpt lat="44.78978" lon="-0.59861">
        <ele>22</ele>
        <time>2009-05-19T09:36:10Z</time>
      </trkpt>
      <trkpt lat="44.7898" lon="-0.59861">
        <ele>22</ele>
        <time>2009-05-19T09:36:11Z</time>
      </trkpt>
      <trkpt lat="44.78983" lon="-0.5986">
        <ele>22</ele>
        <time>2009-05-19T09:36:12Z</time>
      </trkpt>
      <trkpt lat="44.78986" lon="-0.59859">
        <ele>22</ele>
        <time>2009-05-19T09:36:13Z</time>
      </trkpt>
      <trkpt lat="44.78988" lon="-0.59859">
        <ele>22</ele>
        <time>2009-05-19T09:36:14Z</time>
      </trkpt>
      <trkpt lat="44.78991" lon="-0.59859">
        <ele>22</ele>
        <time>2009-05-19T09:36:15Z</time>
      </trkpt>
      <trkpt lat="44.78994" lon="-0.5986">
        <ele>22</ele>
        <time>2009-05-19T09:36:16Z</time>
      </trkpt>
      <trkpt lat="44.78997" lon="-0.59862">
        <ele>22</ele>
        <time>2009-05-19T09:36:17Z</time>
      </trkpt>
      <trkpt lat="44.78999" lon="-0.59864">
        <ele>22</ele>
        <time>2009-05-19T09:36:18Z</time>
      </trkpt>
      <trkpt lat="44.79001" lon="-0.59866">
        <ele>22</ele>
        <time>2009-05-19T09:36:19Z</time>
      </trkpt>
      <trkpt lat="44.79003" lon="-0.59868">
        <ele>22</ele>
        <time>2009-05-19T09:36:20Z</time>
      </trkpt>
      <trkpt lat="44.79005" lon="-0.59871">
        <ele>22</ele>
        <time>2009-05-19T09:36:21Z</time>
      </trkpt>
      <trkpt lat="44.79006" lon="-0.59875">
        <ele>22</ele>
        <time>2009-05-19T09:36:22Z</time>
      </trkpt>
      <trkpt lat="44.79007" lon="-0.59879">
        <ele>22</ele>
        <time>2009-05-19T09:36:23Z</time>
      </trkpt>
      <trkpt lat="44.79008" lon="-0.59882">
        <ele>22</ele>
        <time>2009-05-19T09:36:24Z</time>
      </trkpt>
      <trkpt lat="44.79009" lon="-0.59886">
        <ele>22</ele>
        <time>2009-05-19T09:36:25Z</time>
      </trkpt>
      <trkpt lat="44.7901" lon="-0.59889">
        <ele>22</ele>
        <time>2009-05-19T09:36:26Z</time>
      </trkpt>
      <trkpt lat="44.7901" lon="-0.59893">
        <ele>22</ele>
        <time>2009-05-19T09:36:27Z</time>
      </trkpt>
      <trkpt lat="44.79011" lon="-0.59896">
        <ele>22</ele>
        <time>2009-05-19T09:36:28Z</time>
      </trkpt>
      <trkpt lat="44.79012" lon="-0.59901">
        <ele>22</ele>
        <time>2009-05-19T09:36:29Z</time>
      </trkpt>
      <trkpt lat="44.79012" lon="-0.59905">
        <ele>22</ele>
        <time>2009-05-19T09:36:30Z</time>
      </trkpt>
      <trkpt lat="44.79013" lon="-0.59908">
        <ele>22</ele>
        <time>2009-05-19T09:36:31Z</time>
      </trkpt>
      <trkpt lat="44.79013" lon="-0.59912">
        <ele>22</ele>
        <time>2009-05-19T09:36:32Z</time>
      </trkpt>
      <trkpt lat="44.79014" lon="-0.59915">
        <ele>22</ele>
        <time>2009-05-19T09:36:33Z</time>
      </trkpt>
      <trkpt lat="44.79016" lon="-0.59919">
        <ele>22</ele>
        <time>2009-05-19T09:36:34Z</time>
      </trkpt>
      <trkpt lat="44.79018" lon="-0.59922">
        <ele>22</ele>
        <time>2009-05-19T09:36:35Z</time>
      </trkpt>
      <trkpt lat="44.79019" lon="-0.59925">
        <ele>22</ele>
        <time>2009-05-19T09:36:36Z</time>
      </trkpt>
      <trkpt lat="44.79021" lon="-0.59927">
        <ele>22</ele>
        <time>2009-05-19T09:36:37Z</time>
      </trkpt>
      <trkpt lat="44.79023" lon="-0.59929">
        <ele>22</ele>
        <time>2009-05-19T09:36:38Z</time>
      </trkpt>
      <trkpt lat="44.79025" lon="-0.5993">
        <ele>22</ele>
        <time>2009-05-19T09:36:39Z</time>
      </trkpt>
      <trkpt lat="44.79027" lon="-0.59933">
        <ele>22</ele>
        <time>2009-05-19T09:36:40Z</time>
      </trkpt>
      <trkpt lat="44.7903" lon="-0.59935">
        <ele>22</ele>
        <time>2009-05-19T09:36:41Z</time>
      </trkpt>
      <trkpt lat="44.79033" lon="-0.59937">
        <ele>22</ele>
        <time>2009-05-19T09:36:42Z</time>
      </trkpt>
      <trkpt lat="44.79037" lon="-0.59938">
        <ele>22</ele>
        <time>2009-05-19T09:36:43Z</time>
      </trkpt>
      <trkpt lat="44.7904" lon="-0.59939">
        <ele>22</ele>
        <time>2009-05-19T09:36:44Z</time>
      </trkpt>
      <trkpt lat="44.79042" lon="-0.59938">
        <ele>22</ele>
        <time>2009-05-19T09:36:45Z</time>
      </trkpt>
      <trkpt lat="44.79045" lon="-0.59937">
        <ele>22</ele>
        <time>2009-05-19T09:36:46Z</time>
      </trkpt>
      <trkpt lat="44.79049" lon="-0.59936">
        <ele>22</ele>
        <time>2009-05-19T09:36:47Z</time>
      </trkpt>
      <trkpt lat="44.79052" lon="-0.59935">
        <ele>22</ele>
        <time>2009-05-19T09:36:48Z</time>
      </trkpt>
      <trkpt lat="44.79054" lon="-0.59934">
        <ele>22</ele>
        <time>2009-05-19T09:36:49Z</time>
      </trkpt>
      <trkpt lat="44.79057" lon="-0.59932">
        <ele>22</ele>
        <time>2009-05-19T09:36:50Z</time>
      </trkpt>
      <trkpt lat="44.79059" lon="-0.5993">
        <ele>22</ele>
        <time>2009-05-19T09:36:51Z</time>
      </trkpt>
      <trkpt lat="44.79061" lon="-0.59928">
        <ele>22</ele>
        <time>2009-05-19T09:36:52Z</time>
      </trkpt>
      <trkpt lat="44.79064" lon="-0.59926">
        <ele>22</ele>
        <time>2009-05-19T09:36:53Z</time>
      </trkpt>
      <trkpt lat="44.79066" lon="-0.59924">
        <ele>22</ele>
        <time>2009-05-19T09:36:54Z</time>
      </trkpt>
      <trkpt lat="44.79069" lon="-0.59921">
        <ele>22</ele>
        <time>2009-05-19T09:36:55Z</time>
      </trkpt>
      <trkpt lat="44.79071" lon="-0.59919">
        <ele>22</ele>
        <time>2009-05-19T09:36:56Z</time>
      </trkpt>
      <trkpt lat="44.79073" lon="-0.59916">
        <ele>22</ele>
        <time>2009-05-19T09:36:57Z</time>
      </trkpt>
      <trkpt lat="44.79074" lon="-0.59913">
        <ele>22</ele>
        <time>2009-05-19T09:36:58Z</time>
      </trkpt>
      <trkpt lat="44.79074" lon="-0.5991">
        <ele>22</ele>
        <time>2009-05-19T09:36:59Z</time>
      </trkpt>
      <trkpt lat="44.79074" lon="-0.59907">
        <ele>22</ele>
        <time>2009-05-19T09:37:00Z</time>
      </trkpt>
      <trkpt lat="44.79074" lon="-0.59903">
        <ele>22</ele>
        <time>2009-05-19T09:37:01Z</time>
      </trkpt>
      <trkpt lat="44.79074" lon="-0.59899">
        <ele>22</ele>
        <time>2009-05-19T09:37:02Z</time>
      </trkpt>
      <trkpt lat="44.79075" lon="-0.59896">
        <ele>22</ele>
        <time>2009-05-19T09:37:03Z</time>
      </trkpt>
      <trkpt lat="44.79077" lon="-0.59893">
        <ele>22</ele>
        <time>2009-05-19T09:37:04Z</time>
      </trkpt>
      <trkpt lat="44.7908" lon="-0.59891">
        <ele>22</ele>
        <time>2009-05-19T09:37:05Z</time>
      </trkpt>
      <trkpt lat="44.79083" lon="-0.5989">
        <ele>22</ele>
        <time>2009-05-19T09:37:06Z</time>
      </trkpt>
      <trkpt lat="44.79085" lon="-0.59887">
        <ele>22</ele>
        <time>2009-05-19T09:37:07Z</time>
      </trkpt>
      <trkpt lat="44.79087" lon="-0.59884">
        <ele>22</ele>
        <time>2009-05-19T09:37:08Z</time>
      </trkpt>
      <trkpt lat="44.79089" lon="-0.59881">
        <ele>22</ele>
        <time>2009-05-19T09:37:09Z</time>
      </trkpt>
      <trkpt lat="44.79091" lon="-0.59878">
        <ele>22</ele>
        <time>2009-05-19T09:37:10Z</time>
      </trkpt>
      <trkpt lat="44.79093" lon="-0.59874">
        <ele>22</ele>
        <time>2009-05-19T09:37:11Z</time>
      </trkpt>
      <trkpt lat="44.79094" lon="-0.59871">
        <ele>22</ele>
        <time>2009-05-19T09:37:12Z</time>
      </trkpt>
      <trkpt lat="44.79095" lon="-0.59867">
        <ele>22</ele>
        <time>2009-05-19T09:37:13Z</time>
      </trkpt>
      <trkpt lat="44.79096" lon="-0.59864">
        <ele>22</ele>
        <time>2009-05-19T09:37:14Z</time>
      </trkpt>
      <trkpt lat="44.79097" lon="-0.5986">
        <ele>22</ele>
        <time>2009-05-19T09:37:15Z</time>
      </trkpt>
      <trkpt lat="44.79098" lon="-0.59856">
        <ele>22</ele>
        <time>2009-05-19T09:37:16Z</time>
      </trkpt>
      <trkpt lat="44.79098" lon="-0.59852">
        <ele>22</ele>
        <time>2009-05-19T09:37:17Z</time>
      </trkpt>
      <trkpt lat="44.79099" lon="-0.59848">
        <ele>22</ele>
        <time>2009-05-19T09:37:18Z</time>
      </trkpt>
      <trkpt lat="44.791" lon="-0.59845">
        <ele>22</ele>
        <time>2009-05-19T09:37:19Z</time>
      </trkpt>
      <trkpt lat="44.791" lon="-0.59841">
        <ele>22</ele>
        <time>2009-05-19T09:37:20Z</time>
      </trkpt>
      <trkpt lat="44.791" lon="-0.59837">
        <ele>22</ele>
        <time>2009-05-19T09:37:21Z</time>
      </trkpt>
      <trkpt lat="44.79099" lon="-0.59833">
        <ele>22</ele>
        <time>2009-05-19T09:37:22Z</time>
      </trkpt>
      <trkpt lat="44.79098" lon="-0.59829">
        <ele>22</ele>
        <time>2009-05-19T09:37:23Z</time>
      </trkpt>
      <trkpt lat="44.79097" lon="-0.59826">
        <ele>22</ele>
        <time>2009-05-19T09:37:24Z</time>
      </trkpt>
      <trkpt lat="44.79095" lon="-0.59823">
        <ele>23</ele>
        <time>2009-05-19T09:37:25Z</time>
      </trkpt>
      <trkpt lat="44.79094" lon="-0.59819">
        <ele>23</ele>
        <time>2009-05-19T09:37:26Z</time>
      </trkpt>
      <trkpt lat="44.79092" lon="-0.59816">
        <ele>23</ele>
        <time>2009-05-19T09:37:27Z</time>
      </trkpt>
      <trkpt lat="44.79091" lon="-0.59813">
        <ele>23</ele>
        <time>2009-05-19T09:37:28Z</time>
      </trkpt>
      <trkpt lat="44.7909" lon="-0.59809">
        <ele>23</ele>
        <time>2009-05-19T09:37:29Z</time>
      </trkpt>
      <trkpt lat="44.79089" lon="-0.59805">
        <ele>23</ele>
        <time>2009-05-19T09:37:30Z</time>
      </trkpt>
      <trkpt lat="44.79088" lon="-0.59803">
        <ele>23</ele>
        <time>2009-05-19T09:37:31Z</time>
      </trkpt>
      <trkpt lat="44.79086" lon="-0.598">
        <ele>23</ele>
        <time>2009-05-19T09:37:32Z</time>
      </trkpt>
      <trkpt lat="44.79085" lon="-0.59796">
        <ele>23</ele>
        <time>2009-05-19T09:37:33Z</time>
      </trkpt>
      <trkpt lat="44.79084" lon="-0.59792">
        <ele>23</ele>
        <time>2009-05-19T09:37:34Z</time>
      </trkpt>
      <trkpt lat="44.79083" lon="-0.59789">
        <ele>23</ele>
        <time>2009-05-19T09:37:35Z</time>
      </trkpt>
      <trkpt lat="44.79082" lon="-0.59786">
        <ele>23</ele>
        <time>2009-05-19T09:37:36Z</time>
      </trkpt>
      <trkpt lat="44.7908" lon="-0.59782">
        <ele>23</ele>
        <time>2009-05-19T09:37:37Z</time>
      </trkpt>
      <trkpt lat="44.79079" lon="-0.59779">
        <ele>23</ele>
        <time>2009-05-19T09:37:38Z</time>
      </trkpt>
      <trkpt lat="44.79078" lon="-0.59776">
        <ele>23</ele>
        <time>2009-05-19T09:37:39Z</time>
      </trkpt>
      <trkpt lat="44.79078" lon="-0.59772">
        <ele>23</ele>
        <time>2009-05-19T09:37:40Z</time>
      </trkpt>
      <trkpt lat="44.79076" lon="-0.59769">
        <ele>23</ele>
        <time>2009-05-19T09:37:41Z</time>
      </trkpt>
      <trkpt lat="44.79075" lon="-0.59765">
        <ele>23</ele>
        <time>2009-05-19T09:37:42Z</time>
      </trkpt>
      <trkpt lat="44.79074" lon="-0.59762">
        <ele>22</ele>
        <time>2009-05-19T09:37:43Z</time>
      </trkpt>
      <trkpt lat="44.79073" lon="-0.59759">
        <ele>22</ele>
        <time>2009-05-19T09:37:44Z</time>
      </trkpt>
      <trkpt lat="44.79072" lon="-0.59756">
        <ele>22</ele>
        <time>2009-05-19T09:37:45Z</time>
      </trkpt>
      <trkpt lat="44.79071" lon="-0.59753">
        <ele>22</ele>
        <time>2009-05-19T09:37:46Z</time>
      </trkpt>
      <trkpt lat="44.7907" lon="-0.59749">
        <ele>22</ele>
        <time>2009-05-19T09:37:47Z</time>
      </trkpt>
      <trkpt lat="44.79069" lon="-0.59745">
        <ele>21</ele>
        <time>2009-05-19T09:37:48Z</time>
      </trkpt>
      <trkpt lat="44.79069" lon="-0.59742">
        <ele>21</ele>
        <time>2009-05-19T09:37:49Z</time>
      </trkpt>
      <trkpt lat="44.79068" lon="-0.59739">
        <ele>21</ele>
        <time>2009-05-19T09:37:50Z</time>
      </trkpt>
      <trkpt lat="44.79067" lon="-0.59736">
        <ele>21</ele>
        <time>2009-05-19T09:37:51Z</time>
      </trkpt>
      <trkpt lat="44.79067" lon="-0.59733">
        <ele>21</ele>
        <time>2009-05-19T09:37:52Z</time>
      </trkpt>
      <trkpt lat="44.79066" lon="-0.59728">
        <ele>21</ele>
        <time>2009-05-19T09:37:53Z</time>
      </trkpt>
      <trkpt lat="44.79066" lon="-0.59724">
        <ele>21</ele>
        <time>2009-05-19T09:37:54Z</time>
      </trkpt>
      <trkpt lat="44.79065" lon="-0.5972">
        <ele>21</ele>
        <time>2009-05-19T09:37:55Z</time>
      </trkpt>
      <trkpt lat="44.79065" lon="-0.59716">
        <ele>21</ele>
        <time>2009-05-19T09:37:56Z</time>
      </trkpt>
      <trkpt lat="44.79065" lon="-0.59711">
        <ele>21</ele>
        <time>2009-05-19T09:37:57Z</time>
      </trkpt>
      <trkpt lat="44.79066" lon="-0.59708">
        <ele>21</ele>
        <time>2009-05-19T09:37:58Z</time>
      </trkpt>
      <trkpt lat="44.79066" lon="-0.59704">
        <ele>21</ele>
        <time>2009-05-19T09:37:59Z</time>
      </trkpt>
      <trkpt lat="44.79065" lon="-0.597">
        <ele>21</ele>
        <time>2009-05-19T09:38:00Z</time>
      </trkpt>
      <trkpt lat="44.79065" lon="-0.59697">
        <ele>21</ele>
        <time>2009-05-19T09:38:01Z</time>
      </trkpt>
      <trkpt lat="44.79064" lon="-0.59693">
        <ele>21</ele>
        <time>2009-05-19T09:38:02Z</time>
      </trkpt>
      <trkpt lat="44.79063" lon="-0.59689">
        <ele>21</ele>
        <time>2009-05-19T09:38:03Z</time>
      </trkpt>
      <trkpt lat="44.79061" lon="-0.59686">
        <ele>21</ele>
        <time>2009-05-19T09:38:04Z</time>
      </trkpt>
      <trkpt lat="44.79059" lon="-0.59682">
        <ele>21</ele>
        <time>2009-05-19T09:38:05Z</time>
      </trkpt>
      <trkpt lat="44.79057" lon="-0.59679">
        <ele>21</ele>
        <time>2009-05-19T09:38:06Z</time>
      </trkpt>
      <trkpt lat="44.79056" lon="-0.59676">
        <ele>21</ele>
        <time>2009-05-19T09:38:07Z</time>
      </trkpt>
      <trkpt lat="44.79054" lon="-0.59673">
        <ele>21</ele>
        <time>2009-05-19T09:38:08Z</time>
      </trkpt>
      <trkpt lat="44.79053" lon="-0.59669">
        <ele>21</ele>
        <time>2009-05-19T09:38:09Z</time>
      </trkpt>
      <trkpt lat="44.79052" lon="-0.59666">
        <ele>21</ele>
        <time>2009-05-19T09:38:10Z</time>
      </trkpt>
      <trkpt lat="44.7905" lon="-0.59662">
        <ele>21</ele>
        <time>2009-05-19T09:38:11Z</time>
      </trkpt>
      <trkpt lat="44.79049" lon="-0.59657">
        <ele>21</ele>
        <time>2009-05-19T09:38:12Z</time>
      </trkpt>
      <trkpt lat="44.79048" lon="-0.59653">
        <ele>21</ele>
        <time>2009-05-19T09:38:13Z</time>
      </trkpt>
      <trkpt lat="44.79048" lon="-0.59649">
        <ele>21</ele>
        <time>2009-05-19T09:38:14Z</time>
      </trkpt>
      <trkpt lat="44.79048" lon="-0.59645">
        <ele>22</ele>
        <time>2009-05-19T09:38:15Z</time>
      </trkpt>
      <trkpt lat="44.79048" lon="-0.59641">
        <ele>22</ele>
        <time>2009-05-19T09:38:16Z</time>
      </trkpt>
      <trkpt lat="44.79048" lon="-0.59637">
        <ele>22</ele>
        <time>2009-05-19T09:38:17Z</time>
      </trkpt>
      <trkpt lat="44.79047" lon="-0.59633">
        <ele>22</ele>
        <time>2009-05-19T09:38:18Z</time>
      </trkpt>
      <trkpt lat="44.79048" lon="-0.5963">
        <ele>22</ele>
        <time>2009-05-19T09:38:19Z</time>
      </trkpt>
      <trkpt lat="44.79048" lon="-0.59626">
        <ele>22</ele>
        <time>2009-05-19T09:38:20Z</time>
      </trkpt>
      <trkpt lat="44.79048" lon="-0.59622">
        <ele>22</ele>
        <time>2009-05-19T09:38:21Z</time>
      </trkpt>
      <trkpt lat="44.79048" lon="-0.59618">
        <ele>22</ele>
        <time>2009-05-19T09:38:22Z</time>
      </trkpt>
      <trkpt lat="44.79048" lon="-0.59614">
        <ele>22</ele>
        <time>2009-05-19T09:38:23Z</time>
      </trkpt>
      <trkpt lat="44.79047" lon="-0.5961">
        <ele>22</ele>
        <time>2009-05-19T09:38:24Z</time>
      </trkpt>
      <trkpt lat="44.79047" lon="-0.59606">
        <ele>22</ele>
        <time>2009-05-19T09:38:25Z</time>
      </trkpt>
      <trkpt lat="44.79047" lon="-0.59602">
        <ele>22</ele>
        <time>2009-05-19T09:38:26Z</time>
      </trkpt>
      <trkpt lat="44.79047" lon="-0.59599">
        <ele>22</ele>
        <time>2009-05-19T09:38:27Z</time>
      </trkpt>
      <trkpt lat="44.79047" lon="-0.59596">
        <ele>22</ele>
        <time>2009-05-19T09:38:28Z</time>
      </trkpt>
      <trkpt lat="44.79047" lon="-0.59593">
        <ele>22</ele>
        <time>2009-05-19T09:38:29Z</time>
      </trkpt>
      <trkpt lat="44.79048" lon="-0.59589">
        <ele>23</ele>
        <time>2009-05-19T09:38:30Z</time>
      </trkpt>
      <trkpt lat="44.79049" lon="-0.59586">
        <ele>23</ele>
        <time>2009-05-19T09:38:31Z</time>
      </trkpt>
      <trkpt lat="44.7905" lon="-0.59582">
        <ele>23</ele>
        <time>2009-05-19T09:38:32Z</time>
      </trkpt>
      <trkpt lat="44.79051" lon="-0.59578">
        <ele>24</ele>
        <time>2009-05-19T09:38:33Z</time>
      </trkpt>
      <trkpt lat="44.79052" lon="-0.59575">
        <ele>24</ele>
        <time>2009-05-19T09:38:34Z</time>
      </trkpt>
      <trkpt lat="44.79053" lon="-0.59571">
        <ele>24</ele>
        <time>2009-05-19T09:38:35Z</time>
      </trkpt>
      <trkpt lat="44.79053" lon="-0.59568">
        <ele>24</ele>
        <time>2009-05-19T09:38:36Z</time>
      </trkpt>
      <trkpt lat="44.79053" lon="-0.59564">
        <ele>24</ele>
        <time>2009-05-19T09:38:37Z</time>
      </trkpt>
      <trkpt lat="44.79054" lon="-0.5956">
        <ele>24</ele>
        <time>2009-05-19T09:38:38Z</time>
      </trkpt>
      <trkpt lat="44.79055" lon="-0.59557">
        <ele>24</ele>
        <time>2009-05-19T09:38:39Z</time>
      </trkpt>
      <trkpt lat="44.79055" lon="-0.59553">
        <ele>24</ele>
        <time>2009-05-19T09:38:40Z</time>
      </trkpt>
      <trkpt lat="44.79056" lon="-0.5955">
        <ele>24</ele>
        <time>2009-05-19T09:38:41Z</time>
      </trkpt>
      <trkpt lat="44.79057" lon="-0.59546">
        <ele>24</ele>
        <time>2009-05-19T09:38:42Z</time>
      </trkpt>
      <trkpt lat="44.79059" lon="-0.59542">
        <ele>24</ele>
        <time>2009-05-19T09:38:43Z</time>
      </trkpt>
      <trkpt lat="44.7906" lon="-0.59538">
        <ele>24</ele>
        <time>2009-05-19T09:38:44Z</time>
      </trkpt>
      <trkpt lat="44.79062" lon="-0.59534">
        <ele>24</ele>
        <time>2009-05-19T09:38:45Z</time>
      </trkpt>
      <trkpt lat="44.79063" lon="-0.5953">
        <ele>24</ele>
        <time>2009-05-19T09:38:46Z</time>
      </trkpt>
      <trkpt lat="44.79064" lon="-0.59527">
        <ele>24</ele>
        <time>2009-05-19T09:38:47Z</time>
      </trkpt>
      <trkpt lat="44.79065" lon="-0.59524">
        <ele>24</ele>
        <time>2009-05-19T09:38:48Z</time>
      </trkpt>
      <trkpt lat="44.79067" lon="-0.5952">
        <ele>24</ele>
        <time>2009-05-19T09:38:49Z</time>
      </trkpt>
      <trkpt lat="44.79068" lon="-0.59516">
        <ele>24</ele>
        <time>2009-05-19T09:38:50Z</time>
      </trkpt>
      <trkpt lat="44.79069" lon="-0.59512">
        <ele>24</ele>
        <time>2009-05-19T09:38:51Z</time>
      </trkpt>
      <trkpt lat="44.79071" lon="-0.59509">
        <ele>24</ele>
        <time>2009-05-19T09:38:52Z</time>
      </trkpt>
      <trkpt lat="44.79073" lon="-0.59505">
        <ele>24</ele>
        <time>2009-05-19T09:38:53Z</time>
      </trkpt>
      <trkpt lat="44.79074" lon="-0.59502">
        <ele>24</ele>
        <time>2009-05-19T09:38:54Z</time>
      </trkpt>
      <trkpt lat="44.79075" lon="-0.59498">
        <ele>24</ele>
        <time>2009-05-19T09:38:55Z</time>
      </trkpt>
      <trkpt lat="44.79076" lon="-0.59494">
        <ele>24</ele>
        <time>2009-05-19T09:38:56Z</time>
      </trkpt>
      <trkpt lat="44.79078" lon="-0.59491">
        <ele>24</ele>
        <time>2009-05-19T09:38:57Z</time>
      </trkpt>
      <trkpt lat="44.79079" lon="-0.59487">
        <ele>24</ele>
        <time>2009-05-19T09:38:58Z</time>
      </trkpt>
      <trkpt lat="44.7908" lon="-0.59482">
        <ele>23</ele>
        <time>2009-05-19T09:38:59Z</time>
      </trkpt>
      <trkpt lat="44.79082" lon="-0.59478">
        <ele>23</ele>
        <time>2009-05-19T09:39:00Z</time>
      </trkpt>
      <trkpt lat="44.79083" lon="-0.59474">
        <ele>23</ele>
        <time>2009-05-19T09:39:01Z</time>
      </trkpt>
      <trkpt lat="44.79084" lon="-0.5947">
        <ele>22</ele>
        <time>2009-05-19T09:39:02Z</time>
      </trkpt>
      <trkpt lat="44.79085" lon="-0.59467">
        <ele>22</ele>
        <time>2009-05-19T09:39:03Z</time>
      </trkpt>
      <trkpt lat="44.79086" lon="-0.59464">
        <ele>22</ele>
        <time>2009-05-19T09:39:04Z</time>
      </trkpt>
      <trkpt lat="44.79087" lon="-0.5946">
        <ele>22</ele>
        <time>2009-05-19T09:39:05Z</time>
      </trkpt>
      <trkpt lat="44.79088" lon="-0.59456">
        <ele>22</ele>
        <time>2009-05-19T09:39:06Z</time>
      </trkpt>
      <trkpt lat="44.79088" lon="-0.59452">
        <ele>21</ele>
        <time>2009-05-19T09:39:07Z</time>
      </trkpt>
      <trkpt lat="44.79086" lon="-0.59448">
        <ele>21</ele>
        <time>2009-05-19T09:39:08Z</time>
      </trkpt>
      <trkpt lat="44.79084" lon="-0.59444">
        <ele>20</ele>
        <time>2009-05-19T09:39:09Z</time>
      </trkpt>
      <trkpt lat="44.79082" lon="-0.59442">
        <ele>20</ele>
        <time>2009-05-19T09:39:10Z</time>
      </trkpt>
      <trkpt lat="44.7908" lon="-0.5944">
        <ele>20</ele>
        <time>2009-05-19T09:39:11Z</time>
      </trkpt>
      <trkpt lat="44.79077" lon="-0.5944">
        <ele>20</ele>
        <time>2009-05-19T09:39:12Z</time>
      </trkpt>
      <trkpt lat="44.79074" lon="-0.5944">
        <ele>20</ele>
        <time>2009-05-19T09:39:13Z</time>
      </trkpt>
      <trkpt lat="44.79072" lon="-0.59441">
        <ele>20</ele>
        <time>2009-05-19T09:39:14Z</time>
      </trkpt>
      <trkpt lat="44.79068" lon="-0.59441">
        <ele>20</ele>
        <time>2009-05-19T09:39:14Z</time>
      </trkpt>
      <trkpt lat="44.79065" lon="-0.59441">
        <ele>20</ele>
        <time>2009-05-19T09:39:16Z</time>
      </trkpt>
      <trkpt lat="44.79062" lon="-0.59442">
        <ele>20</ele>
        <time>2009-05-19T09:39:17Z</time>
      </trkpt>
      <trkpt lat="44.79059" lon="-0.59443">
        <ele>20</ele>
        <time>2009-05-19T09:39:18Z</time>
      </trkpt>
      <trkpt lat="44.79056" lon="-0.59444">
        <ele>20</ele>
        <time>2009-05-19T09:39:19Z</time>
      </trkpt>
      <trkpt lat="44.79053" lon="-0.59445">
        <ele>20</ele>
        <time>2009-05-19T09:39:20Z</time>
      </trkpt>
      <trkpt lat="44.79051" lon="-0.59446">
        <ele>20</ele>
        <time>2009-05-19T09:39:21Z</time>
      </trkpt>
      <trkpt lat="44.79048" lon="-0.59446">
        <ele>20</ele>
        <time>2009-05-19T09:39:22Z</time>
      </trkpt>
      <trkpt lat="44.79045" lon="-0.59446">
        <ele>20</ele>
        <time>2009-05-19T09:39:23Z</time>
      </trkpt>
      <trkpt lat="44.79042" lon="-0.59447">
        <ele>20</ele>
        <time>2009-05-19T09:39:24Z</time>
      </trkpt>
      <trkpt lat="44.79039" lon="-0.59447">
        <ele>20</ele>
        <time>2009-05-19T09:39:25Z</time>
      </trkpt>
      <trkpt lat="44.79036" lon="-0.59447">
        <ele>20</ele>
        <time>2009-05-19T09:39:26Z</time>
      </trkpt>
      <trkpt lat="44.79033" lon="-0.59446">
        <ele>20</ele>
        <time>2009-05-19T09:39:27Z</time>
      </trkpt>
      <trkpt lat="44.7903" lon="-0.59445">
        <ele>20</ele>
        <time>2009-05-19T09:39:28Z</time>
      </trkpt>
      <trkpt lat="44.79027" lon="-0.59446">
        <ele>20</ele>
        <time>2009-05-19T09:39:29Z</time>
      </trkpt>
      <trkpt lat="44.79024" lon="-0.59447">
        <ele>21</ele>
        <time>2009-05-19T09:39:30Z</time>
      </trkpt>
      <trkpt lat="44.79022" lon="-0.5945">
        <ele>21</ele>
        <time>2009-05-19T09:39:31Z</time>
      </trkpt>
      <trkpt lat="44.7902" lon="-0.59453">
        <ele>21</ele>
        <time>2009-05-19T09:39:32Z</time>
      </trkpt>
      <trkpt lat="44.79019" lon="-0.59458">
        <ele>21</ele>
        <time>2009-05-19T09:39:33Z</time>
      </trkpt>
      <trkpt lat="44.79019" lon="-0.59462">
        <ele>21</ele>
        <time>2009-05-19T09:39:34Z</time>
      </trkpt>
      <trkpt lat="44.7902" lon="-0.59466">
        <ele>21</ele>
        <time>2009-05-19T09:39:35Z</time>
      </trkpt>
      <trkpt lat="44.7902" lon="-0.5947">
        <ele>21</ele>
        <time>2009-05-19T09:39:36Z</time>
      </trkpt>
      <trkpt lat="44.79021" lon="-0.59474">
        <ele>21</ele>
        <time>2009-05-19T09:39:37Z</time>
      </trkpt>
      <trkpt lat="44.79022" lon="-0.59477">
        <ele>21</ele>
        <time>2009-05-19T09:39:38Z</time>
      </trkpt>
      <trkpt lat="44.79022" lon="-0.59481">
        <ele>21</ele>
        <time>2009-05-19T09:39:39Z</time>
      </trkpt>
      <trkpt lat="44.79023" lon="-0.59485">
        <ele>21</ele>
        <time>2009-05-19T09:39:40Z</time>
      </trkpt>
      <trkpt lat="44.79024" lon="-0.59488">
        <ele>21</ele>
        <time>2009-05-19T09:39:41Z</time>
      </trkpt>
      <trkpt lat="44.79025" lon="-0.59491">
        <ele>21</ele>
        <time>2009-05-19T09:39:42Z</time>
      </trkpt>
      <trkpt lat="44.79026" lon="-0.59495">
        <ele>21</ele>
        <time>2009-05-19T09:39:43Z</time>
      </trkpt>
      <trkpt lat="44.79027" lon="-0.59499">
        <ele>21</ele>
        <time>2009-05-19T09:39:44Z</time>
      </trkpt>
      <trkpt lat="44.79027" lon="-0.59502">
        <ele>21</ele>
        <time>2009-05-19T09:39:45Z</time>
      </trkpt>
      <trkpt lat="44.79028" lon="-0.59506">
        <ele>21</ele>
        <time>2009-05-19T09:39:46Z</time>
      </trkpt>
      <trkpt lat="44.79028" lon="-0.5951">
        <ele>21</ele>
        <time>2009-05-19T09:39:47Z</time>
      </trkpt>
      <trkpt lat="44.79028" lon="-0.59514">
        <ele>21</ele>
        <time>2009-05-19T09:39:48Z</time>
      </trkpt>
      <trkpt lat="44.79028" lon="-0.59518">
        <ele>21</ele>
        <time>2009-05-19T09:39:49Z</time>
      </trkpt>
      <trkpt lat="44.79028" lon="-0.59521">
        <ele>21</ele>
        <time>2009-05-19T09:39:50Z</time>
      </trkpt>
      <trkpt lat="44.79028" lon="-0.59525">
        <ele>21</ele>
        <time>2009-05-19T09:39:51Z</time>
      </trkpt>
      <trkpt lat="44.79028" lon="-0.59528">
        <ele>21</ele>
        <time>2009-05-19T09:39:52Z</time>
      </trkpt>
      <trkpt lat="44.79028" lon="-0.59532">
        <ele>21</ele>
        <time>2009-05-19T09:39:53Z</time>
      </trkpt>
      <trkpt lat="44.79029" lon="-0.59536">
        <ele>21</ele>
        <time>2009-05-19T09:39:54Z</time>
      </trkpt>
      <trkpt lat="44.79029" lon="-0.59539">
        <ele>21</ele>
        <time>2009-05-19T09:39:55Z</time>
      </trkpt>
      <trkpt lat="44.7903" lon="-0.59542">
        <ele>21</ele>
        <time>2009-05-19T09:39:56Z</time>
      </trkpt>
      <trkpt lat="44.7903" lon="-0.59545">
        <ele>21</ele>
        <time>2009-05-19T09:39:57Z</time>
      </trkpt>
      <trkpt lat="44.79031" lon="-0.59548">
        <ele>21</ele>
        <time>2009-05-19T09:39:58Z</time>
      </trkpt>
      <trkpt lat="44.79031" lon="-0.59552">
        <ele>21</ele>
        <time>2009-05-19T09:39:59Z</time>
      </trkpt>
      <trkpt lat="44.79031" lon="-0.59556">
        <ele>21</ele>
        <time>2009-05-19T09:40:00Z</time>
      </trkpt>
      <trkpt lat="44.79032" lon="-0.5956">
        <ele>21</ele>
        <time>2009-05-19T09:40:01Z</time>
      </trkpt>
      <trkpt lat="44.79032" lon="-0.59564">
        <ele>21</ele>
        <time>2009-05-19T09:40:02Z</time>
      </trkpt>
      <trkpt lat="44.79033" lon="-0.59568">
        <ele>21</ele>
        <time>2009-05-19T09:40:03Z</time>
      </trkpt>
      <trkpt lat="44.79033" lon="-0.59572">
        <ele>21</ele>
        <time>2009-05-19T09:40:04Z</time>
      </trkpt>
      <trkpt lat="44.79034" lon="-0.59576">
        <ele>21</ele>
        <time>2009-05-19T09:40:05Z</time>
      </trkpt>
      <trkpt lat="44.79034" lon="-0.59581">
        <ele>21</ele>
        <time>2009-05-19T09:40:05Z</time>
      </trkpt>
      <trkpt lat="44.79034" lon="-0.59585">
        <ele>21</ele>
        <time>2009-05-19T09:40:07Z</time>
      </trkpt>
      <trkpt lat="44.79035" lon="-0.59589">
        <ele>21</ele>
        <time>2009-05-19T09:40:08Z</time>
      </trkpt>
      <trkpt lat="44.79035" lon="-0.59592">
        <ele>21</ele>
        <time>2009-05-19T09:40:09Z</time>
      </trkpt>
      <trkpt lat="44.79034" lon="-0.59596">
        <ele>21</ele>
        <time>2009-05-19T09:40:10Z</time>
      </trkpt>
      <trkpt lat="44.79033" lon="-0.59599">
        <ele>21</ele>
        <time>2009-05-19T09:40:11Z</time>
      </trkpt>
      <trkpt lat="44.79031" lon="-0.596">
        <ele>21</ele>
        <time>2009-05-19T09:40:12Z</time>
      </trkpt>
      <trkpt lat="44.79029" lon="-0.596">
        <ele>21</ele>
        <time>2009-05-19T09:40:13Z</time>
      </trkpt>
      <trkpt lat="44.79027" lon="-0.59599">
        <ele>21</ele>
        <time>2009-05-19T09:40:14Z</time>
      </trkpt>
      <trkpt lat="44.79025" lon="-0.59597">
        <ele>21</ele>
        <time>2009-05-19T09:40:15Z</time>
      </trkpt>
      <trkpt lat="44.79022" lon="-0.59596">
        <ele>21</ele>
        <time>2009-05-19T09:40:16Z</time>
      </trkpt>
      <trkpt lat="44.79019" lon="-0.59594">
        <ele>21</ele>
        <time>2009-05-19T09:40:17Z</time>
      </trkpt>
      <trkpt lat="44.79017" lon="-0.59592">
        <ele>21</ele>
        <time>2009-05-19T09:40:18Z</time>
      </trkpt>
      <trkpt lat="44.79015" lon="-0.5959">
        <ele>21</ele>
        <time>2009-05-19T09:40:19Z</time>
      </trkpt>
      <trkpt lat="44.79013" lon="-0.59589">
        <ele>21</ele>
        <time>2009-05-19T09:40:20Z</time>
      </trkpt>
      <trkpt lat="44.79011" lon="-0.59588">
        <ele>21</ele>
        <time>2009-05-19T09:40:21Z</time>
      </trkpt>
      <trkpt lat="44.79008" lon="-0.59586">
        <ele>21</ele>
        <time>2009-05-19T09:40:22Z</time>
      </trkpt>
      <trkpt lat="44.79006" lon="-0.59584">
        <ele>21</ele>
        <time>2009-05-19T09:40:23Z</time>
      </trkpt>
      <trkpt lat="44.79003" lon="-0.59581">
        <ele>21</ele>
        <time>2009-05-19T09:40:24Z</time>
      </trkpt>
      <trkpt lat="44.79001" lon="-0.59579">
        <ele>21</ele>
        <time>2009-05-19T09:40:25Z</time>
      </trkpt>
      <trkpt lat="44.78998" lon="-0.59577">
        <ele>21</ele>
        <time>2009-05-19T09:40:26Z</time>
      </trkpt>
      <trkpt lat="44.78996" lon="-0.59574">
        <ele>21</ele>
        <time>2009-05-19T09:40:27Z</time>
      </trkpt>
      <trkpt lat="44.78994" lon="-0.59572">
        <ele>21</ele>
        <time>2009-05-19T09:40:28Z</time>
      </trkpt>
      <trkpt lat="44.78991" lon="-0.5957">
        <ele>21</ele>
        <time>2009-05-19T09:40:29Z</time>
      </trkpt>
      <trkpt lat="44.78989" lon="-0.59567">
        <ele>21</ele>
        <time>2009-05-19T09:40:30Z</time>
      </trkpt>
      <trkpt lat="44.78986" lon="-0.59565">
        <ele>21</ele>
        <time>2009-05-19T09:40:31Z</time>
      </trkpt>
      <trkpt lat="44.78984" lon="-0.59562">
        <ele>21</ele>
        <time>2009-05-19T09:40:32Z</time>
      </trkpt>
      <trkpt lat="44.78982" lon="-0.59559">
        <ele>21</ele>
        <time>2009-05-19T09:40:33Z</time>
      </trkpt>
      <trkpt lat="44.7898" lon="-0.59557">
        <ele>21</ele>
        <time>2009-05-19T09:40:34Z</time>
      </trkpt>
      <trkpt lat="44.78978" lon="-0.59555">
        <ele>21</ele>
        <time>2009-05-19T09:40:35Z</time>
      </trkpt>
      <trkpt lat="44.78975" lon="-0.59553">
        <ele>21</ele>
        <time>2009-05-19T09:40:36Z</time>
      </trkpt>
      <trkpt lat="44.78972" lon="-0.59553">
        <ele>21</ele>
        <time>2009-05-19T09:40:37Z</time>
      </trkpt>
      <trkpt lat="44.78969" lon="-0.59551">
        <ele>21</ele>
        <time>2009-05-19T09:40:38Z</time>
      </trkpt>
      <trkpt lat="44.78967" lon="-0.5955">
        <ele>21</ele>
        <time>2009-05-19T09:40:39Z</time>
      </trkpt>
      <trkpt lat="44.78965" lon="-0.59547">
        <ele>21</ele>
        <time>2009-05-19T09:40:40Z</time>
      </trkpt>
      <trkpt lat="44.78965" lon="-0.59542">
        <ele>21</ele>
        <time>2009-05-19T09:40:41Z</time>
      </trkpt>
      <trkpt lat="44.78963" lon="-0.59538">
        <ele>21</ele>
        <time>2009-05-19T09:40:42Z</time>
      </trkpt>
      <trkpt lat="44.78961" lon="-0.59535">
        <ele>21</ele>
        <time>2009-05-19T09:40:43Z</time>
      </trkpt>
      <trkpt lat="44.7896" lon="-0.59531">
        <ele>21</ele>
        <time>2009-05-19T09:40:44Z</time>
      </trkpt>
      <trkpt lat="44.78957" lon="-0.59528">
        <ele>21</ele>
        <time>2009-05-19T09:40:45Z</time>
      </trkpt>
      <trkpt lat="44.78955" lon="-0.59524">
        <ele>21</ele>
        <time>2009-05-19T09:40:46Z</time>
      </trkpt>
      <trkpt lat="44.78953" lon="-0.5952">
        <ele>21</ele>
        <time>2009-05-19T09:40:47Z</time>
      </trkpt>
      <trkpt lat="44.78952" lon="-0.59517">
        <ele>21</ele>
        <time>2009-05-19T09:40:48Z</time>
      </trkpt>
      <trkpt lat="44.7895" lon="-0.59514">
        <ele>21</ele>
        <time>2009-05-19T09:40:49Z</time>
      </trkpt>
      <trkpt lat="44.78949" lon="-0.5951">
        <ele>21</ele>
        <time>2009-05-19T09:40:50Z</time>
      </trkpt>
      <trkpt lat="44.78947" lon="-0.59507">
        <ele>21</ele>
        <time>2009-05-19T09:40:51Z</time>
      </trkpt>
      <trkpt lat="44.78945" lon="-0.59503">
        <ele>21</ele>
        <time>2009-05-19T09:40:52Z</time>
      </trkpt>
      <trkpt lat="44.78944" lon="-0.595">
        <ele>21</ele>
        <time>2009-05-19T09:40:53Z</time>
      </trkpt>
      <trkpt lat="44.78943" lon="-0.59497">
        <ele>21</ele>
        <time>2009-05-19T09:40:54Z</time>
      </trkpt>
      <trkpt lat="44.78943" lon="-0.59493">
        <ele>21</ele>
        <time>2009-05-19T09:40:55Z</time>
      </trkpt>
      <trkpt lat="44.78943" lon="-0.59491">
        <ele>21</ele>
        <time>2009-05-19T09:40:56Z</time>
      </trkpt>
      <trkpt lat="44.78943" lon="-0.59487">
        <ele>21</ele>
        <time>2009-05-19T09:40:57Z</time>
      </trkpt>
      <trkpt lat="44.78943" lon="-0.59483">
        <ele>21</ele>
        <time>2009-05-19T09:40:58Z</time>
      </trkpt>
      <trkpt lat="44.78943" lon="-0.5948">
        <ele>21</ele>
        <time>2009-05-19T09:40:59Z</time>
      </trkpt>
      <trkpt lat="44.78943" lon="-0.59477">
        <ele>21</ele>
        <time>2009-05-19T09:41:00Z</time>
      </trkpt>
      <trkpt lat="44.78943" lon="-0.59474">
        <ele>21</ele>
        <time>2009-05-19T09:41:00Z</time>
      </trkpt>
      <trkpt lat="44.78943" lon="-0.5947">
        <ele>21</ele>
        <time>2009-05-19T09:41:02Z</time>
      </trkpt>
      <trkpt lat="44.78943" lon="-0.59466">
        <ele>21</ele>
        <time>2009-05-19T09:41:03Z</time>
      </trkpt>
      <trkpt lat="44.78943" lon="-0.59462">
        <ele>21</ele>
        <time>2009-05-19T09:41:04Z</time>
      </trkpt>
      <trkpt lat="44.78943" lon="-0.59459">
        <ele>21</ele>
        <time>2009-05-19T09:41:05Z</time>
      </trkpt>
      <trkpt lat="44.78942" lon="-0.59455">
        <ele>21</ele>
        <time>2009-05-19T09:41:06Z</time>
      </trkpt>
      <trkpt lat="44.78942" lon="-0.59452">
        <ele>21</ele>
        <time>2009-05-19T09:41:07Z</time>
      </trkpt>
      <trkpt lat="44.78942" lon="-0.59448">
        <ele>21</ele>
        <time>2009-05-19T09:41:08Z</time>
      </trkpt>
      <trkpt lat="44.78942" lon="-0.59444">
        <ele>21</ele>
        <time>2009-05-19T09:41:09Z</time>
      </trkpt>
      <trkpt lat="44.78941" lon="-0.5944">
        <ele>21</ele>
        <time>2009-05-19T09:41:10Z</time>
      </trkpt>
      <trkpt lat="44.78941" lon="-0.59436">
        <ele>21</ele>
        <time>2009-05-19T09:41:11Z</time>
      </trkpt>
      <trkpt lat="44.78941" lon="-0.59433">
        <ele>21</ele>
        <time>2009-05-19T09:41:12Z</time>
      </trkpt>
      <trkpt lat="44.78941" lon="-0.59429">
        <ele>21</ele>
        <time>2009-05-19T09:41:12Z</time>
      </trkpt>
      <trkpt lat="44.78941" lon="-0.59426">
        <ele>21</ele>
        <time>2009-05-19T09:41:14Z</time>
      </trkpt>
      <trkpt lat="44.7894" lon="-0.59422">
        <ele>21</ele>
        <time>2009-05-19T09:41:15Z</time>
      </trkpt>
      <trkpt lat="44.7894" lon="-0.59418">
        <ele>21</ele>
        <time>2009-05-19T09:41:16Z</time>
      </trkpt>
      <trkpt lat="44.7894" lon="-0.59414">
        <ele>21</ele>
        <time>2009-05-19T09:41:17Z</time>
      </trkpt>
      <trkpt lat="44.78939" lon="-0.59411">
        <ele>21</ele>
        <time>2009-05-19T09:41:18Z</time>
      </trkpt>
      <trkpt lat="44.78938" lon="-0.59407">
        <ele>21</ele>
        <time>2009-05-19T09:41:19Z</time>
      </trkpt>
      <trkpt lat="44.78937" lon="-0.59404">
        <ele>21</ele>
        <time>2009-05-19T09:41:20Z</time>
      </trkpt>
      <trkpt lat="44.78937" lon="-0.594">
        <ele>21</ele>
        <time>2009-05-19T09:41:21Z</time>
      </trkpt>
      <trkpt lat="44.78937" lon="-0.59396">
        <ele>21</ele>
        <time>2009-05-19T09:41:22Z</time>
      </trkpt>
      <trkpt lat="44.78936" lon="-0.59392">
        <ele>21</ele>
        <time>2009-05-19T09:41:23Z</time>
      </trkpt>
      <trkpt lat="44.78936" lon="-0.59388">
        <ele>21</ele>
        <time>2009-05-19T09:41:24Z</time>
      </trkpt>
      <trkpt lat="44.78936" lon="-0.59384">
        <ele>21</ele>
        <time>2009-05-19T09:41:25Z</time>
      </trkpt>
      <trkpt lat="44.78935" lon="-0.5938">
        <ele>21</ele>
        <time>2009-05-19T09:41:26Z</time>
      </trkpt>
      <trkpt lat="44.78935" lon="-0.59376">
        <ele>21</ele>
        <time>2009-05-19T09:41:27Z</time>
      </trkpt>
      <trkpt lat="44.78935" lon="-0.59372">
        <ele>21</ele>
        <time>2009-05-19T09:41:28Z</time>
      </trkpt>
      <trkpt lat="44.78935" lon="-0.59369">
        <ele>21</ele>
        <time>2009-05-19T09:41:29Z</time>
      </trkpt>
      <trkpt lat="44.78935" lon="-0.59365">
        <ele>21</ele>
        <time>2009-05-19T09:41:30Z</time>
      </trkpt>
      <trkpt lat="44.78934" lon="-0.59361">
        <ele>21</ele>
        <time>2009-05-19T09:41:31Z</time>
      </trkpt>
      <trkpt lat="44.78934" lon="-0.59357">
        <ele>21</ele>
        <time>2009-05-19T09:41:32Z</time>
      </trkpt>
      <trkpt lat="44.78934" lon="-0.59353">
        <ele>21</ele>
        <time>2009-05-19T09:41:33Z</time>
      </trkpt>
      <trkpt lat="44.78934" lon="-0.59349">
        <ele>21</ele>
        <time>2009-05-19T09:41:34Z</time>
      </trkpt>
      <trkpt lat="44.78934" lon="-0.59345">
        <ele>21</ele>
        <time>2009-05-19T09:41:35Z</time>
      </trkpt>
      <trkpt lat="44.78935" lon="-0.59342">
        <ele>21</ele>
        <time>2009-05-19T09:41:36Z</time>
      </trkpt>
      <trkpt lat="44.78937" lon="-0.5934">
        <ele>21</ele>
        <time>2009-05-19T09:41:37Z</time>
      </trkpt>
      <trkpt lat="44.7894" lon="-0.5934">
        <ele>21</ele>
        <time>2009-05-19T09:41:38Z</time>
      </trkpt>
      <trkpt lat="44.78943" lon="-0.59341">
        <ele>21</ele>
        <time>2009-05-19T09:41:39Z</time>
      </trkpt>
      <trkpt lat="44.78945" lon="-0.59342">
        <ele>21</ele>
        <time>2009-05-19T09:41:40Z</time>
      </trkpt>
      <trkpt lat="44.78947" lon="-0.59344">
        <ele>21</ele>
        <time>2009-05-19T09:41:41Z</time>
      </trkpt>
      <trkpt lat="44.78949" lon="-0.59347">
        <ele>21</ele>
        <time>2009-05-19T09:41:42Z</time>
      </trkpt>
      <trkpt lat="44.78951" lon="-0.59349">
        <ele>21</ele>
        <time>2009-05-19T09:41:43Z</time>
      </trkpt>
      <trkpt lat="44.78953" lon="-0.59351">
        <ele>21</ele>
        <time>2009-05-19T09:41:44Z</time>
      </trkpt>
      <trkpt lat="44.78955" lon="-0.59354">
        <ele>21</ele>
        <time>2009-05-19T09:41:45Z</time>
      </trkpt>
      <trkpt lat="44.78958" lon="-0.59355">
        <ele>21</ele>
        <time>2009-05-19T09:41:46Z</time>
      </trkpt>
      <trkpt lat="44.7896" lon="-0.59358">
        <ele>21</ele>
        <time>2009-05-19T09:41:47Z</time>
      </trkpt>
      <trkpt lat="44.78963" lon="-0.5936">
        <ele>21</ele>
        <time>2009-05-19T09:41:48Z</time>
      </trkpt>
      <trkpt lat="44.78965" lon="-0.59363">
        <ele>21</ele>
        <time>2009-05-19T09:41:49Z</time>
      </trkpt>
      <trkpt lat="44.78968" lon="-0.59365">
        <ele>21</ele>
        <time>2009-05-19T09:41:50Z</time>
      </trkpt>
      <trkpt lat="44.7897" lon="-0.59367">
        <ele>21</ele>
        <time>2009-05-19T09:41:51Z</time>
      </trkpt>
      <trkpt lat="44.78973" lon="-0.59369">
        <ele>21</ele>
        <time>2009-05-19T09:41:52Z</time>
      </trkpt>
      <trkpt lat="44.78975" lon="-0.59371">
        <ele>21</ele>
        <time>2009-05-19T09:41:53Z</time>
      </trkpt>
      <trkpt lat="44.78978" lon="-0.59373">
        <ele>21</ele>
        <time>2009-05-19T09:41:54Z</time>
      </trkpt>
      <trkpt lat="44.7898" lon="-0.59375">
        <ele>21</ele>
        <time>2009-05-19T09:41:55Z</time>
      </trkpt>
      <trkpt lat="44.78983" lon="-0.59375">
        <ele>21</ele>
        <time>2009-05-19T09:41:56Z</time>
      </trkpt>
      <trkpt lat="44.78985" lon="-0.59374">
        <ele>21</ele>
        <time>2009-05-19T09:41:57Z</time>
      </trkpt>
      <trkpt lat="44.78988" lon="-0.59373">
        <ele>21</ele>
        <time>2009-05-19T09:41:58Z</time>
      </trkpt>
      <trkpt lat="44.7899" lon="-0.59372">
        <ele>21</ele>
        <time>2009-05-19T09:41:59Z</time>
      </trkpt>
      <trkpt lat="44.78992" lon="-0.59371">
        <ele>21</ele>
        <time>2009-05-19T09:42:00Z</time>
      </trkpt>
      <trkpt lat="44.78993" lon="-0.59371">
        <ele>21</ele>
        <time>2009-05-19T09:42:01Z</time>
      </trkpt>
      <trkpt lat="44.78996" lon="-0.5937">
        <ele>21</ele>
        <time>2009-05-19T09:42:02Z</time>
      </trkpt>
      <trkpt lat="44.78999" lon="-0.59369">
        <ele>21</ele>
        <time>2009-05-19T09:42:03Z</time>
      </trkpt>
      <trkpt lat="44.79001" lon="-0.59369">
        <ele>21</ele>
        <time>2009-05-19T09:42:04Z</time>
      </trkpt>
      <trkpt lat="44.79004" lon="-0.59367">
        <ele>21</ele>
        <time>2009-05-19T09:42:05Z</time>
      </trkpt>
      <trkpt lat="44.79006" lon="-0.59367">
        <ele>21</ele>
        <time>2009-05-19T09:42:06Z</time>
      </trkpt>
      <trkpt lat="44.79009" lon="-0.59367">
        <ele>21</ele>
        <time>2009-05-19T09:42:07Z</time>
      </trkpt>
      <trkpt lat="44.79012" lon="-0.59367">
        <ele>21</ele>
        <time>2009-05-19T09:42:08Z</time>
      </trkpt>
      <trkpt lat="44.79014" lon="-0.59366">
        <ele>21</ele>
        <time>2009-05-19T09:42:09Z</time>
      </trkpt>
      <trkpt lat="44.79017" lon="-0.59366">
        <ele>21</ele>
        <time>2009-05-19T09:42:10Z</time>
      </trkpt>
      <trkpt lat="44.79021" lon="-0.59365">
        <ele>21</ele>
        <time>2009-05-19T09:42:11Z</time>
      </trkpt>
      <trkpt lat="44.79023" lon="-0.59364">
        <ele>21</ele>
        <time>2009-05-19T09:42:12Z</time>
      </trkpt>
      <trkpt lat="44.79026" lon="-0.59363">
        <ele>21</ele>
        <time>2009-05-19T09:42:13Z</time>
      </trkpt>
      <trkpt lat="44.79028" lon="-0.59363">
        <ele>21</ele>
        <time>2009-05-19T09:42:14Z</time>
      </trkpt>
      <trkpt lat="44.79031" lon="-0.59361">
        <ele>21</ele>
        <time>2009-05-19T09:42:15Z</time>
      </trkpt>
      <trkpt lat="44.79034" lon="-0.5936">
        <ele>21</ele>
        <time>2009-05-19T09:42:16Z</time>
      </trkpt>
      <trkpt lat="44.79037" lon="-0.59359">
        <ele>21</ele>
        <time>2009-05-19T09:42:17Z</time>
      </trkpt>
      <trkpt lat="44.79039" lon="-0.59359">
        <ele>21</ele>
        <time>2009-05-19T09:42:18Z</time>
      </trkpt>
      <trkpt lat="44.79042" lon="-0.59359">
        <ele>21</ele>
        <time>2009-05-19T09:42:18Z</time>
      </trkpt>
      <trkpt lat="44.79045" lon="-0.59358">
        <ele>21</ele>
        <time>2009-05-19T09:42:20Z</time>
      </trkpt>
      <trkpt lat="44.79048" lon="-0.59358">
        <ele>21</ele>
        <time>2009-05-19T09:42:21Z</time>
      </trkpt>
      <trkpt lat="44.7905" lon="-0.59358">
        <ele>21</ele>
        <time>2009-05-19T09:42:22Z</time>
      </trkpt>
      <trkpt lat="44.79053" lon="-0.59357">
        <ele>21</ele>
        <time>2009-05-19T09:42:23Z</time>
      </trkpt>
      <trkpt lat="44.79056" lon="-0.59356">
        <ele>21</ele>
        <time>2009-05-19T09:42:24Z</time>
      </trkpt>
      <trkpt lat="44.79059" lon="-0.59354">
        <ele>21</ele>
        <time>2009-05-19T09:42:25Z</time>
      </trkpt>
      <trkpt lat="44.79061" lon="-0.59353">
        <ele>21</ele>
        <time>2009-05-19T09:42:26Z</time>
      </trkpt>
      <trkpt lat="44.79064" lon="-0.59352">
        <ele>21</ele>
        <time>2009-05-19T09:42:27Z</time>
      </trkpt>
      <trkpt lat="44.79067" lon="-0.59351">
        <ele>21</ele>
        <time>2009-05-19T09:42:28Z</time>
      </trkpt>
      <trkpt lat="44.79069" lon="-0.5935">
        <ele>21</ele>
        <time>2009-05-19T09:42:29Z</time>
      </trkpt>
      <trkpt lat="44.79071" lon="-0.59349">
        <ele>21</ele>
        <time>2009-05-19T09:42:30Z</time>
      </trkpt>
      <trkpt lat="44.79073" lon="-0.59347">
        <ele>21</ele>
        <time>2009-05-19T09:42:31Z</time>
      </trkpt>
      <trkpt lat="44.79075" lon="-0.59346">
        <ele>21</ele>
        <time>2009-05-19T09:42:32Z</time>
      </trkpt>
      <trkpt lat="44.79077" lon="-0.59344">
        <ele>21</ele>
        <time>2009-05-19T09:42:33Z</time>
      </trkpt>
      <trkpt lat="44.7908" lon="-0.59343">
        <ele>21</ele>
        <time>2009-05-19T09:42:33Z</time>
      </trkpt>
      <trkpt lat="44.79082" lon="-0.59343">
        <ele>21</ele>
        <time>2009-05-19T09:42:35Z</time>
      </trkpt>
      <trkpt lat="44.79085" lon="-0.59344">
        <ele>21</ele>
        <time>2009-05-19T09:42:36Z</time>
      </trkpt>
      <trkpt lat="44.79088" lon="-0.59345">
        <ele>21</ele>
        <time>2009-05-19T09:42:37Z</time>
      </trkpt>
      <trkpt lat="44.7909" lon="-0.59345">
        <ele>21</ele>
        <time>2009-05-19T09:42:38Z</time>
      </trkpt>
      <trkpt lat="44.79092" lon="-0.59346">
        <ele>21</ele>
        <time>2009-05-19T09:42:39Z</time>
      </trkpt>
      <trkpt lat="44.79095" lon="-0.59347">
        <ele>21</ele>
        <time>2009-05-19T09:42:40Z</time>
      </trkpt>
      <trkpt lat="44.79098" lon="-0.59348">
        <ele>21</ele>
        <time>2009-05-19T09:42:41Z</time>
      </trkpt>
      <trkpt lat="44.79101" lon="-0.59348">
        <ele>21</ele>
        <time>2009-05-19T09:42:42Z</time>
      </trkpt>
      <trkpt lat="44.79103" lon="-0.59348">
        <ele>21</ele>
        <time>2009-05-19T09:42:43Z</time>
      </trkpt>
      <trkpt lat="44.79106" lon="-0.59349">
        <ele>21</ele>
        <time>2009-05-19T09:42:44Z</time>
      </trkpt>
      <trkpt lat="44.79109" lon="-0.59348">
        <ele>21</ele>
        <time>2009-05-19T09:42:45Z</time>
      </trkpt>
      <trkpt lat="44.79112" lon="-0.59347">
        <ele>21</ele>
        <time>2009-05-19T09:42:46Z</time>
      </trkpt>
      <trkpt lat="44.79114" lon="-0.59347">
        <ele>21</ele>
        <time>2009-05-19T09:42:47Z</time>
      </trkpt>
      <trkpt lat="44.79116" lon="-0.59346">
        <ele>21</ele>
        <time>2009-05-19T09:42:48Z</time>
      </trkpt>
      <trkpt lat="44.79119" lon="-0.59347">
        <ele>21</ele>
        <time>2009-05-19T09:42:49Z</time>
      </trkpt>
      <trkpt lat="44.79121" lon="-0.59346">
        <ele>20</ele>
        <time>2009-05-19T09:42:50Z</time>
      </trkpt>
      <trkpt lat="44.79124" lon="-0.59346">
        <ele>20</ele>
        <time>2009-05-19T09:42:50Z</time>
      </trkpt>
      <trkpt lat="44.79127" lon="-0.59346">
        <ele>19</ele>
        <time>2009-05-19T09:42:52Z</time>
      </trkpt>
      <trkpt lat="44.7913" lon="-0.59346">
        <ele>19</ele>
        <time>2009-05-19T09:42:52Z</time>
      </trkpt>
      <trkpt lat="44.79133" lon="-0.59346">
        <ele>19</ele>
        <time>2009-05-19T09:42:54Z</time>
      </trkpt>
      <trkpt lat="44.79135" lon="-0.59345">
        <ele>18</ele>
        <time>2009-05-19T09:42:55Z</time>
      </trkpt>
      <trkpt lat="44.79138" lon="-0.59344">
        <ele>18</ele>
        <time>2009-05-19T09:42:56Z</time>
      </trkpt>
      <trkpt lat="44.79141" lon="-0.59343">
        <ele>18</ele>
        <time>2009-05-19T09:42:57Z</time>
      </trkpt>
      <trkpt lat="44.79144" lon="-0.59343">
        <ele>18</ele>
        <time>2009-05-19T09:42:57Z</time>
      </trkpt>
      <trkpt lat="44.79146" lon="-0.59342">
        <ele>18</ele>
        <time>2009-05-19T09:42:59Z</time>
      </trkpt>
      <trkpt lat="44.79149" lon="-0.59342">
        <ele>18</ele>
        <time>2009-05-19T09:43:00Z</time>
      </trkpt>
      <trkpt lat="44.7915" lon="-0.59341">
        <ele>18</ele>
        <time>2009-05-19T09:43:01Z</time>
      </trkpt>
      <trkpt lat="44.79152" lon="-0.5934">
        <ele>18</ele>
        <time>2009-05-19T09:43:02Z</time>
      </trkpt>
      <trkpt lat="44.79155" lon="-0.5934">
        <ele>18</ele>
        <time>2009-05-19T09:43:03Z</time>
      </trkpt>
      <trkpt lat="44.79157" lon="-0.5934">
        <ele>18</ele>
        <time>2009-05-19T09:43:04Z</time>
      </trkpt>
      <trkpt lat="44.7916" lon="-0.59339">
        <ele>17</ele>
        <time>2009-05-19T09:43:05Z</time>
      </trkpt>
      <trkpt lat="44.79164" lon="-0.59339">
        <ele>17</ele>
        <time>2009-05-19T09:43:06Z</time>
      </trkpt>
      <trkpt lat="44.79166" lon="-0.59339">
        <ele>17</ele>
        <time>2009-05-19T09:43:07Z</time>
      </trkpt>
      <trkpt lat="44.79169" lon="-0.59339">
        <ele>17</ele>
        <time>2009-05-19T09:43:08Z</time>
      </trkpt>
      <trkpt lat="44.79173" lon="-0.59339">
        <ele>16</ele>
        <time>2009-05-19T09:43:09Z</time>
      </trkpt>
      <trkpt lat="44.79176" lon="-0.59339">
        <ele>16</ele>
        <time>2009-05-19T09:43:09Z</time>
      </trkpt>
      <trkpt lat="44.79179" lon="-0.59339">
        <ele>16</ele>
        <time>2009-05-19T09:43:11Z</time>
      </trkpt>
      <trkpt lat="44.79181" lon="-0.5934">
        <ele>16</ele>
        <time>2009-05-19T09:43:12Z</time>
      </trkpt>
      <trkpt lat="44.79184" lon="-0.5934">
        <ele>16</ele>
        <time>2009-05-19T09:43:13Z</time>
      </trkpt>
      <trkpt lat="44.79187" lon="-0.5934">
        <ele>16</ele>
        <time>2009-05-19T09:43:14Z</time>
      </trkpt>
      <trkpt lat="44.79189" lon="-0.5934">
        <ele>16</ele>
        <time>2009-05-19T09:43:15Z</time>
      </trkpt>
      <trkpt lat="44.79192" lon="-0.5934">
        <ele>16</ele>
        <time>2009-05-19T09:43:16Z</time>
      </trkpt>
      <trkpt lat="44.79195" lon="-0.59341">
        <ele>16</ele>
        <time>2009-05-19T09:43:17Z</time>
      </trkpt>
      <trkpt lat="44.79198" lon="-0.59343">
        <ele>16</ele>
        <time>2009-05-19T09:43:18Z</time>
      </trkpt>
      <trkpt lat="44.792" lon="-0.59344">
        <ele>16</ele>
        <time>2009-05-19T09:43:19Z</time>
      </trkpt>
      <trkpt lat="44.79204" lon="-0.59346">
        <ele>16</ele>
        <time>2009-05-19T09:43:20Z</time>
      </trkpt>
      <trkpt lat="44.79207" lon="-0.59347">
        <ele>16</ele>
        <time>2009-05-19T09:43:21Z</time>
      </trkpt>
      <trkpt lat="44.7921" lon="-0.59346">
        <ele>16</ele>
        <time>2009-05-19T09:43:22Z</time>
      </trkpt>
      <trkpt lat="44.79213" lon="-0.59347">
        <ele>16</ele>
        <time>2009-05-19T09:43:23Z</time>
      </trkpt>
      <trkpt lat="44.79215" lon="-0.59347">
        <ele>16</ele>
        <time>2009-05-19T09:43:24Z</time>
      </trkpt>
      <trkpt lat="44.79218" lon="-0.59347">
        <ele>16</ele>
        <time>2009-05-19T09:43:25Z</time>
      </trkpt>
      <trkpt lat="44.79221" lon="-0.59347">
        <ele>16</ele>
        <time>2009-05-19T09:43:25Z</time>
      </trkpt>
      <trkpt lat="44.79224" lon="-0.59347">
        <ele>16</ele>
        <time>2009-05-19T09:43:27Z</time>
      </trkpt>
      <trkpt lat="44.79227" lon="-0.59347">
        <ele>16</ele>
        <time>2009-05-19T09:43:28Z</time>
      </trkpt>
      <trkpt lat="44.7923" lon="-0.59347">
        <ele>16</ele>
        <time>2009-05-19T09:43:28Z</time>
      </trkpt>
      <trkpt lat="44.79232" lon="-0.59347">
        <ele>16</ele>
        <time>2009-05-19T09:43:30Z</time>
      </trkpt>
      <trkpt lat="44.79235" lon="-0.59348">
        <ele>16</ele>
        <time>2009-05-19T09:43:30Z</time>
      </trkpt>
      <trkpt lat="44.79237" lon="-0.59349">
        <ele>16</ele>
        <time>2009-05-19T09:43:32Z</time>
      </trkpt>
      <trkpt lat="44.7924" lon="-0.59349">
        <ele>16</ele>
        <time>2009-05-19T09:43:33Z</time>
      </trkpt>
      <trkpt lat="44.79243" lon="-0.5935">
        <ele>16</ele>
        <time>2009-05-19T09:43:34Z</time>
      </trkpt>
      <trkpt lat="44.79246" lon="-0.59351">
        <ele>16</ele>
        <time>2009-05-19T09:43:35Z</time>
      </trkpt>
      <trkpt lat="44.79248" lon="-0.59352">
        <ele>16</ele>
        <time>2009-05-19T09:43:36Z</time>
      </trkpt>
      <trkpt lat="44.79251" lon="-0.59353">
        <ele>16</ele>
        <time>2009-05-19T09:43:37Z</time>
      </trkpt>
      <trkpt lat="44.79253" lon="-0.59355">
        <ele>16</ele>
        <time>2009-05-19T09:43:38Z</time>
      </trkpt>
      <trkpt lat="44.79257" lon="-0.59356">
        <ele>16</ele>
        <time>2009-05-19T09:43:39Z</time>
      </trkpt>
      <trkpt lat="44.7926" lon="-0.59357">
        <ele>16</ele>
        <time>2009-05-19T09:43:40Z</time>
      </trkpt>
      <trkpt lat="44.79262" lon="-0.59357">
        <ele>16</ele>
        <time>2009-05-19T09:43:40Z</time>
      </trkpt>
      <trkpt lat="44.79265" lon="-0.59357">
        <ele>16</ele>
        <time>2009-05-19T09:43:42Z</time>
      </trkpt>
      <trkpt lat="44.79267" lon="-0.59357">
        <ele>16</ele>
        <time>2009-05-19T09:43:42Z</time>
      </trkpt>
      <trkpt lat="44.7927" lon="-0.59357">
        <ele>16</ele>
        <time>2009-05-19T09:43:43Z</time>
      </trkpt>
      <trkpt lat="44.79272" lon="-0.59356">
        <ele>16</ele>
        <time>2009-05-19T09:43:45Z</time>
      </trkpt>
      <trkpt lat="44.79274" lon="-0.59355">
        <ele>16</ele>
        <time>2009-05-19T09:43:46Z</time>
      </trkpt>
      <trkpt lat="44.79276" lon="-0.59354">
        <ele>16</ele>
        <time>2009-05-19T09:43:47Z</time>
      </trkpt>
      <trkpt lat="44.79279" lon="-0.59353">
        <ele>16</ele>
        <time>2009-05-19T09:43:48Z</time>
      </trkpt>
      <trkpt lat="44.79282" lon="-0.59352">
        <ele>16</ele>
        <time>2009-05-19T09:43:49Z</time>
      </trkpt>
      <trkpt lat="44.79284" lon="-0.59352">
        <ele>16</ele>
        <time>2009-05-19T09:43:50Z</time>
      </trkpt>
      <trkpt lat="44.79286" lon="-0.59352">
        <ele>16</ele>
        <time>2009-05-19T09:43:51Z</time>
      </trkpt>
      <trkpt lat="44.79288" lon="-0.59352">
        <ele>16</ele>
        <time>2009-05-19T09:43:52Z</time>
      </trkpt>
      <trkpt lat="44.79291" lon="-0.59352">
        <ele>16</ele>
        <time>2009-05-19T09:43:53Z</time>
      </trkpt>
      <trkpt lat="44.79293" lon="-0.59353">
        <ele>16</ele>
        <time>2009-05-19T09:43:54Z</time>
      </trkpt>
      <trkpt lat="44.79296" lon="-0.59354">
        <ele>16</ele>
        <time>2009-05-19T09:43:55Z</time>
      </trkpt>
      <trkpt lat="44.79299" lon="-0.59355">
        <ele>16</ele>
        <time>2009-05-19T09:43:56Z</time>
      </trkpt>
      <trkpt lat="44.79302" lon="-0.59355">
        <ele>16</ele>
        <time>2009-05-19T09:43:57Z</time>
      </trkpt>
      <trkpt lat="44.79304" lon="-0.59357">
        <ele>16</ele>
        <time>2009-05-19T09:43:58Z</time>
      </trkpt>
      <trkpt lat="44.79306" lon="-0.59359">
        <ele>16</ele>
        <time>2009-05-19T09:43:59Z</time>
      </trkpt>
      <trkpt lat="44.79309" lon="-0.59361">
        <ele>16</ele>
        <time>2009-05-19T09:44:00Z</time>
      </trkpt>
      <trkpt lat="44.7931" lon="-0.59363">
        <ele>16</ele>
        <time>2009-05-19T09:44:01Z</time>
      </trkpt>
      <trkpt lat="44.79312" lon="-0.59366">
        <ele>16</ele>
        <time>2009-05-19T09:44:02Z</time>
      </trkpt>
      <trkpt lat="44.79314" lon="-0.59369">
        <ele>16</ele>
        <time>2009-05-19T09:44:03Z</time>
      </trkpt>
      <trkpt lat="44.79316" lon="-0.59372">
        <ele>16</ele>
        <time>2009-05-19T09:44:04Z</time>
      </trkpt>
      <trkpt lat="44.7932" lon="-0.59373">
        <ele>16</ele>
        <time>2009-05-19T09:44:05Z</time>
      </trkpt>
      <trkpt lat="44.79324" lon="-0.59375">
        <ele>16</ele>
        <time>2009-05-19T09:44:06Z</time>
      </trkpt>
      <trkpt lat="44.79327" lon="-0.59375">
        <ele>16</ele>
        <time>2009-05-19T09:44:07Z</time>
      </trkpt>
      <trkpt lat="44.79329" lon="-0.59377">
        <ele>16</ele>
        <time>2009-05-19T09:44:08Z</time>
      </trkpt>
      <trkpt lat="44.79332" lon="-0.59378">
        <ele>16</ele>
        <time>2009-05-19T09:44:09Z</time>
      </trkpt>
      <trkpt lat="44.79335" lon="-0.59379">
        <ele>16</ele>
        <time>2009-05-19T09:44:10Z</time>
      </trkpt>
      <trkpt lat="44.79337" lon="-0.5938">
        <ele>16</ele>
        <time>2009-05-19T09:44:11Z</time>
      </trkpt>
      <trkpt lat="44.7934" lon="-0.59382">
        <ele>16</ele>
        <time>2009-05-19T09:44:12Z</time>
      </trkpt>
      <trkpt lat="44.79343" lon="-0.59383">
        <ele>16</ele>
        <time>2009-05-19T09:44:13Z</time>
      </trkpt>
      <trkpt lat="44.79345" lon="-0.59384">
        <ele>16</ele>
        <time>2009-05-19T09:44:13Z</time>
      </trkpt>
      <trkpt lat="44.79348" lon="-0.59385">
        <ele>16</ele>
        <time>2009-05-19T09:44:15Z</time>
      </trkpt>
      <trkpt lat="44.79351" lon="-0.59387">
        <ele>16</ele>
        <time>2009-05-19T09:44:16Z</time>
      </trkpt>
      <trkpt lat="44.79354" lon="-0.5939">
        <ele>16</ele>
        <time>2009-05-19T09:44:16Z</time>
      </trkpt>
      <trkpt lat="44.79357" lon="-0.59392">
        <ele>16</ele>
        <time>2009-05-19T09:44:17Z</time>
      </trkpt>
      <trkpt lat="44.79359" lon="-0.59395">
        <ele>16</ele>
        <time>2009-05-19T09:44:19Z</time>
      </trkpt>
      <trkpt lat="44.79361" lon="-0.59398">
        <ele>16</ele>
        <time>2009-05-19T09:44:20Z</time>
      </trkpt>
      <trkpt lat="44.79363" lon="-0.594">
        <ele>16</ele>
        <time>2009-05-19T09:44:20Z</time>
      </trkpt>
      <trkpt lat="44.79364" lon="-0.59403">
        <ele>16</ele>
        <time>2009-05-19T09:44:22Z</time>
      </trkpt>
      <trkpt lat="44.79364" lon="-0.59407">
        <ele>16</ele>
        <time>2009-05-19T09:44:23Z</time>
      </trkpt>
      <trkpt lat="44.79365" lon="-0.5941">
        <ele>16</ele>
        <time>2009-05-19T09:44:24Z</time>
      </trkpt>
      <trkpt lat="44.79366" lon="-0.59414">
        <ele>16</ele>
        <time>2009-05-19T09:44:25Z</time>
      </trkpt>
      <trkpt lat="44.79368" lon="-0.59416">
        <ele>16</ele>
        <time>2009-05-19T09:44:25Z</time>
      </trkpt>
      <trkpt lat="44.7937" lon="-0.59418">
        <ele>16</ele>
        <time>2009-05-19T09:44:27Z</time>
      </trkpt>
      <trkpt lat="44.79372" lon="-0.59419">
        <ele>16</ele>
        <time>2009-05-19T09:44:28Z</time>
      </trkpt>
      <trkpt lat="44.79375" lon="-0.5942">
        <ele>16</ele>
        <time>2009-05-19T09:44:28Z</time>
      </trkpt>
      <trkpt lat="44.79378" lon="-0.5942">
        <ele>16</ele>
        <time>2009-05-19T09:44:29Z</time>
      </trkpt>
      <trkpt lat="44.79381" lon="-0.59422">
        <ele>16</ele>
        <time>2009-05-19T09:44:31Z</time>
      </trkpt>
      <trkpt lat="44.79383" lon="-0.59424">
        <ele>16</ele>
        <time>2009-05-19T09:44:32Z</time>
      </trkpt>
      <trkpt lat="44.79384" lon="-0.59425">
        <ele>16</ele>
        <time>2009-05-19T09:44:33Z</time>
      </trkpt>
      <trkpt lat="44.79387" lon="-0.59427">
        <ele>16</ele>
        <time>2009-05-19T09:44:34Z</time>
      </trkpt>
      <trkpt lat="44.79389" lon="-0.59429">
        <ele>16</ele>
        <time>2009-05-19T09:44:35Z</time>
      </trkpt>
      <trkpt lat="44.7939" lon="-0.59432">
        <ele>16</ele>
        <time>2009-05-19T09:44:36Z</time>
      </trkpt>
      <trkpt lat="44.79392" lon="-0.59435">
        <ele>16</ele>
        <time>2009-05-19T09:44:37Z</time>
      </trkpt>
      <trkpt lat="44.79393" lon="-0.59438">
        <ele>16</ele>
        <time>2009-05-19T09:44:37Z</time>
      </trkpt>
      <trkpt lat="44.79395" lon="-0.59442">
        <ele>16</ele>
        <time>2009-05-19T09:44:38Z</time>
      </trkpt>
      <trkpt lat="44.79395" lon="-0.59446">
        <ele>16</ele>
        <time>2009-05-19T09:44:40Z</time>
      </trkpt>
      <trkpt lat="44.79396" lon="-0.59449">
        <ele>16</ele>
        <time>2009-05-19T09:44:40Z</time>
      </trkpt>
      <trkpt lat="44.79397" lon="-0.59452">
        <ele>16</ele>
        <time>2009-05-19T09:44:42Z</time>
      </trkpt>
      <trkpt lat="44.79398" lon="-0.59455">
        <ele>16</ele>
        <time>2009-05-19T09:44:43Z</time>
      </trkpt>
      <trkpt lat="44.794" lon="-0.59457">
        <ele>16</ele>
        <time>2009-05-19T09:44:44Z</time>
      </trkpt>
      <trkpt lat="44.79401" lon="-0.5946">
        <ele>16</ele>
        <time>2009-05-19T09:44:45Z</time>
      </trkpt>
      <trkpt lat="44.79402" lon="-0.59463">
        <ele>16</ele>
        <time>2009-05-19T09:44:45Z</time>
      </trkpt>
      <trkpt lat="44.79404" lon="-0.59467">
        <ele>16</ele>
        <time>2009-05-19T09:44:47Z</time>
      </trkpt>
      <trkpt lat="44.79404" lon="-0.59471">
        <ele>16</ele>
        <time>2009-05-19T09:44:48Z</time>
      </trkpt>
      <trkpt lat="44.79405" lon="-0.59475">
        <ele>16</ele>
        <time>2009-05-19T09:44:48Z</time>
      </trkpt>
      <trkpt lat="44.79405" lon="-0.59479">
        <ele>16</ele>
        <time>2009-05-19T09:44:49Z</time>
      </trkpt>
      <trkpt lat="44.79405" lon="-0.59482">
        <ele>16</ele>
        <time>2009-05-19T09:44:50Z</time>
      </trkpt>
      <trkpt lat="44.79405" lon="-0.59486">
        <ele>16</ele>
        <time>2009-05-19T09:44:52Z</time>
      </trkpt>
      <trkpt lat="44.79404" lon="-0.59489">
        <ele>16</ele>
        <time>2009-05-19T09:44:52Z</time>
      </trkpt>
      <trkpt lat="44.79404" lon="-0.59493">
        <ele>16</ele>
        <time>2009-05-19T09:44:53Z</time>
      </trkpt>
      <trkpt lat="44.79403" lon="-0.59496">
        <ele>16</ele>
        <time>2009-05-19T09:44:55Z</time>
      </trkpt>
      <trkpt lat="44.79402" lon="-0.59499">
        <ele>16</ele>
        <time>2009-05-19T09:44:55Z</time>
      </trkpt>
      <trkpt lat="44.79399" lon="-0.59501">
        <ele>16</ele>
        <time>2009-05-19T09:44:56Z</time>
      </trkpt>
      <trkpt lat="44.79398" lon="-0.59501">
        <ele>16</ele>
        <time>2009-05-19T09:44:58Z</time>
      </trkpt>
      <trkpt lat="44.79397" lon="-0.59499">
        <ele>16</ele>
        <time>2009-05-19T09:44:59Z</time>
      </trkpt>
      <trkpt lat="44.79397" lon="-0.59497">
        <ele>16</ele>
        <time>2009-05-19T09:44:59Z</time>
      </trkpt>
      <trkpt lat="44.79397" lon="-0.59494">
        <ele>16</ele>
        <time>2009-05-19T09:45:01Z</time>
      </trkpt>
      <trkpt lat="44.79397" lon="-0.59491">
        <ele>16</ele>
        <time>2009-05-19T09:45:01Z</time>
      </trkpt>
      <trkpt lat="44.79397" lon="-0.59488">
        <ele>16</ele>
        <time>2009-05-19T09:45:03Z</time>
      </trkpt>
      <trkpt lat="44.79397" lon="-0.59484">
        <ele>16</ele>
        <time>2009-05-19T09:45:04Z</time>
      </trkpt>
      <trkpt lat="44.79397" lon="-0.59481">
        <ele>16</ele>
        <time>2009-05-19T09:45:05Z</time>
      </trkpt>
      <trkpt lat="44.79396" lon="-0.59477">
        <ele>16</ele>
        <time>2009-05-19T09:45:05Z</time>
      </trkpt>
      <trkpt lat="44.79396" lon="-0.59474">
        <ele>16</ele>
        <time>2009-05-19T09:45:06Z</time>
      </trkpt>
      <trkpt lat="44.79394" lon="-0.59471">
        <ele>16</ele>
        <time>2009-05-19T09:45:07Z</time>
      </trkpt>
      <trkpt lat="44.79393" lon="-0.59467">
        <ele>16</ele>
        <time>2009-05-19T09:45:09Z</time>
      </trkpt>
      <trkpt lat="44.79391" lon="-0.59464">
        <ele>16</ele>
        <time>2009-05-19T09:45:09Z</time>
      </trkpt>
      <trkpt lat="44.79389" lon="-0.59462">
        <ele>16</ele>
        <time>2009-05-19T09:45:10Z</time>
      </trkpt>
      <trkpt lat="44.79387" lon="-0.59459">
        <ele>16</ele>
        <time>2009-05-19T09:45:11Z</time>
      </trkpt>
      <trkpt lat="44.79386" lon="-0.59456">
        <ele>16</ele>
        <time>2009-05-19T09:45:13Z</time>
      </trkpt>
      <trkpt lat="44.79384" lon="-0.59453">
        <ele>16</ele>
        <time>2009-05-19T09:45:13Z</time>
      </trkpt>
      <trkpt lat="44.79381" lon="-0.5945">
        <ele>16</ele>
        <time>2009-05-19T09:45:15Z</time>
      </trkpt>
      <trkpt lat="44.79379" lon="-0.59448">
        <ele>16</ele>
        <time>2009-05-19T09:45:15Z</time>
      </trkpt>
      <trkpt lat="44.79377" lon="-0.59445">
        <ele>16</ele>
        <time>2009-05-19T09:45:16Z</time>
      </trkpt>
      <trkpt lat="44.79375" lon="-0.59443">
        <ele>16</ele>
        <time>2009-05-19T09:45:17Z</time>
      </trkpt>
      <trkpt lat="44.79373" lon="-0.5944">
        <ele>16</ele>
        <time>2009-05-19T09:45:18Z</time>
      </trkpt>
      <trkpt lat="44.79371" lon="-0.59438">
        <ele>16</ele>
        <time>2009-05-19T09:45:20Z</time>
      </trkpt>
      <trkpt lat="44.79369" lon="-0.59436">
        <ele>16</ele>
        <time>2009-05-19T09:45:20Z</time>
      </trkpt>
      <trkpt lat="44.79367" lon="-0.59433">
        <ele>16</ele>
        <time>2009-05-19T09:45:21Z</time>
      </trkpt>
      <trkpt lat="44.79365" lon="-0.59431">
        <ele>16</ele>
        <time>2009-05-19T09:45:22Z</time>
      </trkpt>
      <trkpt lat="44.79362" lon="-0.59428">
        <ele>16</ele>
        <time>2009-05-19T09:45:23Z</time>
      </trkpt>
      <trkpt lat="44.7936" lon="-0.59425">
        <ele>16</ele>
        <time>2009-05-19T09:45:25Z</time>
      </trkpt>
      <trkpt lat="44.79359" lon="-0.59423">
        <ele>16</ele>
        <time>2009-05-19T09:45:25Z</time>
      </trkpt>
      <trkpt lat="44.79357" lon="-0.59421">
        <ele>16</ele>
        <time>2009-05-19T09:45:27Z</time>
      </trkpt>
      <trkpt lat="44.79355" lon="-0.59418">
        <ele>16</ele>
        <time>2009-05-19T09:45:27Z</time>
      </trkpt>
      <trkpt lat="44.79353" lon="-0.59415">
        <ele>16</ele>
        <time>2009-05-19T09:45:29Z</time>
      </trkpt>
      <trkpt lat="44.79351" lon="-0.59413">
        <ele>16</ele>
        <time>2009-05-19T09:45:30Z</time>
      </trkpt>
      <trkpt lat="44.79349" lon="-0.5941">
        <ele>16</ele>
        <time>2009-05-19T09:45:30Z</time>
      </trkpt>
      <trkpt lat="44.79347" lon="-0.59408">
        <ele>16</ele>
        <time>2009-05-19T09:45:31Z</time>
      </trkpt>
      <trkpt lat="44.79345" lon="-0.59404">
        <ele>16</ele>
        <time>2009-05-19T09:45:32Z</time>
      </trkpt>
      <trkpt lat="44.79343" lon="-0.59399">
        <ele>16</ele>
        <time>2009-05-19T09:45:33Z</time>
      </trkpt>
      <trkpt lat="44.79341" lon="-0.59396">
        <ele>16</ele>
        <time>2009-05-19T09:45:35Z</time>
      </trkpt>
      <trkpt lat="44.79339" lon="-0.59393">
        <ele>16</ele>
        <time>2009-05-19T09:45:35Z</time>
      </trkpt>
      <trkpt lat="44.79337" lon="-0.59391">
        <ele>16</ele>
        <time>2009-05-19T09:45:36Z</time>
      </trkpt>
      <trkpt lat="44.79334" lon="-0.5939">
        <ele>17</ele>
        <time>2009-05-19T09:45:37Z</time>
      </trkpt>
      <trkpt lat="44.79332" lon="-0.5939">
        <ele>17</ele>
        <time>2009-05-19T09:45:38Z</time>
      </trkpt>
      <trkpt lat="44.79329" lon="-0.59389">
        <ele>17</ele>
        <time>2009-05-19T09:45:40Z</time>
      </trkpt>
      <trkpt lat="44.79326" lon="-0.59389">
        <ele>18</ele>
        <time>2009-05-19T09:45:40Z</time>
      </trkpt>
      <trkpt lat="44.79324" lon="-0.5939">
        <ele>18</ele>
        <time>2009-05-19T09:45:41Z</time>
      </trkpt>
      <trkpt lat="44.79321" lon="-0.5939">
        <ele>18</ele>
        <time>2009-05-19T09:45:42Z</time>
      </trkpt>
      <trkpt lat="44.79318" lon="-0.5939">
        <ele>18</ele>
        <time>2009-05-19T09:45:43Z</time>
      </trkpt>
      <trkpt lat="44.79316" lon="-0.5939">
        <ele>18</ele>
        <time>2009-05-19T09:45:44Z</time>
      </trkpt>
      <trkpt lat="44.79313" lon="-0.5939">
        <ele>18</ele>
        <time>2009-05-19T09:45:46Z</time>
      </trkpt>
      <trkpt lat="44.7931" lon="-0.59389">
        <ele>18</ele>
        <time>2009-05-19T09:45:46Z</time>
      </trkpt>
      <trkpt lat="44.79308" lon="-0.5939">
        <ele>18</ele>
        <time>2009-05-19T09:45:48Z</time>
      </trkpt>
      <trkpt lat="44.79305" lon="-0.5939">
        <ele>18</ele>
        <time>2009-05-19T09:45:48Z</time>
      </trkpt>
      <trkpt lat="44.79302" lon="-0.59391">
        <ele>18</ele>
        <time>2009-05-19T09:45:49Z</time>
      </trkpt>
      <trkpt lat="44.793" lon="-0.59391">
        <ele>19</ele>
        <time>2009-05-19T09:45:51Z</time>
      </trkpt>
      <trkpt lat="44.79297" lon="-0.59392">
        <ele>19</ele>
        <time>2009-05-19T09:45:51Z</time>
      </trkpt>
      <trkpt lat="44.79295" lon="-0.59391">
        <ele>19</ele>
        <time>2009-05-19T09:45:52Z</time>
      </trkpt>
      <trkpt lat="44.79292" lon="-0.59391">
        <ele>19</ele>
        <time>2009-05-19T09:45:54Z</time>
      </trkpt>
      <trkpt lat="44.7929" lon="-0.59391">
        <ele>19</ele>
        <time>2009-05-19T09:45:55Z</time>
      </trkpt>
      <trkpt lat="44.79287" lon="-0.59391">
        <ele>19</ele>
        <time>2009-05-19T09:45:56Z</time>
      </trkpt>
      <trkpt lat="44.79283" lon="-0.5939">
        <ele>19</ele>
        <time>2009-05-19T09:45:57Z</time>
      </trkpt>
      <trkpt lat="44.7928" lon="-0.5939">
        <ele>19</ele>
        <time>2009-05-19T09:45:58Z</time>
      </trkpt>
      <trkpt lat="44.79277" lon="-0.5939">
        <ele>20</ele>
        <time>2009-05-19T09:45:59Z</time>
      </trkpt>
      <trkpt lat="44.79274" lon="-0.59389">
        <ele>21</ele>
        <time>2009-05-19T09:46:00Z</time>
      </trkpt>
      <trkpt lat="44.79271" lon="-0.59388">
        <ele>22</ele>
        <time>2009-05-19T09:46:00Z</time>
      </trkpt>
      <trkpt lat="44.79269" lon="-0.59387">
        <ele>23</ele>
        <time>2009-05-19T09:46:02Z</time>
      </trkpt>
      <trkpt lat="44.79266" lon="-0.59387">
        <ele>23</ele>
        <time>2009-05-19T09:46:02Z</time>
      </trkpt>
      <trkpt lat="44.79264" lon="-0.59387">
        <ele>23</ele>
        <time>2009-05-19T09:46:03Z</time>
      </trkpt>
      <trkpt lat="44.79261" lon="-0.59387">
        <ele>23</ele>
        <time>2009-05-19T09:46:04Z</time>
      </trkpt>
      <trkpt lat="44.79258" lon="-0.59387">
        <ele>23</ele>
        <time>2009-05-19T09:46:05Z</time>
      </trkpt>
      <trkpt lat="44.79256" lon="-0.59387">
        <ele>23</ele>
        <time>2009-05-19T09:46:06Z</time>
      </trkpt>
      <trkpt lat="44.79253" lon="-0.59388">
        <ele>23</ele>
        <time>2009-05-19T09:46:07Z</time>
      </trkpt>
      <trkpt lat="44.7925" lon="-0.59389">
        <ele>23</ele>
        <time>2009-05-19T09:46:08Z</time>
      </trkpt>
      <trkpt lat="44.79247" lon="-0.59389">
        <ele>23</ele>
        <time>2009-05-19T09:46:09Z</time>
      </trkpt>
      <trkpt lat="44.79244" lon="-0.5939">
        <ele>23</ele>
        <time>2009-05-19T09:46:10Z</time>
      </trkpt>
      <trkpt lat="44.79241" lon="-0.5939">
        <ele>23</ele>
        <time>2009-05-19T09:46:12Z</time>
      </trkpt>
      <trkpt lat="44.79239" lon="-0.59391">
        <ele>23</ele>
        <time>2009-05-19T09:46:12Z</time>
      </trkpt>
      <trkpt lat="44.79237" lon="-0.59392">
        <ele>24</ele>
        <time>2009-05-19T09:46:13Z</time>
      </trkpt>
      <trkpt lat="44.79235" lon="-0.59393">
        <ele>24</ele>
        <time>2009-05-19T09:46:14Z</time>
      </trkpt>
      <trkpt lat="44.79233" lon="-0.59395">
        <ele>24</ele>
        <time>2009-05-19T09:46:15Z</time>
      </trkpt>
      <trkpt lat="44.7923" lon="-0.59397">
        <ele>25</ele>
        <time>2009-05-19T09:46:17Z</time>
      </trkpt>
      <trkpt lat="44.79227" lon="-0.59399">
        <ele>25</ele>
        <time>2009-05-19T09:46:17Z</time>
      </trkpt>
      <trkpt lat="44.79224" lon="-0.594">
        <ele>25</ele>
        <time>2009-05-19T09:46:18Z</time>
      </trkpt>
      <trkpt lat="44.79221" lon="-0.59401">
        <ele>25</ele>
        <time>2009-05-19T09:46:19Z</time>
      </trkpt>
      <trkpt lat="44.79218" lon="-0.59402">
        <ele>25</ele>
        <time>2009-05-19T09:46:20Z</time>
      </trkpt>
      <trkpt lat="44.79216" lon="-0.59403">
        <ele>25</ele>
        <time>2009-05-19T09:46:22Z</time>
      </trkpt>
      <trkpt lat="44.79213" lon="-0.59403">
        <ele>25</ele>
        <time>2009-05-19T09:46:22Z</time>
      </trkpt>
      <trkpt lat="44.7921" lon="-0.59404">
        <ele>25</ele>
        <time>2009-05-19T09:46:23Z</time>
      </trkpt>
      <trkpt lat="44.79207" lon="-0.59404">
        <ele>25</ele>
        <time>2009-05-19T09:46:24Z</time>
      </trkpt>
      <trkpt lat="44.79205" lon="-0.59405">
        <ele>25</ele>
        <time>2009-05-19T09:46:25Z</time>
      </trkpt>
      <trkpt lat="44.79202" lon="-0.59406">
        <ele>25</ele>
        <time>2009-05-19T09:46:26Z</time>
      </trkpt>
      <trkpt lat="44.79199" lon="-0.59408">
        <ele>25</ele>
        <time>2009-05-19T09:46:27Z</time>
      </trkpt>
      <trkpt lat="44.79196" lon="-0.59409">
        <ele>25</ele>
        <time>2009-05-19T09:46:28Z</time>
      </trkpt>
      <trkpt lat="44.79193" lon="-0.59411">
        <ele>25</ele>
        <time>2009-05-19T09:46:29Z</time>
      </trkpt>
      <trkpt lat="44.79191" lon="-0.59412">
        <ele>25</ele>
        <time>2009-05-19T09:46:30Z</time>
      </trkpt>
      <trkpt lat="44.79189" lon="-0.59413">
        <ele>25</ele>
        <time>2009-05-19T09:46:32Z</time>
      </trkpt>
      <trkpt lat="44.79187" lon="-0.59415">
        <ele>25</ele>
        <time>2009-05-19T09:46:32Z</time>
      </trkpt>
      <trkpt lat="44.79185" lon="-0.59415">
        <ele>25</ele>
        <time>2009-05-19T09:46:33Z</time>
      </trkpt>
      <trkpt lat="44.79182" lon="-0.59415">
        <ele>25</ele>
        <time>2009-05-19T09:46:34Z</time>
      </trkpt>
      <trkpt lat="44.79179" lon="-0.59416">
        <ele>25</ele>
        <time>2009-05-19T09:46:35Z</time>
      </trkpt>
      <trkpt lat="44.79176" lon="-0.59416">
        <ele>25</ele>
        <time>2009-05-19T09:46:37Z</time>
      </trkpt>
      <trkpt lat="44.79174" lon="-0.59416">
        <ele>25</ele>
        <time>2009-05-19T09:46:37Z</time>
      </trkpt>
      <trkpt lat="44.79171" lon="-0.59415">
        <ele>25</ele>
        <time>2009-05-19T09:46:38Z</time>
      </trkpt>
      <trkpt lat="44.79168" lon="-0.59414">
        <ele>24</ele>
        <time>2009-05-19T09:46:39Z</time>
      </trkpt>
      <trkpt lat="44.79166" lon="-0.59414">
        <ele>24</ele>
        <time>2009-05-19T09:46:40Z</time>
      </trkpt>
      <trkpt lat="44.79162" lon="-0.59413">
        <ele>24</ele>
        <time>2009-05-19T09:46:42Z</time>
      </trkpt>
      <trkpt lat="44.79159" lon="-0.59413">
        <ele>24</ele>
        <time>2009-05-19T09:46:42Z</time>
      </trkpt>
      <trkpt lat="44.79156" lon="-0.59413">
        <ele>24</ele>
        <time>2009-05-19T09:46:43Z</time>
      </trkpt>
      <trkpt lat="44.79154" lon="-0.59414">
        <ele>23</ele>
        <time>2009-05-19T09:46:44Z</time>
      </trkpt>
      <trkpt lat="44.79151" lon="-0.59415">
        <ele>23</ele>
        <time>2009-05-19T09:46:45Z</time>
      </trkpt>
      <trkpt lat="44.79149" lon="-0.59417">
        <ele>23</ele>
        <time>2009-05-19T09:46:47Z</time>
      </trkpt>
      <trkpt lat="44.79146" lon="-0.59419">
        <ele>23</ele>
        <time>2009-05-19T09:46:47Z</time>
      </trkpt>
      <trkpt lat="44.79144" lon="-0.59422">
        <ele>22</ele>
        <time>2009-05-19T09:46:48Z</time>
      </trkpt>
      <trkpt lat="44.79142" lon="-0.59426">
        <ele>22</ele>
        <time>2009-05-19T09:46:49Z</time>
      </trkpt>
      <trkpt lat="44.79139" lon="-0.59428">
        <ele>22</ele>
        <time>2009-05-19T09:46:50Z</time>
      </trkpt>
      <trkpt lat="44.79137" lon="-0.59431">
        <ele>22</ele>
        <time>2009-05-19T09:46:52Z</time>
      </trkpt>
      <trkpt lat="44.79135" lon="-0.59434">
        <ele>22</ele>
        <time>2009-05-19T09:46:52Z</time>
      </trkpt>
      <trkpt lat="44.79133" lon="-0.59437">
        <ele>22</ele>
        <time>2009-05-19T09:46:53Z</time>
      </trkpt>
      <trkpt lat="44.79132" lon="-0.5944">
        <ele>22</ele>
        <time>2009-05-19T09:46:54Z</time>
      </trkpt>
      <trkpt lat="44.7913" lon="-0.59443">
        <ele>22</ele>
        <time>2009-05-19T09:46:55Z</time>
      </trkpt>
      <trkpt lat="44.79128" lon="-0.59446">
        <ele>22</ele>
        <time>2009-05-19T09:46:57Z</time>
      </trkpt>
      <trkpt lat="44.79126" lon="-0.59449">
        <ele>22</ele>
        <time>2009-05-19T09:46:57Z</time>
      </trkpt>
      <trkpt lat="44.79124" lon="-0.59452">
        <ele>22</ele>
        <time>2009-05-19T09:46:58Z</time>
      </trkpt>
      <trkpt lat="44.79122" lon="-0.59455">
        <ele>22</ele>
        <time>2009-05-19T09:46:59Z</time>
      </trkpt>
      <trkpt lat="44.79121" lon="-0.59458">
        <ele>22</ele>
        <time>2009-05-19T09:47:00Z</time>
      </trkpt>
      <trkpt lat="44.7912" lon="-0.59461">
        <ele>22</ele>
        <time>2009-05-19T09:47:02Z</time>
      </trkpt>
      <trkpt lat="44.79118" lon="-0.59465">
        <ele>22</ele>
        <time>2009-05-19T09:47:02Z</time>
      </trkpt>
      <trkpt lat="44.79117" lon="-0.59468">
        <ele>22</ele>
        <time>2009-05-19T09:47:03Z</time>
      </trkpt>
      <trkpt lat="44.79117" lon="-0.59472">
        <ele>22</ele>
        <time>2009-05-19T09:47:04Z</time>
      </trkpt>
      <trkpt lat="44.79116" lon="-0.59476">
        <ele>22</ele>
        <time>2009-05-19T09:47:05Z</time>
      </trkpt>
      <trkpt lat="44.79116" lon="-0.59479">
        <ele>22</ele>
        <time>2009-05-19T09:47:07Z</time>
      </trkpt>
      <trkpt lat="44.79115" lon="-0.59483">
        <ele>22</ele>
        <time>2009-05-19T09:47:07Z</time>
      </trkpt>
      <trkpt lat="44.79115" lon="-0.59488">
        <ele>22</ele>
        <time>2009-05-19T09:47:08Z</time>
      </trkpt>
      <trkpt lat="44.79114" lon="-0.59492">
        <ele>22</ele>
        <time>2009-05-19T09:47:09Z</time>
      </trkpt>
      <trkpt lat="44.79114" lon="-0.59496">
        <ele>22</ele>
        <time>2009-05-19T09:47:10Z</time>
      </trkpt>
      <trkpt lat="44.79113" lon="-0.595">
        <ele>22</ele>
        <time>2009-05-19T09:47:12Z</time>
      </trkpt>
      <trkpt lat="44.79112" lon="-0.59504">
        <ele>22</ele>
        <time>2009-05-19T09:47:12Z</time>
      </trkpt>
      <trkpt lat="44.79112" lon="-0.59508">
        <ele>22</ele>
        <time>2009-05-19T09:47:13Z</time>
      </trkpt>
      <trkpt lat="44.79111" lon="-0.59512">
        <ele>22</ele>
        <time>2009-05-19T09:47:14Z</time>
      </trkpt>
      <trkpt lat="44.79111" lon="-0.59516">
        <ele>22</ele>
        <time>2009-05-19T09:47:15Z</time>
      </trkpt>
      <trkpt lat="44.79111" lon="-0.5952">
        <ele>22</ele>
        <time>2009-05-19T09:47:17Z</time>
      </trkpt>
      <trkpt lat="44.79111" lon="-0.59525">
        <ele>22</ele>
        <time>2009-05-19T09:47:18Z</time>
      </trkpt>
      <trkpt lat="44.79111" lon="-0.59529">
        <ele>22</ele>
        <time>2009-05-19T09:47:19Z</time>
      </trkpt>
      <trkpt lat="44.79111" lon="-0.59533">
        <ele>22</ele>
        <time>2009-05-19T09:47:20Z</time>
      </trkpt>
      <trkpt lat="44.79112" lon="-0.59536">
        <ele>22</ele>
        <time>2009-05-19T09:47:21Z</time>
      </trkpt>
      <trkpt lat="44.79112" lon="-0.5954">
        <ele>22</ele>
        <time>2009-05-19T09:47:22Z</time>
      </trkpt>
      <trkpt lat="44.79113" lon="-0.59545">
        <ele>22</ele>
        <time>2009-05-19T09:47:22Z</time>
      </trkpt>
      <trkpt lat="44.79113" lon="-0.59549">
        <ele>22</ele>
        <time>2009-05-19T09:47:23Z</time>
      </trkpt>
      <trkpt lat="44.79114" lon="-0.59552">
        <ele>22</ele>
        <time>2009-05-19T09:47:24Z</time>
      </trkpt>
      <trkpt lat="44.79116" lon="-0.59556">
        <ele>22</ele>
        <time>2009-05-19T09:47:25Z</time>
      </trkpt>
      <trkpt lat="44.79117" lon="-0.5956">
        <ele>22</ele>
        <time>2009-05-19T09:47:26Z</time>
      </trkpt>
      <trkpt lat="44.79118" lon="-0.59563">
        <ele>22</ele>
        <time>2009-05-19T09:47:28Z</time>
      </trkpt>
      <trkpt lat="44.7912" lon="-0.59566">
        <ele>22</ele>
        <time>2009-05-19T09:47:28Z</time>
      </trkpt>
      <trkpt lat="44.79122" lon="-0.59569">
        <ele>22</ele>
        <time>2009-05-19T09:47:29Z</time>
      </trkpt>
      <trkpt lat="44.79124" lon="-0.59571">
        <ele>21</ele>
        <time>2009-05-19T09:47:30Z</time>
      </trkpt>
      <trkpt lat="44.79127" lon="-0.59573">
        <ele>21</ele>
        <time>2009-05-19T09:47:31Z</time>
      </trkpt>
      <trkpt lat="44.79129" lon="-0.59575">
        <ele>21</ele>
        <time>2009-05-19T09:47:33Z</time>
      </trkpt>
      <trkpt lat="44.79131" lon="-0.59576">
        <ele>21</ele>
        <time>2009-05-19T09:47:33Z</time>
      </trkpt>
      <trkpt lat="44.79133" lon="-0.59577">
        <ele>21</ele>
        <time>2009-05-19T09:47:34Z</time>
      </trkpt>
      <trkpt lat="44.79136" lon="-0.59577">
        <ele>20</ele>
        <time>2009-05-19T09:47:35Z</time>
      </trkpt>
      <trkpt lat="44.79139" lon="-0.59578">
        <ele>20</ele>
        <time>2009-05-19T09:47:36Z</time>
      </trkpt>
      <trkpt lat="44.79143" lon="-0.59578">
        <ele>20</ele>
        <time>2009-05-19T09:47:37Z</time>
      </trkpt>
      <trkpt lat="44.79146" lon="-0.59579">
        <ele>19</ele>
        <time>2009-05-19T09:47:38Z</time>
      </trkpt>
      <trkpt lat="44.79149" lon="-0.59579">
        <ele>19</ele>
        <time>2009-05-19T09:47:39Z</time>
      </trkpt>
      <trkpt lat="44.79151" lon="-0.59579">
        <ele>19</ele>
        <time>2009-05-19T09:47:40Z</time>
      </trkpt>
      <trkpt lat="44.79153" lon="-0.5958">
        <ele>19</ele>
        <time>2009-05-19T09:47:41Z</time>
      </trkpt>
      <trkpt lat="44.79155" lon="-0.5958">
        <ele>19</ele>
        <time>2009-05-19T09:47:43Z</time>
      </trkpt>
      <trkpt lat="44.79158" lon="-0.59581">
        <ele>19</ele>
        <time>2009-05-19T09:47:43Z</time>
      </trkpt>
      <trkpt lat="44.79161" lon="-0.59582">
        <ele>19</ele>
        <time>2009-05-19T09:47:44Z</time>
      </trkpt>
      <trkpt lat="44.79164" lon="-0.59583">
        <ele>19</ele>
        <time>2009-05-19T09:47:45Z</time>
      </trkpt>
      <trkpt lat="44.79167" lon="-0.59584">
        <ele>19</ele>
        <time>2009-05-19T09:47:46Z</time>
      </trkpt>
      <trkpt lat="44.79169" lon="-0.59584">
        <ele>19</ele>
        <time>2009-05-19T09:47:48Z</time>
      </trkpt>
      <trkpt lat="44.79171" lon="-0.59585">
        <ele>19</ele>
        <time>2009-05-19T09:47:48Z</time>
      </trkpt>
      <trkpt lat="44.79173" lon="-0.59586">
        <ele>19</ele>
        <time>2009-05-19T09:47:49Z</time>
      </trkpt>
      <trkpt lat="44.79176" lon="-0.59588">
        <ele>19</ele>
        <time>2009-05-19T09:47:50Z</time>
      </trkpt>
      <trkpt lat="44.79178" lon="-0.59589">
        <ele>19</ele>
        <time>2009-05-19T09:47:51Z</time>
      </trkpt>
      <trkpt lat="44.7918" lon="-0.59591">
        <ele>19</ele>
        <time>2009-05-19T09:47:52Z</time>
      </trkpt>
      <trkpt lat="44.79183" lon="-0.59593">
        <ele>18</ele>
        <time>2009-05-19T09:47:53Z</time>
      </trkpt>
      <trkpt lat="44.79185" lon="-0.59595">
        <ele>18</ele>
        <time>2009-05-19T09:47:54Z</time>
      </trkpt>
      <trkpt lat="44.79187" lon="-0.59597">
        <ele>17</ele>
        <time>2009-05-19T09:47:55Z</time>
      </trkpt>
      <trkpt lat="44.79189" lon="-0.59598">
        <ele>16</ele>
        <time>2009-05-19T09:47:56Z</time>
      </trkpt>
      <trkpt lat="44.79191" lon="-0.59601">
        <ele>16</ele>
        <time>2009-05-19T09:47:58Z</time>
      </trkpt>
      <trkpt lat="44.79193" lon="-0.59603">
        <ele>15</ele>
        <time>2009-05-19T09:47:58Z</time>
      </trkpt>
      <trkpt lat="44.79195" lon="-0.59605">
        <ele>15</ele>
        <time>2009-05-19T09:47:59Z</time>
      </trkpt>
      <trkpt lat="44.79197" lon="-0.59607">
        <ele>14</ele>
        <time>2009-05-19T09:48:00Z</time>
      </trkpt>
      <trkpt lat="44.79199" lon="-0.59609">
        <ele>14</ele>
        <time>2009-05-19T09:48:01Z</time>
      </trkpt>
      <trkpt lat="44.79202" lon="-0.59611">
        <ele>14</ele>
        <time>2009-05-19T09:48:02Z</time>
      </trkpt>
      <trkpt lat="44.79204" lon="-0.59613">
        <ele>14</ele>
        <time>2009-05-19T09:48:03Z</time>
      </trkpt>
      <trkpt lat="44.79207" lon="-0.59615">
        <ele>14</ele>
        <time>2009-05-19T09:48:04Z</time>
      </trkpt>
      <trkpt lat="44.7921" lon="-0.59617">
        <ele>14</ele>
        <time>2009-05-19T09:48:05Z</time>
      </trkpt>
      <trkpt lat="44.79212" lon="-0.59619">
        <ele>14</ele>
        <time>2009-05-19T09:48:06Z</time>
      </trkpt>
      <trkpt lat="44.79215" lon="-0.59621">
        <ele>14</ele>
        <time>2009-05-19T09:48:07Z</time>
      </trkpt>
      <trkpt lat="44.79217" lon="-0.59623">
        <ele>14</ele>
        <time>2009-05-19T09:48:08Z</time>
      </trkpt>
      <trkpt lat="44.7922" lon="-0.59626">
        <ele>14</ele>
        <time>2009-05-19T09:48:09Z</time>
      </trkpt>
      <trkpt lat="44.79222" lon="-0.59628">
        <ele>14</ele>
        <time>2009-05-19T09:48:10Z</time>
      </trkpt>
      <trkpt lat="44.79225" lon="-0.59629">
        <ele>14</ele>
        <time>2009-05-19T09:48:11Z</time>
      </trkpt>
      <trkpt lat="44.79228" lon="-0.59631">
        <ele>14</ele>
        <time>2009-05-19T09:48:12Z</time>
      </trkpt>
      <trkpt lat="44.79231" lon="-0.59632">
        <ele>14</ele>
        <time>2009-05-19T09:48:13Z</time>
      </trkpt>
      <trkpt lat="44.79234" lon="-0.59634">
        <ele>14</ele>
        <time>2009-05-19T09:48:14Z</time>
      </trkpt>
      <trkpt lat="44.79237" lon="-0.59636">
        <ele>14</ele>
        <time>2009-05-19T09:48:15Z</time>
      </trkpt>
      <trkpt lat="44.7924" lon="-0.59637">
        <ele>14</ele>
        <time>2009-05-19T09:48:16Z</time>
      </trkpt>
      <trkpt lat="44.79243" lon="-0.59639">
        <ele>14</ele>
        <time>2009-05-19T09:48:18Z</time>
      </trkpt>
      <trkpt lat="44.79246" lon="-0.59642">
        <ele>15</ele>
        <time>2009-05-19T09:48:18Z</time>
      </trkpt>
      <trkpt lat="44.79248" lon="-0.59645">
        <ele>15</ele>
        <time>2009-05-19T09:48:19Z</time>
      </trkpt>
      <trkpt lat="44.79249" lon="-0.59648">
        <ele>15</ele>
        <time>2009-05-19T09:48:20Z</time>
      </trkpt>
      <trkpt lat="44.79251" lon="-0.59651">
        <ele>15</ele>
        <time>2009-05-19T09:48:21Z</time>
      </trkpt>
      <trkpt lat="44.79253" lon="-0.59654">
        <ele>15</ele>
        <time>2009-05-19T09:48:22Z</time>
      </trkpt>
      <trkpt lat="44.79255" lon="-0.59656">
        <ele>15</ele>
        <time>2009-05-19T09:48:23Z</time>
      </trkpt>
      <trkpt lat="44.79257" lon="-0.59659">
        <ele>15</ele>
        <time>2009-05-19T09:48:24Z</time>
      </trkpt>
      <trkpt lat="44.79259" lon="-0.59662">
        <ele>15</ele>
        <time>2009-05-19T09:48:25Z</time>
      </trkpt>
      <trkpt lat="44.79261" lon="-0.59664">
        <ele>15</ele>
        <time>2009-05-19T09:48:26Z</time>
      </trkpt>
      <trkpt lat="44.79263" lon="-0.59666">
        <ele>15</ele>
        <time>2009-05-19T09:48:27Z</time>
      </trkpt>
      <trkpt lat="44.79265" lon="-0.59669">
        <ele>15</ele>
        <time>2009-05-19T09:48:28Z</time>
      </trkpt>
      <trkpt lat="44.79266" lon="-0.59671">
        <ele>16</ele>
        <time>2009-05-19T09:48:29Z</time>
      </trkpt>
      <trkpt lat="44.79268" lon="-0.59674">
        <ele>16</ele>
        <time>2009-05-19T09:48:30Z</time>
      </trkpt>
      <trkpt lat="44.79269" lon="-0.59678">
        <ele>16</ele>
        <time>2009-05-19T09:48:31Z</time>
      </trkpt>
      <trkpt lat="44.7927" lon="-0.59681">
        <ele>16</ele>
        <time>2009-05-19T09:48:33Z</time>
      </trkpt>
      <trkpt lat="44.79271" lon="-0.59685">
        <ele>16</ele>
        <time>2009-05-19T09:48:33Z</time>
      </trkpt>
      <trkpt lat="44.79272" lon="-0.59688">
        <ele>16</ele>
        <time>2009-05-19T09:48:34Z</time>
      </trkpt>
      <trkpt lat="44.79272" lon="-0.59691">
        <ele>16</ele>
        <time>2009-05-19T09:48:35Z</time>
      </trkpt>
      <trkpt lat="44.79273" lon="-0.59694">
        <ele>16</ele>
        <time>2009-05-19T09:48:36Z</time>
      </trkpt>
      <trkpt lat="44.79274" lon="-0.59698">
        <ele>16</ele>
        <time>2009-05-19T09:48:38Z</time>
      </trkpt>
      <trkpt lat="44.79275" lon="-0.59701">
        <ele>16</ele>
        <time>2009-05-19T09:48:39Z</time>
      </trkpt>
      <trkpt lat="44.79276" lon="-0.59704">
        <ele>16</ele>
        <time>2009-05-19T09:48:40Z</time>
      </trkpt>
      <trkpt lat="44.79277" lon="-0.59707">
        <ele>16</ele>
        <time>2009-05-19T09:48:41Z</time>
      </trkpt>
      <trkpt lat="44.79277" lon="-0.59711">
        <ele>16</ele>
        <time>2009-05-19T09:48:42Z</time>
      </trkpt>
      <trkpt lat="44.79277" lon="-0.59715">
        <ele>16</ele>
        <time>2009-05-19T09:48:43Z</time>
      </trkpt>
      <trkpt lat="44.79277" lon="-0.59719">
        <ele>16</ele>
        <time>2009-05-19T09:48:43Z</time>
      </trkpt>
      <trkpt lat="44.79276" lon="-0.59723">
        <ele>17</ele>
        <time>2009-05-19T09:48:44Z</time>
      </trkpt>
      <trkpt lat="44.79276" lon="-0.59727">
        <ele>17</ele>
        <time>2009-05-19T09:48:45Z</time>
      </trkpt>
      <trkpt lat="44.79275" lon="-0.5973">
        <ele>17</ele>
        <time>2009-05-19T09:48:46Z</time>
      </trkpt>
      <trkpt lat="44.79274" lon="-0.59733">
        <ele>18</ele>
        <time>2009-05-19T09:48:48Z</time>
      </trkpt>
      <trkpt lat="44.79273" lon="-0.59736">
        <ele>18</ele>
        <time>2009-05-19T09:48:48Z</time>
      </trkpt>
      <trkpt lat="44.79272" lon="-0.59738">
        <ele>19</ele>
        <time>2009-05-19T09:48:49Z</time>
      </trkpt>
      <trkpt lat="44.79272" lon="-0.5974">
        <ele>19</ele>
        <time>2009-05-19T09:48:50Z</time>
      </trkpt>
      <trkpt lat="44.79271" lon="-0.59743">
        <ele>19</ele>
        <time>2009-05-19T09:48:51Z</time>
      </trkpt>
      <trkpt lat="44.7927" lon="-0.59746">
        <ele>19</ele>
        <time>2009-05-19T09:48:53Z</time>
      </trkpt>
      <trkpt lat="44.79269" lon="-0.59749">
        <ele>20</ele>
        <time>2009-05-19T09:48:53Z</time>
      </trkpt>
      <trkpt lat="44.79268" lon="-0.59753">
        <ele>20</ele>
        <time>2009-05-19T09:48:54Z</time>
      </trkpt>
      <trkpt lat="44.79267" lon="-0.59756">
        <ele>20</ele>
        <time>2009-05-19T09:48:55Z</time>
      </trkpt>
      <trkpt lat="44.79266" lon="-0.5976">
        <ele>20</ele>
        <time>2009-05-19T09:48:56Z</time>
      </trkpt>
      <trkpt lat="44.79264" lon="-0.59764">
        <ele>20</ele>
        <time>2009-05-19T09:48:57Z</time>
      </trkpt>
      <trkpt lat="44.79263" lon="-0.59767">
        <ele>20</ele>
        <time>2009-05-19T09:48:58Z</time>
      </trkpt>
      <trkpt lat="44.79262" lon="-0.59771">
        <ele>20</ele>
        <time>2009-05-19T09:48:59Z</time>
      </trkpt>
      <trkpt lat="44.79261" lon="-0.59775">
        <ele>20</ele>
        <time>2009-05-19T09:49:00Z</time>
      </trkpt>
      <trkpt lat="44.7926" lon="-0.59779">
        <ele>20</ele>
        <time>2009-05-19T09:49:01Z</time>
      </trkpt>
      <trkpt lat="44.7926" lon="-0.59783">
        <ele>21</ele>
        <time>2009-05-19T09:49:03Z</time>
      </trkpt>
      <trkpt lat="44.79259" lon="-0.59786">
        <ele>21</ele>
        <time>2009-05-19T09:49:03Z</time>
      </trkpt>
      <trkpt lat="44.79258" lon="-0.5979">
        <ele>21</ele>
        <time>2009-05-19T09:49:04Z</time>
      </trkpt>
      <trkpt lat="44.79258" lon="-0.59793">
        <ele>22</ele>
        <time>2009-05-19T09:49:05Z</time>
      </trkpt>
      <trkpt lat="44.79257" lon="-0.59797">
        <ele>22</ele>
        <time>2009-05-19T09:49:06Z</time>
      </trkpt>
      <trkpt lat="44.79256" lon="-0.59801">
        <ele>22</ele>
        <time>2009-05-19T09:49:07Z</time>
      </trkpt>
      <trkpt lat="44.79256" lon="-0.59805">
        <ele>22</ele>
        <time>2009-05-19T09:49:08Z</time>
      </trkpt>
      <trkpt lat="44.79255" lon="-0.59809">
        <ele>22</ele>
        <time>2009-05-19T09:49:09Z</time>
      </trkpt>
      <trkpt lat="44.79255" lon="-0.59812">
        <ele>22</ele>
        <time>2009-05-19T09:49:10Z</time>
      </trkpt>
      <trkpt lat="44.79254" lon="-0.59816">
        <ele>22</ele>
        <time>2009-05-19T09:49:11Z</time>
      </trkpt>
      <trkpt lat="44.79254" lon="-0.5982">
        <ele>22</ele>
        <time>2009-05-19T09:49:12Z</time>
      </trkpt>
      <trkpt lat="44.79255" lon="-0.59824">
        <ele>22</ele>
        <time>2009-05-19T09:49:13Z</time>
      </trkpt>
      <trkpt lat="44.79256" lon="-0.59827">
        <ele>22</ele>
        <time>2009-05-19T09:49:14Z</time>
      </trkpt>
      <trkpt lat="44.79257" lon="-0.59831">
        <ele>22</ele>
        <time>2009-05-19T09:49:15Z</time>
      </trkpt>
      <trkpt lat="44.79259" lon="-0.59834">
        <ele>23</ele>
        <time>2009-05-19T09:49:16Z</time>
      </trkpt>
      <trkpt lat="44.79261" lon="-0.59836">
        <ele>23</ele>
        <time>2009-05-19T09:49:17Z</time>
      </trkpt>
      <trkpt lat="44.79263" lon="-0.59839">
        <ele>23</ele>
        <time>2009-05-19T09:49:18Z</time>
      </trkpt>
      <trkpt lat="44.79265" lon="-0.59842">
        <ele>23</ele>
        <time>2009-05-19T09:49:19Z</time>
      </trkpt>
      <trkpt lat="44.79268" lon="-0.59844">
        <ele>23</ele>
        <time>2009-05-19T09:49:20Z</time>
      </trkpt>
      <trkpt lat="44.7927" lon="-0.59845">
        <ele>23</ele>
        <time>2009-05-19T09:49:21Z</time>
      </trkpt>
      <trkpt lat="44.79272" lon="-0.59847">
        <ele>23</ele>
        <time>2009-05-19T09:49:23Z</time>
      </trkpt>
      <trkpt lat="44.79275" lon="-0.59848">
        <ele>23</ele>
        <time>2009-05-19T09:49:23Z</time>
      </trkpt>
      <trkpt lat="44.79278" lon="-0.59849">
        <ele>23</ele>
        <time>2009-05-19T09:49:24Z</time>
      </trkpt>
      <trkpt lat="44.79281" lon="-0.5985">
        <ele>23</ele>
        <time>2009-05-19T09:49:25Z</time>
      </trkpt>
      <trkpt lat="44.79283" lon="-0.59852">
        <ele>23</ele>
        <time>2009-05-19T09:49:26Z</time>
      </trkpt>
      <trkpt lat="44.79286" lon="-0.59852">
        <ele>23</ele>
        <time>2009-05-19T09:49:27Z</time>
      </trkpt>
      <trkpt lat="44.79288" lon="-0.59853">
        <ele>23</ele>
        <time>2009-05-19T09:49:28Z</time>
      </trkpt>
      <trkpt lat="44.79291" lon="-0.59854">
        <ele>23</ele>
        <time>2009-05-19T09:49:29Z</time>
      </trkpt>
      <trkpt lat="44.79293" lon="-0.59855">
        <ele>23</ele>
        <time>2009-05-19T09:49:30Z</time>
      </trkpt>
      <trkpt lat="44.79296" lon="-0.59856">
        <ele>23</ele>
        <time>2009-05-19T09:49:31Z</time>
      </trkpt>
      <trkpt lat="44.79299" lon="-0.59857">
        <ele>23</ele>
        <time>2009-05-19T09:49:33Z</time>
      </trkpt>
      <trkpt lat="44.79302" lon="-0.59858">
        <ele>23</ele>
        <time>2009-05-19T09:49:33Z</time>
      </trkpt>
      <trkpt lat="44.79304" lon="-0.59859">
        <ele>23</ele>
        <time>2009-05-19T09:49:34Z</time>
      </trkpt>
      <trkpt lat="44.79306" lon="-0.5986">
        <ele>23</ele>
        <time>2009-05-19T09:49:35Z</time>
      </trkpt>
      <trkpt lat="44.79309" lon="-0.59861">
        <ele>23</ele>
        <time>2009-05-19T09:49:36Z</time>
      </trkpt>
      <trkpt lat="44.79311" lon="-0.59861">
        <ele>23</ele>
        <time>2009-05-19T09:49:38Z</time>
      </trkpt>
      <trkpt lat="44.79314" lon="-0.59861">
        <ele>23</ele>
        <time>2009-05-19T09:49:38Z</time>
      </trkpt>
      <trkpt lat="44.79317" lon="-0.59861">
        <ele>23</ele>
        <time>2009-05-19T09:49:39Z</time>
      </trkpt>
      <trkpt lat="44.79319" lon="-0.59862">
        <ele>23</ele>
        <time>2009-05-19T09:49:40Z</time>
      </trkpt>
      <trkpt lat="44.79322" lon="-0.59863">
        <ele>23</ele>
        <time>2009-05-19T09:49:41Z</time>
      </trkpt>
      <trkpt lat="44.79324" lon="-0.59864">
        <ele>23</ele>
        <time>2009-05-19T09:49:43Z</time>
      </trkpt>
      <trkpt lat="44.79327" lon="-0.59866">
        <ele>23</ele>
        <time>2009-05-19T09:49:43Z</time>
      </trkpt>
      <trkpt lat="44.79329" lon="-0.59867">
        <ele>23</ele>
        <time>2009-05-19T09:49:44Z</time>
      </trkpt>
      <trkpt lat="44.7933" lon="-0.59869">
        <ele>23</ele>
        <time>2009-05-19T09:49:45Z</time>
      </trkpt>
      <trkpt lat="44.79332" lon="-0.59871">
        <ele>23</ele>
        <time>2009-05-19T09:49:46Z</time>
      </trkpt>
      <trkpt lat="44.79334" lon="-0.59873">
        <ele>23</ele>
        <time>2009-05-19T09:49:48Z</time>
      </trkpt>
      <trkpt lat="44.79337" lon="-0.59877">
        <ele>23</ele>
        <time>2009-05-19T09:49:48Z</time>
      </trkpt>
      <trkpt lat="44.79339" lon="-0.5988">
        <ele>23</ele>
        <time>2009-05-19T09:49:49Z</time>
      </trkpt>
      <trkpt lat="44.79341" lon="-0.59882">
        <ele>23</ele>
        <time>2009-05-19T09:49:50Z</time>
      </trkpt>
      <trkpt lat="44.79344" lon="-0.59883">
        <ele>23</ele>
        <time>2009-05-19T09:49:51Z</time>
      </trkpt>
      <trkpt lat="44.79346" lon="-0.59884">
        <ele>23</ele>
        <time>2009-05-19T09:49:52Z</time>
      </trkpt>
      <trkpt lat="44.79348" lon="-0.59881">
        <ele>23</ele>
        <time>2009-05-19T09:49:53Z</time>
      </trkpt>
      <trkpt lat="44.79348" lon="-0.59877">
        <ele>22</ele>
        <time>2009-05-19T09:49:54Z</time>
      </trkpt>
      <trkpt lat="44.79349" lon="-0.59874">
        <ele>22</ele>
        <time>2009-05-19T09:49:55Z</time>
      </trkpt>
      <trkpt lat="44.79349" lon="-0.5987">
        <ele>21</ele>
        <time>2009-05-19T09:49:56Z</time>
      </trkpt>
      <trkpt lat="44.79351" lon="-0.59867">
        <ele>21</ele>
        <time>2009-05-19T09:49:57Z</time>
      </trkpt>
      <trkpt lat="44.79352" lon="-0.59863">
        <ele>21</ele>
        <time>2009-05-19T09:49:58Z</time>
      </trkpt>
      <trkpt lat="44.79354" lon="-0.5986">
        <ele>21</ele>
        <time>2009-05-19T09:49:59Z</time>
      </trkpt>
      <trkpt lat="44.79355" lon="-0.59856">
        <ele>21</ele>
        <time>2009-05-19T09:50:01Z</time>
      </trkpt>
      <trkpt lat="44.79357" lon="-0.59853">
        <ele>21</ele>
        <time>2009-05-19T09:50:02Z</time>
      </trkpt>
      <trkpt lat="44.79358" lon="-0.59849">
        <ele>21</ele>
        <time>2009-05-19T09:50:03Z</time>
      </trkpt>
      <trkpt lat="44.7936" lon="-0.59846">
        <ele>21</ele>
        <time>2009-05-19T09:50:04Z</time>
      </trkpt>
      <trkpt lat="44.79362" lon="-0.59843">
        <ele>21</ele>
        <time>2009-05-19T09:50:05Z</time>
      </trkpt>
      <trkpt lat="44.79364" lon="-0.59839">
        <ele>21</ele>
        <time>2009-05-19T09:50:05Z</time>
      </trkpt>
      <trkpt lat="44.79365" lon="-0.59836">
        <ele>21</ele>
        <time>2009-05-19T09:50:06Z</time>
      </trkpt>
      <trkpt lat="44.79366" lon="-0.59833">
        <ele>21</ele>
        <time>2009-05-19T09:50:07Z</time>
      </trkpt>
      <trkpt lat="44.79368" lon="-0.5983">
        <ele>21</ele>
        <time>2009-05-19T09:50:08Z</time>
      </trkpt>
      <trkpt lat="44.79369" lon="-0.59827">
        <ele>21</ele>
        <time>2009-05-19T09:50:09Z</time>
      </trkpt>
      <trkpt lat="44.7937" lon="-0.59825">
        <ele>21</ele>
        <time>2009-05-19T09:50:10Z</time>
      </trkpt>
      <trkpt lat="44.79372" lon="-0.59822">
        <ele>21</ele>
        <time>2009-05-19T09:50:11Z</time>
      </trkpt>
      <trkpt lat="44.79373" lon="-0.59818">
        <ele>21</ele>
        <time>2009-05-19T09:50:12Z</time>
      </trkpt>
      <trkpt lat="44.79374" lon="-0.59815">
        <ele>21</ele>
        <time>2009-05-19T09:50:13Z</time>
      </trkpt>
      <trkpt lat="44.79376" lon="-0.59812">
        <ele>21</ele>
        <time>2009-05-19T09:50:14Z</time>
      </trkpt>
      <trkpt lat="44.79377" lon="-0.59808">
        <ele>21</ele>
        <time>2009-05-19T09:50:15Z</time>
      </trkpt>
      <trkpt lat="44.79378" lon="-0.59806">
        <ele>21</ele>
        <time>2009-05-19T09:50:16Z</time>
      </trkpt>
      <trkpt lat="44.7938" lon="-0.59803">
        <ele>21</ele>
        <time>2009-05-19T09:50:17Z</time>
      </trkpt>
      <trkpt lat="44.79381" lon="-0.59801">
        <ele>21</ele>
        <time>2009-05-19T09:50:19Z</time>
      </trkpt>
      <trkpt lat="44.79383" lon="-0.59798">
        <ele>21</ele>
        <time>2009-05-19T09:50:19Z</time>
      </trkpt>
      <trkpt lat="44.79384" lon="-0.59795">
        <ele>21</ele>
        <time>2009-05-19T09:50:20Z</time>
      </trkpt>
      <trkpt lat="44.79386" lon="-0.59792">
        <ele>21</ele>
        <time>2009-05-19T09:50:21Z</time>
      </trkpt>
      <trkpt lat="44.79387" lon="-0.5979">
        <ele>21</ele>
        <time>2009-05-19T09:50:22Z</time>
      </trkpt>
      <trkpt lat="44.79389" lon="-0.59787">
        <ele>21</ele>
        <time>2009-05-19T09:50:23Z</time>
      </trkpt>
      <trkpt lat="44.7939" lon="-0.59784">
        <ele>21</ele>
        <time>2009-05-19T09:50:24Z</time>
      </trkpt>
      <trkpt lat="44.79392" lon="-0.59781">
        <ele>21</ele>
        <time>2009-05-19T09:50:25Z</time>
      </trkpt>
      <trkpt lat="44.79393" lon="-0.59778">
        <ele>21</ele>
        <time>2009-05-19T09:50:26Z</time>
      </trkpt>
      <trkpt lat="44.79395" lon="-0.59775">
        <ele>21</ele>
        <time>2009-05-19T09:50:27Z</time>
      </trkpt>
      <trkpt lat="44.79397" lon="-0.59773">
        <ele>21</ele>
        <time>2009-05-19T09:50:28Z</time>
      </trkpt>
      <trkpt lat="44.79398" lon="-0.5977">
        <ele>21</ele>
        <time>2009-05-19T09:50:29Z</time>
      </trkpt>
      <trkpt lat="44.79399" lon="-0.59768">
        <ele>21</ele>
        <time>2009-05-19T09:50:30Z</time>
      </trkpt>
      <trkpt lat="44.79401" lon="-0.59765">
        <ele>21</ele>
        <time>2009-05-19T09:50:31Z</time>
      </trkpt>
      <trkpt lat="44.79402" lon="-0.59761">
        <ele>21</ele>
        <time>2009-05-19T09:50:32Z</time>
      </trkpt>
      <trkpt lat="44.79404" lon="-0.59759">
        <ele>21</ele>
        <time>2009-05-19T09:50:33Z</time>
      </trkpt>
      <trkpt lat="44.79405" lon="-0.59756">
        <ele>21</ele>
        <time>2009-05-19T09:50:34Z</time>
      </trkpt>
      <trkpt lat="44.79407" lon="-0.59753">
        <ele>21</ele>
        <time>2009-05-19T09:50:35Z</time>
      </trkpt>
      <trkpt lat="44.79409" lon="-0.59751">
        <ele>21</ele>
        <time>2009-05-19T09:50:36Z</time>
      </trkpt>
      <trkpt lat="44.79411" lon="-0.59749">
        <ele>21</ele>
        <time>2009-05-19T09:50:37Z</time>
      </trkpt>
      <trkpt lat="44.79413" lon="-0.59746">
        <ele>20</ele>
        <time>2009-05-19T09:50:38Z</time>
      </trkpt>
      <trkpt lat="44.79415" lon="-0.59743">
        <ele>20</ele>
        <time>2009-05-19T09:50:39Z</time>
      </trkpt>
      <trkpt lat="44.79416" lon="-0.59741">
        <ele>20</ele>
        <time>2009-05-19T09:50:40Z</time>
      </trkpt>
      <trkpt lat="44.79418" lon="-0.59738">
        <ele>19</ele>
        <time>2009-05-19T09:50:41Z</time>
      </trkpt>
      <trkpt lat="44.7942" lon="-0.59735">
        <ele>19</ele>
        <time>2009-05-19T09:50:42Z</time>
      </trkpt>
      <trkpt lat="44.79422" lon="-0.59732">
        <ele>19</ele>
        <time>2009-05-19T09:50:43Z</time>
      </trkpt>
      <trkpt lat="44.79424" lon="-0.59729">
        <ele>18</ele>
        <time>2009-05-19T09:50:44Z</time>
      </trkpt>
      <trkpt lat="44.79425" lon="-0.59726">
        <ele>18</ele>
        <time>2009-05-19T09:50:45Z</time>
      </trkpt>
      <trkpt lat="44.79427" lon="-0.59723">
        <ele>18</ele>
        <time>2009-05-19T09:50:46Z</time>
      </trkpt>
      <trkpt lat="44.79428" lon="-0.5972">
        <ele>18</ele>
        <time>2009-05-19T09:50:47Z</time>
      </trkpt>
      <trkpt lat="44.7943" lon="-0.59717">
        <ele>18</ele>
        <time>2009-05-19T09:50:48Z</time>
      </trkpt>
      <trkpt lat="44.79431" lon="-0.59714">
        <ele>18</ele>
        <time>2009-05-19T09:50:49Z</time>
      </trkpt>
      <trkpt lat="44.79432" lon="-0.59711">
        <ele>18</ele>
        <time>2009-05-19T09:50:50Z</time>
      </trkpt>
      <trkpt lat="44.79433" lon="-0.59708">
        <ele>18</ele>
        <time>2009-05-19T09:50:51Z</time>
      </trkpt>
      <trkpt lat="44.79434" lon="-0.59705">
        <ele>18</ele>
        <time>2009-05-19T09:50:52Z</time>
      </trkpt>
      <trkpt lat="44.79435" lon="-0.59702">
        <ele>18</ele>
        <time>2009-05-19T09:50:53Z</time>
      </trkpt>
      <trkpt lat="44.79436" lon="-0.59698">
        <ele>18</ele>
        <time>2009-05-19T09:50:54Z</time>
      </trkpt>
      <trkpt lat="44.79437" lon="-0.59695">
        <ele>18</ele>
        <time>2009-05-19T09:50:55Z</time>
      </trkpt>
      <trkpt lat="44.79437" lon="-0.59692">
        <ele>18</ele>
        <time>2009-05-19T09:50:56Z</time>
      </trkpt>
      <trkpt lat="44.79438" lon="-0.59688">
        <ele>18</ele>
        <time>2009-05-19T09:50:57Z</time>
      </trkpt>
      <trkpt lat="44.79438" lon="-0.59684">
        <ele>18</ele>
        <time>2009-05-19T09:50:58Z</time>
      </trkpt>
      <trkpt lat="44.79438" lon="-0.59681">
        <ele>18</ele>
        <time>2009-05-19T09:50:59Z</time>
      </trkpt>
      <trkpt lat="44.79439" lon="-0.59678">
        <ele>18</ele>
        <time>2009-05-19T09:51:00Z</time>
      </trkpt>
      <trkpt lat="44.7944" lon="-0.59675">
        <ele>18</ele>
        <time>2009-05-19T09:51:01Z</time>
      </trkpt>
      <trkpt lat="44.79441" lon="-0.59671">
        <ele>18</ele>
        <time>2009-05-19T09:51:02Z</time>
      </trkpt>
      <trkpt lat="44.79442" lon="-0.59667">
        <ele>18</ele>
        <time>2009-05-19T09:51:03Z</time>
      </trkpt>
      <trkpt lat="44.79443" lon="-0.59663">
        <ele>18</ele>
        <time>2009-05-19T09:51:04Z</time>
      </trkpt>
      <trkpt lat="44.79444" lon="-0.59659">
        <ele>18</ele>
        <time>2009-05-19T09:51:05Z</time>
      </trkpt>
      <trkpt lat="44.79444" lon="-0.59656">
        <ele>18</ele>
        <time>2009-05-19T09:51:06Z</time>
      </trkpt>
      <trkpt lat="44.79445" lon="-0.59653">
        <ele>18</ele>
        <time>2009-05-19T09:51:07Z</time>
      </trkpt>
      <trkpt lat="44.79445" lon="-0.59649">
        <ele>18</ele>
        <time>2009-05-19T09:51:08Z</time>
      </trkpt>
      <trkpt lat="44.79446" lon="-0.59645">
        <ele>18</ele>
        <time>2009-05-19T09:51:09Z</time>
      </trkpt>
      <trkpt lat="44.79446" lon="-0.59641">
        <ele>18</ele>
        <time>2009-05-19T09:51:10Z</time>
      </trkpt>
      <trkpt lat="44.79447" lon="-0.59638">
        <ele>18</ele>
        <time>2009-05-19T09:51:11Z</time>
      </trkpt>
      <trkpt lat="44.79447" lon="-0.59634">
        <ele>18</ele>
        <time>2009-05-19T09:51:12Z</time>
      </trkpt>
      <trkpt lat="44.79448" lon="-0.59631">
        <ele>18</ele>
        <time>2009-05-19T09:51:13Z</time>
      </trkpt>
      <trkpt lat="44.79448" lon="-0.59627">
        <ele>18</ele>
        <time>2009-05-19T09:51:14Z</time>
      </trkpt>
      <trkpt lat="44.79448" lon="-0.59623">
        <ele>18</ele>
        <time>2009-05-19T09:51:15Z</time>
      </trkpt>
      <trkpt lat="44.79449" lon="-0.5962">
        <ele>18</ele>
        <time>2009-05-19T09:51:16Z</time>
      </trkpt>
      <trkpt lat="44.79449" lon="-0.59616">
        <ele>18</ele>
        <time>2009-05-19T09:51:17Z</time>
      </trkpt>
      <trkpt lat="44.79449" lon="-0.59613">
        <ele>18</ele>
        <time>2009-05-19T09:51:18Z</time>
      </trkpt>
      <trkpt lat="44.7945" lon="-0.59609">
        <ele>18</ele>
        <time>2009-05-19T09:51:19Z</time>
      </trkpt>
      <trkpt lat="44.79451" lon="-0.59606">
        <ele>18</ele>
        <time>2009-05-19T09:51:20Z</time>
      </trkpt>
      <trkpt lat="44.79451" lon="-0.59602">
        <ele>18</ele>
        <time>2009-05-19T09:51:21Z</time>
      </trkpt>
      <trkpt lat="44.79451" lon="-0.59599">
        <ele>18</ele>
        <time>2009-05-19T09:51:23Z</time>
      </trkpt>
      <trkpt lat="44.79451" lon="-0.59595">
        <ele>18</ele>
        <time>2009-05-19T09:51:24Z</time>
      </trkpt>
      <trkpt lat="44.79451" lon="-0.59591">
        <ele>18</ele>
        <time>2009-05-19T09:51:25Z</time>
      </trkpt>
      <trkpt lat="44.79452" lon="-0.59588">
        <ele>18</ele>
        <time>2009-05-19T09:51:26Z</time>
      </trkpt>
      <trkpt lat="44.79452" lon="-0.59584">
        <ele>18</ele>
        <time>2009-05-19T09:51:26Z</time>
      </trkpt>
      <trkpt lat="44.79453" lon="-0.5958">
        <ele>18</ele>
        <time>2009-05-19T09:51:27Z</time>
      </trkpt>
      <trkpt lat="44.79454" lon="-0.59576">
        <ele>18</ele>
        <time>2009-05-19T09:51:28Z</time>
      </trkpt>
      <trkpt lat="44.79454" lon="-0.59572">
        <ele>18</ele>
        <time>2009-05-19T09:51:29Z</time>
      </trkpt>
      <trkpt lat="44.79454" lon="-0.59568">
        <ele>18</ele>
        <time>2009-05-19T09:51:30Z</time>
      </trkpt>
      <trkpt lat="44.79455" lon="-0.59565">
        <ele>18</ele>
        <time>2009-05-19T09:51:31Z</time>
      </trkpt>
      <trkpt lat="44.79455" lon="-0.59561">
        <ele>18</ele>
        <time>2009-05-19T09:51:32Z</time>
      </trkpt>
      <trkpt lat="44.79455" lon="-0.59557">
        <ele>18</ele>
        <time>2009-05-19T09:51:33Z</time>
      </trkpt>
      <trkpt lat="44.79455" lon="-0.59554">
        <ele>18</ele>
        <time>2009-05-19T09:51:34Z</time>
      </trkpt>
      <trkpt lat="44.79456" lon="-0.5955">
        <ele>18</ele>
        <time>2009-05-19T09:51:35Z</time>
      </trkpt>
      <trkpt lat="44.79456" lon="-0.59546">
        <ele>18</ele>
        <time>2009-05-19T09:51:36Z</time>
      </trkpt>
      <trkpt lat="44.79456" lon="-0.59542">
        <ele>18</ele>
        <time>2009-05-19T09:51:37Z</time>
      </trkpt>
      <trkpt lat="44.79456" lon="-0.59538">
        <ele>18</ele>
        <time>2009-05-19T09:51:38Z</time>
      </trkpt>
      <trkpt lat="44.79456" lon="-0.59535">
        <ele>18</ele>
        <time>2009-05-19T09:51:39Z</time>
      </trkpt>
      <trkpt lat="44.79456" lon="-0.59531">
        <ele>18</ele>
        <time>2009-05-19T09:51:40Z</time>
      </trkpt>
      <trkpt lat="44.79457" lon="-0.59527">
        <ele>18</ele>
        <time>2009-05-19T09:51:41Z</time>
      </trkpt>
      <trkpt lat="44.79457" lon="-0.59524">
        <ele>18</ele>
        <time>2009-05-19T09:51:42Z</time>
      </trkpt>
      <trkpt lat="44.79458" lon="-0.5952">
        <ele>18</ele>
        <time>2009-05-19T09:51:43Z</time>
      </trkpt>
      <trkpt lat="44.7946" lon="-0.59517">
        <ele>18</ele>
        <time>2009-05-19T09:51:44Z</time>
      </trkpt>
      <trkpt lat="44.79462" lon="-0.59515">
        <ele>18</ele>
        <time>2009-05-19T09:51:45Z</time>
      </trkpt>
      <trkpt lat="44.79464" lon="-0.59512">
        <ele>18</ele>
        <time>2009-05-19T09:51:46Z</time>
      </trkpt>
      <trkpt lat="44.79466" lon="-0.59511">
        <ele>18</ele>
        <time>2009-05-19T09:51:47Z</time>
      </trkpt>
      <trkpt lat="44.79469" lon="-0.59509">
        <ele>18</ele>
        <time>2009-05-19T09:51:48Z</time>
      </trkpt>
      <trkpt lat="44.79471" lon="-0.59508">
        <ele>18</ele>
        <time>2009-05-19T09:51:49Z</time>
      </trkpt>
      <trkpt lat="44.79473" lon="-0.59506">
        <ele>18</ele>
        <time>2009-05-19T09:51:50Z</time>
      </trkpt>
      <trkpt lat="44.79475" lon="-0.59505">
        <ele>18</ele>
        <time>2009-05-19T09:51:51Z</time>
      </trkpt>
      <trkpt lat="44.79478" lon="-0.59504">
        <ele>18</ele>
        <time>2009-05-19T09:51:52Z</time>
      </trkpt>
      <trkpt lat="44.7948" lon="-0.59504">
        <ele>18</ele>
        <time>2009-05-19T09:51:53Z</time>
      </trkpt>
      <trkpt lat="44.79483" lon="-0.59504">
        <ele>18</ele>
        <time>2009-05-19T09:51:54Z</time>
      </trkpt>
      <trkpt lat="44.79486" lon="-0.59504">
        <ele>18</ele>
        <time>2009-05-19T09:51:55Z</time>
      </trkpt>
      <trkpt lat="44.79488" lon="-0.59504">
        <ele>18</ele>
        <time>2009-05-19T09:51:56Z</time>
      </trkpt>
      <trkpt lat="44.79491" lon="-0.59504">
        <ele>18</ele>
        <time>2009-05-19T09:51:57Z</time>
      </trkpt>
      <trkpt lat="44.79492" lon="-0.59505">
        <ele>18</ele>
        <time>2009-05-19T09:51:58Z</time>
      </trkpt>
      <trkpt lat="44.79494" lon="-0.59506">
        <ele>18</ele>
        <time>2009-05-19T09:51:59Z</time>
      </trkpt>
      <trkpt lat="44.79494" lon="-0.59507">
        <ele>18</ele>
        <time>2009-05-19T09:52:01Z</time>
      </trkpt>
      <trkpt lat="44.79491" lon="-0.59506">
        <ele>18</ele>
        <time>2009-05-19T09:52:03Z</time>
      </trkpt>
      <trkpt lat="44.79489" lon="-0.59506">
        <ele>18</ele>
        <time>2009-05-19T09:52:04Z</time>
      </trkpt>
      <trkpt lat="44.79487" lon="-0.59506">
        <ele>18</ele>
        <time>2009-05-19T09:52:05Z</time>
      </trkpt>
      <trkpt lat="44.79484" lon="-0.59506">
        <ele>18</ele>
        <time>2009-05-19T09:52:06Z</time>
      </trkpt>
      <trkpt lat="44.79482" lon="-0.59507">
        <ele>18</ele>
        <time>2009-05-19T09:52:07Z</time>
      </trkpt>
      <trkpt lat="44.79479" lon="-0.59508">
        <ele>18</ele>
        <time>2009-05-19T09:52:08Z</time>
      </trkpt>
      <trkpt lat="44.79476" lon="-0.59508">
        <ele>18</ele>
        <time>2009-05-19T09:52:09Z</time>
      </trkpt>
      <trkpt lat="44.79473" lon="-0.59509">
        <ele>18</ele>
        <time>2009-05-19T09:52:10Z</time>
      </trkpt>
      <trkpt lat="44.7947" lon="-0.5951">
        <ele>18</ele>
        <time>2009-05-19T09:52:11Z</time>
      </trkpt>
      <trkpt lat="44.79467" lon="-0.59511">
        <ele>18</ele>
        <time>2009-05-19T09:52:12Z</time>
      </trkpt>
      <trkpt lat="44.79465" lon="-0.59513">
        <ele>18</ele>
        <time>2009-05-19T09:52:13Z</time>
      </trkpt>
      <trkpt lat="44.79462" lon="-0.59515">
        <ele>18</ele>
        <time>2009-05-19T09:52:14Z</time>
      </trkpt>
      <trkpt lat="44.79459" lon="-0.59517">
        <ele>18</ele>
        <time>2009-05-19T09:52:15Z</time>
      </trkpt>
      <trkpt lat="44.79457" lon="-0.59517">
        <ele>18</ele>
        <time>2009-05-19T09:52:16Z</time>
      </trkpt>
      <trkpt lat="44.79454" lon="-0.59518">
        <ele>18</ele>
        <time>2009-05-19T09:52:17Z</time>
      </trkpt>
      <trkpt lat="44.79451" lon="-0.59517">
        <ele>18</ele>
        <time>2009-05-19T09:52:18Z</time>
      </trkpt>
      <trkpt lat="44.7945" lon="-0.59515">
        <ele>18</ele>
        <time>2009-05-19T09:52:19Z</time>
      </trkpt>
      <trkpt lat="44.79449" lon="-0.59511">
        <ele>18</ele>
        <time>2009-05-19T09:52:20Z</time>
      </trkpt>
      <trkpt lat="44.79449" lon="-0.59507">
        <ele>18</ele>
        <time>2009-05-19T09:52:21Z</time>
      </trkpt>
      <trkpt lat="44.79448" lon="-0.59503">
        <ele>18</ele>
        <time>2009-05-19T09:52:22Z</time>
      </trkpt>
      <trkpt lat="44.79447" lon="-0.59499">
        <ele>18</ele>
        <time>2009-05-19T09:52:23Z</time>
      </trkpt>
      <trkpt lat="44.79447" lon="-0.59494">
        <ele>18</ele>
        <time>2009-05-19T09:52:24Z</time>
      </trkpt>
      <trkpt lat="44.79446" lon="-0.59491">
        <ele>18</ele>
        <time>2009-05-19T09:52:25Z</time>
      </trkpt>
      <trkpt lat="44.79445" lon="-0.59487">
        <ele>18</ele>
        <time>2009-05-19T09:52:26Z</time>
      </trkpt>
      <trkpt lat="44.79444" lon="-0.59483">
        <ele>18</ele>
        <time>2009-05-19T09:52:27Z</time>
      </trkpt>
      <trkpt lat="44.79444" lon="-0.59479">
        <ele>18</ele>
        <time>2009-05-19T09:52:28Z</time>
      </trkpt>
      <trkpt lat="44.79443" lon="-0.59475">
        <ele>18</ele>
        <time>2009-05-19T09:52:29Z</time>
      </trkpt>
      <trkpt lat="44.79442" lon="-0.59472">
        <ele>19</ele>
        <time>2009-05-19T09:52:30Z</time>
      </trkpt>
      <trkpt lat="44.79442" lon="-0.59468">
        <ele>19</ele>
        <time>2009-05-19T09:52:31Z</time>
      </trkpt>
      <trkpt lat="44.79441" lon="-0.59465">
        <ele>19</ele>
        <time>2009-05-19T09:52:32Z</time>
      </trkpt>
      <trkpt lat="44.7944" lon="-0.59461">
        <ele>19</ele>
        <time>2009-05-19T09:52:33Z</time>
      </trkpt>
      <trkpt lat="44.79439" lon="-0.59457">
        <ele>19</ele>
        <time>2009-05-19T09:52:34Z</time>
      </trkpt>
      <trkpt lat="44.79438" lon="-0.59454">
        <ele>19</ele>
        <time>2009-05-19T09:52:35Z</time>
      </trkpt>
      <trkpt lat="44.79437" lon="-0.59451">
        <ele>19</ele>
        <time>2009-05-19T09:52:36Z</time>
      </trkpt>
      <trkpt lat="44.79436" lon="-0.59447">
        <ele>19</ele>
        <time>2009-05-19T09:52:37Z</time>
      </trkpt>
      <trkpt lat="44.79435" lon="-0.59444">
        <ele>19</ele>
        <time>2009-05-19T09:52:38Z</time>
      </trkpt>
      <trkpt lat="44.79434" lon="-0.59441">
        <ele>19</ele>
        <time>2009-05-19T09:52:39Z</time>
      </trkpt>
      <trkpt lat="44.79433" lon="-0.59437">
        <ele>19</ele>
        <time>2009-05-19T09:52:40Z</time>
      </trkpt>
      <trkpt lat="44.79432" lon="-0.59434">
        <ele>19</ele>
        <time>2009-05-19T09:52:41Z</time>
      </trkpt>
      <trkpt lat="44.79431" lon="-0.5943">
        <ele>19</ele>
        <time>2009-05-19T09:52:42Z</time>
      </trkpt>
      <trkpt lat="44.7943" lon="-0.59427">
        <ele>19</ele>
        <time>2009-05-19T09:52:43Z</time>
      </trkpt>
      <trkpt lat="44.7943" lon="-0.59423">
        <ele>19</ele>
        <time>2009-05-19T09:52:45Z</time>
      </trkpt>
      <trkpt lat="44.79429" lon="-0.59419">
        <ele>19</ele>
        <time>2009-05-19T09:52:46Z</time>
      </trkpt>
      <trkpt lat="44.79428" lon="-0.59416">
        <ele>19</ele>
        <time>2009-05-19T09:52:47Z</time>
      </trkpt>
      <trkpt lat="44.79427" lon="-0.59413">
        <ele>19</ele>
        <time>2009-05-19T09:52:47Z</time>
      </trkpt>
      <trkpt lat="44.79426" lon="-0.59409">
        <ele>19</ele>
        <time>2009-05-19T09:52:48Z</time>
      </trkpt>
      <trkpt lat="44.79426" lon="-0.59406">
        <ele>19</ele>
        <time>2009-05-19T09:52:49Z</time>
      </trkpt>
      <trkpt lat="44.79425" lon="-0.59402">
        <ele>19</ele>
        <time>2009-05-19T09:52:50Z</time>
      </trkpt>
      <trkpt lat="44.79424" lon="-0.59398">
        <ele>19</ele>
        <time>2009-05-19T09:52:51Z</time>
      </trkpt>
      <trkpt lat="44.79423" lon="-0.59394">
        <ele>19</ele>
        <time>2009-05-19T09:52:52Z</time>
      </trkpt>
      <trkpt lat="44.79422" lon="-0.5939">
        <ele>19</ele>
        <time>2009-05-19T09:52:53Z</time>
      </trkpt>
      <trkpt lat="44.79422" lon="-0.59387">
        <ele>19</ele>
        <time>2009-05-19T09:52:54Z</time>
      </trkpt>
      <trkpt lat="44.79421" lon="-0.59383">
        <ele>19</ele>
        <time>2009-05-19T09:52:55Z</time>
      </trkpt>
      <trkpt lat="44.79421" lon="-0.59379">
        <ele>19</ele>
        <time>2009-05-19T09:52:56Z</time>
      </trkpt>
      <trkpt lat="44.7942" lon="-0.59375">
        <ele>19</ele>
        <time>2009-05-19T09:52:57Z</time>
      </trkpt>
      <trkpt lat="44.79419" lon="-0.59372">
        <ele>19</ele>
        <time>2009-05-19T09:52:58Z</time>
      </trkpt>
      <trkpt lat="44.79418" lon="-0.59369">
        <ele>19</ele>
        <time>2009-05-19T09:52:59Z</time>
      </trkpt>
      <trkpt lat="44.79418" lon="-0.59366">
        <ele>19</ele>
        <time>2009-05-19T09:53:00Z</time>
      </trkpt>
      <trkpt lat="44.79417" lon="-0.59362">
        <ele>19</ele>
        <time>2009-05-19T09:53:01Z</time>
      </trkpt>
      <trkpt lat="44.79416" lon="-0.59358">
        <ele>19</ele>
        <time>2009-05-19T09:53:02Z</time>
      </trkpt>
      <trkpt lat="44.79415" lon="-0.59355">
        <ele>19</ele>
        <time>2009-05-19T09:53:03Z</time>
      </trkpt>
      <trkpt lat="44.79415" lon="-0.59353">
        <ele>19</ele>
        <time>2009-05-19T09:53:04Z</time>
      </trkpt>
      <trkpt lat="44.79414" lon="-0.59349">
        <ele>19</ele>
        <time>2009-05-19T09:53:05Z</time>
      </trkpt>
      <trkpt lat="44.79413" lon="-0.59346">
        <ele>19</ele>
        <time>2009-05-19T09:53:06Z</time>
      </trkpt>
      <trkpt lat="44.79412" lon="-0.59342">
        <ele>19</ele>
        <time>2009-05-19T09:53:07Z</time>
      </trkpt>
      <trkpt lat="44.79411" lon="-0.59338">
        <ele>19</ele>
        <time>2009-05-19T09:53:08Z</time>
      </trkpt>
      <trkpt lat="44.7941" lon="-0.59335">
        <ele>19</ele>
        <time>2009-05-19T09:53:09Z</time>
      </trkpt>
      <trkpt lat="44.7941" lon="-0.59332">
        <ele>19</ele>
        <time>2009-05-19T09:53:10Z</time>
      </trkpt>
      <trkpt lat="44.79409" lon="-0.59328">
        <ele>19</ele>
        <time>2009-05-19T09:53:11Z</time>
      </trkpt>
      <trkpt lat="44.79408" lon="-0.59324">
        <ele>19</ele>
        <time>2009-05-19T09:53:12Z</time>
      </trkpt>
      <trkpt lat="44.79407" lon="-0.59321">
        <ele>19</ele>
        <time>2009-05-19T09:53:13Z</time>
      </trkpt>
      <trkpt lat="44.79406" lon="-0.59318">
        <ele>19</ele>
        <time>2009-05-19T09:53:14Z</time>
      </trkpt>
      <trkpt lat="44.79406" lon="-0.59314">
        <ele>19</ele>
        <time>2009-05-19T09:53:15Z</time>
      </trkpt>
      <trkpt lat="44.79405" lon="-0.5931">
        <ele>19</ele>
        <time>2009-05-19T09:53:16Z</time>
      </trkpt>
      <trkpt lat="44.79404" lon="-0.59307">
        <ele>19</ele>
        <time>2009-05-19T09:53:17Z</time>
      </trkpt>
      <trkpt lat="44.79404" lon="-0.59304">
        <ele>19</ele>
        <time>2009-05-19T09:53:18Z</time>
      </trkpt>
      <trkpt lat="44.79403" lon="-0.59301">
        <ele>19</ele>
        <time>2009-05-19T09:53:19Z</time>
      </trkpt>
      <trkpt lat="44.79402" lon="-0.59298">
        <ele>19</ele>
        <time>2009-05-19T09:53:20Z</time>
      </trkpt>
      <trkpt lat="44.79401" lon="-0.59294">
        <ele>19</ele>
        <time>2009-05-19T09:53:21Z</time>
      </trkpt>
      <trkpt lat="44.794" lon="-0.59291">
        <ele>19</ele>
        <time>2009-05-19T09:53:22Z</time>
      </trkpt>
      <trkpt lat="44.79399" lon="-0.59287">
        <ele>19</ele>
        <time>2009-05-19T09:53:23Z</time>
      </trkpt>
      <trkpt lat="44.79398" lon="-0.59284">
        <ele>19</ele>
        <time>2009-05-19T09:53:24Z</time>
      </trkpt>
      <trkpt lat="44.79397" lon="-0.59282">
        <ele>19</ele>
        <time>2009-05-19T09:53:25Z</time>
      </trkpt>
      <trkpt lat="44.79397" lon="-0.59278">
        <ele>19</ele>
        <time>2009-05-19T09:53:26Z</time>
      </trkpt>
      <trkpt lat="44.79396" lon="-0.59275">
        <ele>19</ele>
        <time>2009-05-19T09:53:27Z</time>
      </trkpt>
      <trkpt lat="44.79395" lon="-0.59272">
        <ele>19</ele>
        <time>2009-05-19T09:53:28Z</time>
      </trkpt>
      <trkpt lat="44.79395" lon="-0.59268">
        <ele>19</ele>
        <time>2009-05-19T09:53:29Z</time>
      </trkpt>
      <trkpt lat="44.79394" lon="-0.59264">
        <ele>19</ele>
        <time>2009-05-19T09:53:30Z</time>
      </trkpt>
      <trkpt lat="44.79393" lon="-0.59261">
        <ele>19</ele>
        <time>2009-05-19T09:53:31Z</time>
      </trkpt>
      <trkpt lat="44.79392" lon="-0.59258">
        <ele>19</ele>
        <time>2009-05-19T09:53:32Z</time>
      </trkpt>
      <trkpt lat="44.79392" lon="-0.59254">
        <ele>19</ele>
        <time>2009-05-19T09:53:33Z</time>
      </trkpt>
      <trkpt lat="44.79392" lon="-0.59253">
        <ele>19</ele>
        <time>2009-05-19T09:53:34Z</time>
      </trkpt>
      <trkpt lat="44.79394" lon="-0.59252">
        <ele>19</ele>
        <time>2009-05-19T09:53:35Z</time>
      </trkpt>
      <trkpt lat="44.79395" lon="-0.59254">
        <ele>19</ele>
        <time>2009-05-19T09:53:36Z</time>
      </trkpt>
      <trkpt lat="44.79395" lon="-0.59256">
        <ele>19</ele>
        <time>2009-05-19T09:53:37Z</time>
      </trkpt>
      <trkpt lat="44.79395" lon="-0.5926">
        <ele>18</ele>
        <time>2009-05-19T09:53:38Z</time>
      </trkpt>
      <trkpt lat="44.79394" lon="-0.59264">
        <ele>18</ele>
        <time>2009-05-19T09:53:39Z</time>
      </trkpt>
      <trkpt lat="44.79394" lon="-0.59267">
        <ele>18</ele>
        <time>2009-05-19T09:53:40Z</time>
      </trkpt>
      <trkpt lat="44.79394" lon="-0.59271">
        <ele>18</ele>
        <time>2009-05-19T09:53:41Z</time>
      </trkpt>
      <trkpt lat="44.79395" lon="-0.59274">
        <ele>18</ele>
        <time>2009-05-19T09:53:42Z</time>
      </trkpt>
      <trkpt lat="44.79395" lon="-0.59278">
        <ele>18</ele>
        <time>2009-05-19T09:53:43Z</time>
      </trkpt>
      <trkpt lat="44.79395" lon="-0.59282">
        <ele>18</ele>
        <time>2009-05-19T09:53:44Z</time>
      </trkpt>
      <trkpt lat="44.79396" lon="-0.59285">
        <ele>18</ele>
        <time>2009-05-19T09:53:45Z</time>
      </trkpt>
      <trkpt lat="44.79397" lon="-0.59289">
        <ele>18</ele>
        <time>2009-05-19T09:53:46Z</time>
      </trkpt>
      <trkpt lat="44.79398" lon="-0.59293">
        <ele>18</ele>
        <time>2009-05-19T09:53:47Z</time>
      </trkpt>
      <trkpt lat="44.794" lon="-0.59296">
        <ele>18</ele>
        <time>2009-05-19T09:53:48Z</time>
      </trkpt>
      <trkpt lat="44.79401" lon="-0.593">
        <ele>18</ele>
        <time>2009-05-19T09:53:49Z</time>
      </trkpt>
      <trkpt lat="44.79402" lon="-0.59303">
        <ele>18</ele>
        <time>2009-05-19T09:53:50Z</time>
      </trkpt>
      <trkpt lat="44.79404" lon="-0.59307">
        <ele>18</ele>
        <time>2009-05-19T09:53:51Z</time>
      </trkpt>
      <trkpt lat="44.79406" lon="-0.5931">
        <ele>18</ele>
        <time>2009-05-19T09:53:52Z</time>
      </trkpt>
      <trkpt lat="44.79406" lon="-0.59314">
        <ele>18</ele>
        <time>2009-05-19T09:53:53Z</time>
      </trkpt>
      <trkpt lat="44.79407" lon="-0.59319">
        <ele>18</ele>
        <time>2009-05-19T09:53:54Z</time>
      </trkpt>
      <trkpt lat="44.79407" lon="-0.59324">
        <ele>18</ele>
        <time>2009-05-19T09:53:55Z</time>
      </trkpt>
      <trkpt lat="44.79407" lon="-0.59328">
        <ele>18</ele>
        <time>2009-05-19T09:53:56Z</time>
      </trkpt>
      <trkpt lat="44.79409" lon="-0.59332">
        <ele>18</ele>
        <time>2009-05-19T09:53:57Z</time>
      </trkpt>
      <trkpt lat="44.79411" lon="-0.59335">
        <ele>18</ele>
        <time>2009-05-19T09:53:58Z</time>
      </trkpt>
      <trkpt lat="44.79411" lon="-0.59339">
        <ele>18</ele>
        <time>2009-05-19T09:53:59Z</time>
      </trkpt>
      <trkpt lat="44.79412" lon="-0.59343">
        <ele>18</ele>
        <time>2009-05-19T09:54:00Z</time>
      </trkpt>
      <trkpt lat="44.79412" lon="-0.59346">
        <ele>18</ele>
        <time>2009-05-19T09:54:01Z</time>
      </trkpt>
      <trkpt lat="44.79413" lon="-0.5935">
        <ele>18</ele>
        <time>2009-05-19T09:54:02Z</time>
      </trkpt>
      <trkpt lat="44.79415" lon="-0.59353">
        <ele>18</ele>
        <time>2009-05-19T09:54:03Z</time>
      </trkpt>
      <trkpt lat="44.79416" lon="-0.59356">
        <ele>18</ele>
        <time>2009-05-19T09:54:04Z</time>
      </trkpt>
      <trkpt lat="44.79416" lon="-0.5936">
        <ele>17</ele>
        <time>2009-05-19T09:54:06Z</time>
      </trkpt>
      <trkpt lat="44.79417" lon="-0.59363">
        <ele>17</ele>
        <time>2009-05-19T09:54:07Z</time>
      </trkpt>
      <trkpt lat="44.79418" lon="-0.59367">
        <ele>16</ele>
        <time>2009-05-19T09:54:08Z</time>
      </trkpt>
      <trkpt lat="44.79419" lon="-0.59371">
        <ele>16</ele>
        <time>2009-05-19T09:54:08Z</time>
      </trkpt>
      <trkpt lat="44.79419" lon="-0.59374">
        <ele>15</ele>
        <time>2009-05-19T09:54:09Z</time>
      </trkpt>
      <trkpt lat="44.7942" lon="-0.59378">
        <ele>15</ele>
        <time>2009-05-19T09:54:10Z</time>
      </trkpt>
      <trkpt lat="44.79421" lon="-0.59381">
        <ele>15</ele>
        <time>2009-05-19T09:54:11Z</time>
      </trkpt>
      <trkpt lat="44.79422" lon="-0.59384">
        <ele>15</ele>
        <time>2009-05-19T09:54:12Z</time>
      </trkpt>
      <trkpt lat="44.79423" lon="-0.59387">
        <ele>14</ele>
        <time>2009-05-19T09:54:13Z</time>
      </trkpt>
      <trkpt lat="44.79424" lon="-0.5939">
        <ele>14</ele>
        <time>2009-05-19T09:54:14Z</time>
      </trkpt>
      <trkpt lat="44.79425" lon="-0.59393">
        <ele>14</ele>
        <time>2009-05-19T09:54:15Z</time>
      </trkpt>
      <trkpt lat="44.79426" lon="-0.59396">
        <ele>14</ele>
        <time>2009-05-19T09:54:16Z</time>
      </trkpt>
      <trkpt lat="44.79427" lon="-0.59399">
        <ele>13</ele>
        <time>2009-05-19T09:54:17Z</time>
      </trkpt>
      <trkpt lat="44.79428" lon="-0.59403">
        <ele>13</ele>
        <time>2009-05-19T09:54:18Z</time>
      </trkpt>
      <trkpt lat="44.79428" lon="-0.59407">
        <ele>13</ele>
        <time>2009-05-19T09:54:19Z</time>
      </trkpt>
      <trkpt lat="44.79428" lon="-0.59412">
        <ele>12</ele>
        <time>2009-05-19T09:54:20Z</time>
      </trkpt>
      <trkpt lat="44.79428" lon="-0.59416">
        <ele>12</ele>
        <time>2009-05-19T09:54:21Z</time>
      </trkpt>
      <trkpt lat="44.79428" lon="-0.5942">
        <ele>12</ele>
        <time>2009-05-19T09:54:22Z</time>
      </trkpt>
      <trkpt lat="44.79429" lon="-0.59423">
        <ele>12</ele>
        <time>2009-05-19T09:54:23Z</time>
      </trkpt>
      <trkpt lat="44.79429" lon="-0.59426">
        <ele>12</ele>
        <time>2009-05-19T09:54:24Z</time>
      </trkpt>
      <trkpt lat="44.79429" lon="-0.59429">
        <ele>12</ele>
        <time>2009-05-19T09:54:25Z</time>
      </trkpt>
      <trkpt lat="44.7943" lon="-0.59432">
        <ele>12</ele>
        <time>2009-05-19T09:54:26Z</time>
      </trkpt>
      <trkpt lat="44.79431" lon="-0.59435">
        <ele>12</ele>
        <time>2009-05-19T09:54:27Z</time>
      </trkpt>
      <trkpt lat="44.79432" lon="-0.59438">
        <ele>12</ele>
        <time>2009-05-19T09:54:28Z</time>
      </trkpt>
      <trkpt lat="44.79433" lon="-0.59441">
        <ele>12</ele>
        <time>2009-05-19T09:54:29Z</time>
      </trkpt>
      <trkpt lat="44.79434" lon="-0.59444">
        <ele>12</ele>
        <time>2009-05-19T09:54:30Z</time>
      </trkpt>
      <trkpt lat="44.79435" lon="-0.59447">
        <ele>12</ele>
        <time>2009-05-19T09:54:31Z</time>
      </trkpt>
      <trkpt lat="44.79436" lon="-0.59451">
        <ele>12</ele>
        <time>2009-05-19T09:54:32Z</time>
      </trkpt>
      <trkpt lat="44.79436" lon="-0.59454">
        <ele>12</ele>
        <time>2009-05-19T09:54:33Z</time>
      </trkpt>
      <trkpt lat="44.79437" lon="-0.59458">
        <ele>12</ele>
        <time>2009-05-19T09:54:34Z</time>
      </trkpt>
      <trkpt lat="44.79439" lon="-0.59462">
        <ele>12</ele>
        <time>2009-05-19T09:54:35Z</time>
      </trkpt>
      <trkpt lat="44.79441" lon="-0.59465">
        <ele>12</ele>
        <time>2009-05-19T09:54:36Z</time>
      </trkpt>
      <trkpt lat="44.79442" lon="-0.59469">
        <ele>12</ele>
        <time>2009-05-19T09:54:37Z</time>
      </trkpt>
      <trkpt lat="44.79443" lon="-0.59472">
        <ele>12</ele>
        <time>2009-05-19T09:54:38Z</time>
      </trkpt>
      <trkpt lat="44.79444" lon="-0.59476">
        <ele>12</ele>
        <time>2009-05-19T09:54:39Z</time>
      </trkpt>
      <trkpt lat="44.79445" lon="-0.59479">
        <ele>12</ele>
        <time>2009-05-19T09:54:40Z</time>
      </trkpt>
      <trkpt lat="44.79446" lon="-0.59483">
        <ele>12</ele>
        <time>2009-05-19T09:54:41Z</time>
      </trkpt>
      <trkpt lat="44.79447" lon="-0.59486">
        <ele>12</ele>
        <time>2009-05-19T09:54:42Z</time>
      </trkpt>
      <trkpt lat="44.79447" lon="-0.5949">
        <ele>12</ele>
        <time>2009-05-19T09:54:43Z</time>
      </trkpt>
      <trkpt lat="44.79448" lon="-0.59493">
        <ele>12</ele>
        <time>2009-05-19T09:54:44Z</time>
      </trkpt>
      <trkpt lat="44.79448" lon="-0.59497">
        <ele>12</ele>
        <time>2009-05-19T09:54:45Z</time>
      </trkpt>
      <trkpt lat="44.79449" lon="-0.59501">
        <ele>12</ele>
        <time>2009-05-19T09:54:46Z</time>
      </trkpt>
      <trkpt lat="44.79449" lon="-0.59504">
        <ele>12</ele>
        <time>2009-05-19T09:54:47Z</time>
      </trkpt>
      <trkpt lat="44.7945" lon="-0.59508">
        <ele>12</ele>
        <time>2009-05-19T09:54:48Z</time>
      </trkpt>
      <trkpt lat="44.79451" lon="-0.59511">
        <ele>12</ele>
        <time>2009-05-19T09:54:49Z</time>
      </trkpt>
      <trkpt lat="44.79451" lon="-0.59514">
        <ele>12</ele>
        <time>2009-05-19T09:54:50Z</time>
      </trkpt>
      <trkpt lat="44.79451" lon="-0.59518">
        <ele>13</ele>
        <time>2009-05-19T09:54:51Z</time>
      </trkpt>
      <trkpt lat="44.79452" lon="-0.59521">
        <ele>13</ele>
        <time>2009-05-19T09:54:52Z</time>
      </trkpt>
      <trkpt lat="44.79454" lon="-0.59523">
        <ele>13</ele>
        <time>2009-05-19T09:54:53Z</time>
      </trkpt>
      <trkpt lat="44.79456" lon="-0.59523">
        <ele>14</ele>
        <time>2009-05-19T09:54:54Z</time>
      </trkpt>
      <trkpt lat="44.79459" lon="-0.59522">
        <ele>14</ele>
        <time>2009-05-19T09:54:55Z</time>
      </trkpt>
      <trkpt lat="44.79462" lon="-0.59521">
        <ele>14</ele>
        <time>2009-05-19T09:54:56Z</time>
      </trkpt>
      <trkpt lat="44.79464" lon="-0.5952">
        <ele>14</ele>
        <time>2009-05-19T09:54:57Z</time>
      </trkpt>
      <trkpt lat="44.79467" lon="-0.59517">
        <ele>14</ele>
        <time>2009-05-19T09:54:58Z</time>
      </trkpt>
      <trkpt lat="44.79469" lon="-0.59515">
        <ele>14</ele>
        <time>2009-05-19T09:54:59Z</time>
      </trkpt>
      <trkpt lat="44.79471" lon="-0.59514">
        <ele>14</ele>
        <time>2009-05-19T09:55:00Z</time>
      </trkpt>
      <trkpt lat="44.79474" lon="-0.59512">
        <ele>14</ele>
        <time>2009-05-19T09:55:01Z</time>
      </trkpt>
      <trkpt lat="44.79476" lon="-0.5951">
        <ele>14</ele>
        <time>2009-05-19T09:55:02Z</time>
      </trkpt>
      <trkpt lat="44.79478" lon="-0.5951">
        <ele>14</ele>
        <time>2009-05-19T09:55:03Z</time>
      </trkpt>
      <trkpt lat="44.79481" lon="-0.59508">
        <ele>14</ele>
        <time>2009-05-19T09:55:04Z</time>
      </trkpt>
      <trkpt lat="44.79484" lon="-0.59508">
        <ele>14</ele>
        <time>2009-05-19T09:55:05Z</time>
      </trkpt>
      <trkpt lat="44.79487" lon="-0.59508">
        <ele>14</ele>
        <time>2009-05-19T09:55:06Z</time>
      </trkpt>
      <trkpt lat="44.79489" lon="-0.59509">
        <ele>14</ele>
        <time>2009-05-19T09:55:07Z</time>
      </trkpt>
      <trkpt lat="44.7949" lon="-0.59509">
        <ele>14</ele>
        <time>2009-05-19T09:55:08Z</time>
      </trkpt>
      <trkpt lat="44.79492" lon="-0.59511">
        <ele>14</ele>
        <time>2009-05-19T09:55:09Z</time>
      </trkpt>
      <trkpt lat="44.79494" lon="-0.59512">
        <ele>14</ele>
        <time>2009-05-19T09:55:10Z</time>
      </trkpt>
      <trkpt lat="44.79496" lon="-0.59513">
        <ele>14</ele>
        <time>2009-05-19T09:55:11Z</time>
      </trkpt>
      <trkpt lat="44.79499" lon="-0.59513">
        <ele>14</ele>
        <time>2009-05-19T09:55:12Z</time>
      </trkpt>
      <trkpt lat="44.79502" lon="-0.59514">
        <ele>14</ele>
        <time>2009-05-19T09:55:13Z</time>
      </trkpt>
      <trkpt lat="44.79505" lon="-0.59514">
        <ele>14</ele>
        <time>2009-05-19T09:55:14Z</time>
      </trkpt>
      <trkpt lat="44.79508" lon="-0.59514">
        <ele>14</ele>
        <time>2009-05-19T09:55:15Z</time>
      </trkpt>
      <trkpt lat="44.79511" lon="-0.59515">
        <ele>14</ele>
        <time>2009-05-19T09:55:16Z</time>
      </trkpt>
      <trkpt lat="44.79513" lon="-0.59515">
        <ele>14</ele>
        <time>2009-05-19T09:55:17Z</time>
      </trkpt>
      <trkpt lat="44.79515" lon="-0.59516">
        <ele>14</ele>
        <time>2009-05-19T09:55:18Z</time>
      </trkpt>
      <trkpt lat="44.79518" lon="-0.59516">
        <ele>14</ele>
        <time>2009-05-19T09:55:19Z</time>
      </trkpt>
      <trkpt lat="44.7952" lon="-0.59516">
        <ele>14</ele>
        <time>2009-05-19T09:55:20Z</time>
      </trkpt>
      <trkpt lat="44.79523" lon="-0.59516">
        <ele>14</ele>
        <time>2009-05-19T09:55:21Z</time>
      </trkpt>
      <trkpt lat="44.79525" lon="-0.59517">
        <ele>14</ele>
        <time>2009-05-19T09:55:22Z</time>
      </trkpt>
      <trkpt lat="44.79527" lon="-0.59517">
        <ele>14</ele>
        <time>2009-05-19T09:55:23Z</time>
      </trkpt>
      <trkpt lat="44.7953" lon="-0.59518">
        <ele>13</ele>
        <time>2009-05-19T09:55:24Z</time>
      </trkpt>
      <trkpt lat="44.79533" lon="-0.59517">
        <ele>13</ele>
        <time>2009-05-19T09:55:25Z</time>
      </trkpt>
      <trkpt lat="44.79535" lon="-0.59518">
        <ele>12</ele>
        <time>2009-05-19T09:55:27Z</time>
      </trkpt>
      <trkpt lat="44.79538" lon="-0.59518">
        <ele>12</ele>
        <time>2009-05-19T09:55:28Z</time>
      </trkpt>
      <trkpt lat="44.7954" lon="-0.59517">
        <ele>12</ele>
        <time>2009-05-19T09:55:29Z</time>
      </trkpt>
      <trkpt lat="44.79541" lon="-0.59517">
        <ele>12</ele>
        <time>2009-05-19T09:55:30Z</time>
      </trkpt>
      <trkpt lat="44.79544" lon="-0.59517">
        <ele>12</ele>
        <time>2009-05-19T09:55:31Z</time>
      </trkpt>
      <trkpt lat="44.79546" lon="-0.59516">
        <ele>12</ele>
        <time>2009-05-19T09:55:31Z</time>
      </trkpt>
      <trkpt lat="44.79549" lon="-0.59516">
        <ele>12</ele>
        <time>2009-05-19T09:55:32Z</time>
      </trkpt>
      <trkpt lat="44.79551" lon="-0.59517">
        <ele>12</ele>
        <time>2009-05-19T09:55:33Z</time>
      </trkpt>
      <trkpt lat="44.79554" lon="-0.59517">
        <ele>12</ele>
        <time>2009-05-19T09:55:34Z</time>
      </trkpt>
      <trkpt lat="44.79558" lon="-0.59518">
        <ele>12</ele>
        <time>2009-05-19T09:55:35Z</time>
      </trkpt>
      <trkpt lat="44.79561" lon="-0.59519">
        <ele>12</ele>
        <time>2009-05-19T09:55:36Z</time>
      </trkpt>
      <trkpt lat="44.79564" lon="-0.5952">
        <ele>12</ele>
        <time>2009-05-19T09:55:37Z</time>
      </trkpt>
      <trkpt lat="44.79567" lon="-0.59522">
        <ele>12</ele>
        <time>2009-05-19T09:55:38Z</time>
      </trkpt>
      <trkpt lat="44.79568" lon="-0.59524">
        <ele>12</ele>
        <time>2009-05-19T09:55:39Z</time>
      </trkpt>
      <trkpt lat="44.7957" lon="-0.59526">
        <ele>12</ele>
        <time>2009-05-19T09:55:40Z</time>
      </trkpt>
      <trkpt lat="44.79571" lon="-0.59529">
        <ele>12</ele>
        <time>2009-05-19T09:55:41Z</time>
      </trkpt>
      <trkpt lat="44.79573" lon="-0.5953">
        <ele>12</ele>
        <time>2009-05-19T09:55:42Z</time>
      </trkpt>
      <trkpt lat="44.79575" lon="-0.59531">
        <ele>12</ele>
        <time>2009-05-19T09:55:43Z</time>
      </trkpt>
      <trkpt lat="44.79577" lon="-0.59533">
        <ele>12</ele>
        <time>2009-05-19T09:55:44Z</time>
      </trkpt>
      <trkpt lat="44.79579" lon="-0.59534">
        <ele>12</ele>
        <time>2009-05-19T09:55:45Z</time>
      </trkpt>
      <trkpt lat="44.79582" lon="-0.59535">
        <ele>12</ele>
        <time>2009-05-19T09:55:46Z</time>
      </trkpt>
      <trkpt lat="44.79584" lon="-0.59536">
        <ele>12</ele>
        <time>2009-05-19T09:55:47Z</time>
      </trkpt>
      <trkpt lat="44.79586" lon="-0.59537">
        <ele>12</ele>
        <time>2009-05-19T09:55:48Z</time>
      </trkpt>
      <trkpt lat="44.79589" lon="-0.59537">
        <ele>12</ele>
        <time>2009-05-19T09:55:49Z</time>
      </trkpt>
      <trkpt lat="44.79592" lon="-0.59536">
        <ele>12</ele>
        <time>2009-05-19T09:55:50Z</time>
      </trkpt>
      <trkpt lat="44.79595" lon="-0.59536">
        <ele>12</ele>
        <time>2009-05-19T09:55:51Z</time>
      </trkpt>
      <trkpt lat="44.79598" lon="-0.59535">
        <ele>12</ele>
        <time>2009-05-19T09:55:52Z</time>
      </trkpt>
      <trkpt lat="44.79601" lon="-0.59535">
        <ele>12</ele>
        <time>2009-05-19T09:55:53Z</time>
      </trkpt>
      <trkpt lat="44.79604" lon="-0.59535">
        <ele>12</ele>
        <time>2009-05-19T09:55:54Z</time>
      </trkpt>
      <trkpt lat="44.79606" lon="-0.59535">
        <ele>12</ele>
        <time>2009-05-19T09:55:55Z</time>
      </trkpt>
      <trkpt lat="44.79609" lon="-0.59535">
        <ele>12</ele>
        <time>2009-05-19T09:55:56Z</time>
      </trkpt>
      <trkpt lat="44.79611" lon="-0.59535">
        <ele>12</ele>
        <time>2009-05-19T09:55:57Z</time>
      </trkpt>
      <trkpt lat="44.79613" lon="-0.59535">
        <ele>12</ele>
        <time>2009-05-19T09:55:58Z</time>
      </trkpt>
      <trkpt lat="44.79615" lon="-0.59535">
        <ele>12</ele>
        <time>2009-05-19T09:55:59Z</time>
      </trkpt>
      <trkpt lat="44.79618" lon="-0.59536">
        <ele>12</ele>
        <time>2009-05-19T09:56:00Z</time>
      </trkpt>
      <trkpt lat="44.79623" lon="-0.59537">
        <ele>12</ele>
        <time>2009-05-19T09:56:01Z</time>
      </trkpt>
      <trkpt lat="44.79626" lon="-0.59538">
        <ele>12</ele>
        <time>2009-05-19T09:56:02Z</time>
      </trkpt>
      <trkpt lat="44.79629" lon="-0.5954">
        <ele>12</ele>
        <time>2009-05-19T09:56:03Z</time>
      </trkpt>
      <trkpt lat="44.79633" lon="-0.59542">
        <ele>12</ele>
        <time>2009-05-19T09:56:04Z</time>
      </trkpt>
      <trkpt lat="44.79635" lon="-0.59544">
        <ele>12</ele>
        <time>2009-05-19T09:56:05Z</time>
      </trkpt>
      <trkpt lat="44.79637" lon="-0.59547">
        <ele>12</ele>
        <time>2009-05-19T09:56:06Z</time>
      </trkpt>
      <trkpt lat="44.79638" lon="-0.5955">
        <ele>12</ele>
        <time>2009-05-19T09:56:07Z</time>
      </trkpt>
      <trkpt lat="44.79638" lon="-0.59554">
        <ele>12</ele>
        <time>2009-05-19T09:56:08Z</time>
      </trkpt>
      <trkpt lat="44.79638" lon="-0.59558">
        <ele>12</ele>
        <time>2009-05-19T09:56:09Z</time>
      </trkpt>
      <trkpt lat="44.79638" lon="-0.59563">
        <ele>12</ele>
        <time>2009-05-19T09:56:10Z</time>
      </trkpt>
      <trkpt lat="44.79639" lon="-0.59567">
        <ele>12</ele>
        <time>2009-05-19T09:56:11Z</time>
      </trkpt>
      <trkpt lat="44.79639" lon="-0.59571">
        <ele>13</ele>
        <time>2009-05-19T09:56:12Z</time>
      </trkpt>
      <trkpt lat="44.79639" lon="-0.59576">
        <ele>13</ele>
        <time>2009-05-19T09:56:13Z</time>
      </trkpt>
      <trkpt lat="44.79639" lon="-0.5958">
        <ele>13</ele>
        <time>2009-05-19T09:56:14Z</time>
      </trkpt>
      <trkpt lat="44.79639" lon="-0.59583">
        <ele>13</ele>
        <time>2009-05-19T09:56:15Z</time>
      </trkpt>
      <trkpt lat="44.79639" lon="-0.59587">
        <ele>14</ele>
        <time>2009-05-19T09:56:16Z</time>
      </trkpt>
      <trkpt lat="44.79639" lon="-0.59591">
        <ele>14</ele>
        <time>2009-05-19T09:56:17Z</time>
      </trkpt>
      <trkpt lat="44.79639" lon="-0.59595">
        <ele>14</ele>
        <time>2009-05-19T09:56:18Z</time>
      </trkpt>
      <trkpt lat="44.7964" lon="-0.59599">
        <ele>14</ele>
        <time>2009-05-19T09:56:19Z</time>
      </trkpt>
      <trkpt lat="44.79641" lon="-0.59602">
        <ele>14</ele>
        <time>2009-05-19T09:56:20Z</time>
      </trkpt>
      <trkpt lat="44.79641" lon="-0.59606">
        <ele>14</ele>
        <time>2009-05-19T09:56:21Z</time>
      </trkpt>
      <trkpt lat="44.79642" lon="-0.59609">
        <ele>14</ele>
        <time>2009-05-19T09:56:22Z</time>
      </trkpt>
      <trkpt lat="44.79643" lon="-0.59613">
        <ele>14</ele>
        <time>2009-05-19T09:56:23Z</time>
      </trkpt>
      <trkpt lat="44.79644" lon="-0.59616">
        <ele>14</ele>
        <time>2009-05-19T09:56:24Z</time>
      </trkpt>
      <trkpt lat="44.79645" lon="-0.5962">
        <ele>14</ele>
        <time>2009-05-19T09:56:25Z</time>
      </trkpt>
      <trkpt lat="44.79645" lon="-0.59623">
        <ele>14</ele>
        <time>2009-05-19T09:56:26Z</time>
      </trkpt>
      <trkpt lat="44.79646" lon="-0.59627">
        <ele>14</ele>
        <time>2009-05-19T09:56:27Z</time>
      </trkpt>
      <trkpt lat="44.79647" lon="-0.5963">
        <ele>14</ele>
        <time>2009-05-19T09:56:28Z</time>
      </trkpt>
      <trkpt lat="44.79648" lon="-0.59634">
        <ele>14</ele>
        <time>2009-05-19T09:56:29Z</time>
      </trkpt>
      <trkpt lat="44.79649" lon="-0.59637">
        <ele>14</ele>
        <time>2009-05-19T09:56:30Z</time>
      </trkpt>
      <trkpt lat="44.79649" lon="-0.59641">
        <ele>14</ele>
        <time>2009-05-19T09:56:31Z</time>
      </trkpt>
      <trkpt lat="44.7965" lon="-0.59644">
        <ele>14</ele>
        <time>2009-05-19T09:56:32Z</time>
      </trkpt>
      <trkpt lat="44.7965" lon="-0.59648">
        <ele>14</ele>
        <time>2009-05-19T09:56:33Z</time>
      </trkpt>
      <trkpt lat="44.79651" lon="-0.59651">
        <ele>14</ele>
        <time>2009-05-19T09:56:34Z</time>
      </trkpt>
      <trkpt lat="44.79652" lon="-0.59655">
        <ele>14</ele>
        <time>2009-05-19T09:56:35Z</time>
      </trkpt>
      <trkpt lat="44.79652" lon="-0.59658">
        <ele>14</ele>
        <time>2009-05-19T09:56:36Z</time>
      </trkpt>
      <trkpt lat="44.79653" lon="-0.59662">
        <ele>14</ele>
        <time>2009-05-19T09:56:37Z</time>
      </trkpt>
      <trkpt lat="44.79653" lon="-0.59665">
        <ele>14</ele>
        <time>2009-05-19T09:56:38Z</time>
      </trkpt>
      <trkpt lat="44.79654" lon="-0.59669">
        <ele>14</ele>
        <time>2009-05-19T09:56:39Z</time>
      </trkpt>
      <trkpt lat="44.79654" lon="-0.59672">
        <ele>14</ele>
        <time>2009-05-19T09:56:40Z</time>
      </trkpt>
      <trkpt lat="44.79655" lon="-0.59676">
        <ele>14</ele>
        <time>2009-05-19T09:56:41Z</time>
      </trkpt>
      <trkpt lat="44.79655" lon="-0.59679">
        <ele>15</ele>
        <time>2009-05-19T09:56:42Z</time>
      </trkpt>
      <trkpt lat="44.79656" lon="-0.59682">
        <ele>16</ele>
        <time>2009-05-19T09:56:43Z</time>
      </trkpt>
      <trkpt lat="44.79656" lon="-0.59686">
        <ele>16</ele>
        <time>2009-05-19T09:56:44Z</time>
      </trkpt>
      <trkpt lat="44.79657" lon="-0.5969">
        <ele>17</ele>
        <time>2009-05-19T09:56:45Z</time>
      </trkpt>
      <trkpt lat="44.79658" lon="-0.59693">
        <ele>17</ele>
        <time>2009-05-19T09:56:46Z</time>
      </trkpt>
      <trkpt lat="44.79659" lon="-0.59696">
        <ele>17</ele>
        <time>2009-05-19T09:56:47Z</time>
      </trkpt>
      <trkpt lat="44.7966" lon="-0.59698">
        <ele>17</ele>
        <time>2009-05-19T09:56:48Z</time>
      </trkpt>
      <trkpt lat="44.79661" lon="-0.597">
        <ele>17</ele>
        <time>2009-05-19T09:56:49Z</time>
      </trkpt>
      <trkpt lat="44.79664" lon="-0.59701">
        <ele>18</ele>
        <time>2009-05-19T09:56:51Z</time>
      </trkpt>
      <trkpt lat="44.79668" lon="-0.597">
        <ele>18</ele>
        <time>2009-05-19T09:56:52Z</time>
      </trkpt>
      <trkpt lat="44.79671" lon="-0.597">
        <ele>19</ele>
        <time>2009-05-19T09:56:52Z</time>
      </trkpt>
      <trkpt lat="44.79674" lon="-0.59699">
        <ele>19</ele>
        <time>2009-05-19T09:56:53Z</time>
      </trkpt>
      <trkpt lat="44.79677" lon="-0.59699">
        <ele>20</ele>
        <time>2009-05-19T09:56:54Z</time>
      </trkpt>
      <trkpt lat="44.7968" lon="-0.59699">
        <ele>21</ele>
        <time>2009-05-19T09:56:55Z</time>
      </trkpt>
      <trkpt lat="44.79682" lon="-0.59699">
        <ele>22</ele>
        <time>2009-05-19T09:56:56Z</time>
      </trkpt>
      <trkpt lat="44.79685" lon="-0.59699">
        <ele>22</ele>
        <time>2009-05-19T09:56:57Z</time>
      </trkpt>
      <trkpt lat="44.79688" lon="-0.59699">
        <ele>23</ele>
        <time>2009-05-19T09:56:58Z</time>
      </trkpt>
      <trkpt lat="44.7969" lon="-0.59698">
        <ele>23</ele>
        <time>2009-05-19T09:56:59Z</time>
      </trkpt>
      <trkpt lat="44.79693" lon="-0.59698">
        <ele>23</ele>
        <time>2009-05-19T09:57:00Z</time>
      </trkpt>
      <trkpt lat="44.79695" lon="-0.59698">
        <ele>23</ele>
        <time>2009-05-19T09:57:01Z</time>
      </trkpt>
      <trkpt lat="44.79698" lon="-0.59699">
        <ele>23</ele>
        <time>2009-05-19T09:57:02Z</time>
      </trkpt>
      <trkpt lat="44.79701" lon="-0.59701">
        <ele>23</ele>
        <time>2009-05-19T09:57:03Z</time>
      </trkpt>
      <trkpt lat="44.79703" lon="-0.59702">
        <ele>23</ele>
        <time>2009-05-19T09:57:04Z</time>
      </trkpt>
      <trkpt lat="44.79705" lon="-0.59705">
        <ele>23</ele>
        <time>2009-05-19T09:57:05Z</time>
      </trkpt>
      <trkpt lat="44.79707" lon="-0.59707">
        <ele>23</ele>
        <time>2009-05-19T09:57:06Z</time>
      </trkpt>
      <trkpt lat="44.79709" lon="-0.5971">
        <ele>23</ele>
        <time>2009-05-19T09:57:07Z</time>
      </trkpt>
      <trkpt lat="44.79711" lon="-0.59712">
        <ele>23</ele>
        <time>2009-05-19T09:57:08Z</time>
      </trkpt>
      <trkpt lat="44.79714" lon="-0.59715">
        <ele>23</ele>
        <time>2009-05-19T09:57:09Z</time>
      </trkpt>
      <trkpt lat="44.79715" lon="-0.59717">
        <ele>23</ele>
        <time>2009-05-19T09:57:10Z</time>
      </trkpt>
      <trkpt lat="44.79717" lon="-0.59719">
        <ele>23</ele>
        <time>2009-05-19T09:57:11Z</time>
      </trkpt>
      <trkpt lat="44.79718" lon="-0.59722">
        <ele>23</ele>
        <time>2009-05-19T09:57:12Z</time>
      </trkpt>
      <trkpt lat="44.7972" lon="-0.59725">
        <ele>23</ele>
        <time>2009-05-19T09:57:13Z</time>
      </trkpt>
      <trkpt lat="44.79722" lon="-0.59727">
        <ele>23</ele>
        <time>2009-05-19T09:57:14Z</time>
      </trkpt>
      <trkpt lat="44.79723" lon="-0.5973">
        <ele>23</ele>
        <time>2009-05-19T09:57:15Z</time>
      </trkpt>
      <trkpt lat="44.79725" lon="-0.59732">
        <ele>23</ele>
        <time>2009-05-19T09:57:16Z</time>
      </trkpt>
      <trkpt lat="44.79727" lon="-0.59734">
        <ele>23</ele>
        <time>2009-05-19T09:57:17Z</time>
      </trkpt>
      <trkpt lat="44.7973" lon="-0.59736">
        <ele>23</ele>
        <time>2009-05-19T09:57:18Z</time>
      </trkpt>
      <trkpt lat="44.79733" lon="-0.59738">
        <ele>22</ele>
        <time>2009-05-19T09:57:19Z</time>
      </trkpt>
      <trkpt lat="44.79735" lon="-0.59738">
        <ele>21</ele>
        <time>2009-05-19T09:57:20Z</time>
      </trkpt>
      <trkpt lat="44.79738" lon="-0.59736">
        <ele>21</ele>
        <time>2009-05-19T09:57:21Z</time>
      </trkpt>
      <trkpt lat="44.79742" lon="-0.59735">
        <ele>21</ele>
        <time>2009-05-19T09:57:22Z</time>
      </trkpt>
      <trkpt lat="44.79745" lon="-0.59733">
        <ele>21</ele>
        <time>2009-05-19T09:57:23Z</time>
      </trkpt>
      <trkpt lat="44.79748" lon="-0.59732">
        <ele>21</ele>
        <time>2009-05-19T09:57:24Z</time>
      </trkpt>
      <trkpt lat="44.79751" lon="-0.59729">
        <ele>21</ele>
        <time>2009-05-19T09:57:25Z</time>
      </trkpt>
      <trkpt lat="44.79753" lon="-0.59727">
        <ele>21</ele>
        <time>2009-05-19T09:57:26Z</time>
      </trkpt>
      <trkpt lat="44.79753" lon="-0.59727">
        <ele>21</ele>
        <time>2009-05-19T09:57:27Z</time>
      </trkpt>
    </trkseg>
  </trk>
</gpx>